<?xml version="1.0" encoding="UTF-8" standalone="no" ?>
<gpx xmlns="http://www.topografix.com/GPX/1/1" xmlns:xsi="http://www.w3.org/2001/XMLSchema-instance" xsi:schemaLocation="http://www.topografix.com/GPX/1/1 http://www.topografix.com/GPX/1/1/gpx.xsd" version="1.1" creator="VisuGPX - https://www.visugpx.com">
  <metadata>
    <name>J4 Olmeto - Sainte Lucie de Tallano</name>
  </metadata>
  <trk>
    <name><![CDATA[28-AVR-22 06:41:27 PM]]></name>
    <extensions>
      <line xmlns="http://www.topografix.com/GPX/gpx_style/0/2">
        <color>0000FF</color>
        <width>4</width>
      </line>
    </extensions>
    <trkseg>
      <trkpt lat="41.71945" lon="8.92061">
        <ele>329.39</ele>
        <time>2022-04-28T07:08:22Z</time>
      </trkpt>
      <trkpt lat="41.71945" lon="8.9206">
        <ele>329.39</ele>
        <time>2022-04-28T07:08:34Z</time>
      </trkpt>
      <trkpt lat="41.71947" lon="8.92066">
        <ele>329.87</ele>
        <time>2022-04-28T07:08:55Z</time>
      </trkpt>
      <trkpt lat="41.71951" lon="8.92072">
        <ele>329.87</ele>
        <time>2022-04-28T07:09:09Z</time>
      </trkpt>
      <trkpt lat="41.71953" lon="8.92074">
        <ele>329.87</ele>
        <time>2022-04-28T07:09:27Z</time>
      </trkpt>
      <trkpt lat="41.71947" lon="8.92074">
        <ele>330.83</ele>
        <time>2022-04-28T07:10:02Z</time>
      </trkpt>
      <trkpt lat="41.71949" lon="8.92075">
        <ele>329.87</ele>
        <time>2022-04-28T07:10:29Z</time>
      </trkpt>
      <trkpt lat="41.71945" lon="8.92073">
        <ele>329.87</ele>
        <time>2022-04-28T07:10:46Z</time>
      </trkpt>
      <trkpt lat="41.71943" lon="8.9207">
        <ele>330.35</ele>
        <time>2022-04-28T07:10:49Z</time>
      </trkpt>
      <trkpt lat="41.71951" lon="8.9206">
        <ele>328.91</ele>
        <time>2022-04-28T07:11:02Z</time>
      </trkpt>
      <trkpt lat="41.71957" lon="8.92067">
        <ele>328.43</ele>
        <time>2022-04-28T07:11:11Z</time>
      </trkpt>
      <trkpt lat="41.71872" lon="8.92021">
        <ele>328.43</ele>
        <time>2022-04-28T07:13:17Z</time>
      </trkpt>
      <trkpt lat="41.7189" lon="8.92038">
        <ele>328.43</ele>
        <time>2022-04-28T07:13:48Z</time>
      </trkpt>
      <trkpt lat="41.71927" lon="8.92059">
        <ele>329.39</ele>
        <time>2022-04-28T07:15:14Z</time>
      </trkpt>
      <trkpt lat="41.71936" lon="8.92067">
        <ele>330.35</ele>
        <time>2022-04-28T07:15:21Z</time>
      </trkpt>
      <trkpt lat="41.71945" lon="8.92072">
        <ele>330.83</ele>
        <time>2022-04-28T07:15:29Z</time>
      </trkpt>
      <trkpt lat="41.7195" lon="8.92074">
        <ele>330.35</ele>
        <time>2022-04-28T07:15:33Z</time>
      </trkpt>
      <trkpt lat="41.71954" lon="8.9208">
        <ele>331.31</ele>
        <time>2022-04-28T07:15:42Z</time>
      </trkpt>
      <trkpt lat="41.71956" lon="8.92089">
        <ele>331.79</ele>
        <time>2022-04-28T07:15:48Z</time>
      </trkpt>
      <trkpt lat="41.71969" lon="8.92108">
        <ele>331.31</ele>
        <time>2022-04-28T07:16:03Z</time>
      </trkpt>
      <trkpt lat="41.71984" lon="8.92115">
        <ele>329.39</ele>
        <time>2022-04-28T07:16:18Z</time>
      </trkpt>
      <trkpt lat="41.71985" lon="8.92118">
        <ele>330.35</ele>
        <time>2022-04-28T07:16:33Z</time>
      </trkpt>
      <trkpt lat="41.71996" lon="8.92125">
        <ele>330.35</ele>
        <time>2022-04-28T07:16:43Z</time>
      </trkpt>
      <trkpt lat="41.72011" lon="8.9214">
        <ele>329.39</ele>
        <time>2022-04-28T07:17:00Z</time>
      </trkpt>
      <trkpt lat="41.72023" lon="8.92152">
        <ele>328.91</ele>
        <time>2022-04-28T07:17:13Z</time>
      </trkpt>
      <trkpt lat="41.72033" lon="8.92169">
        <ele>326.5</ele>
        <time>2022-04-28T07:17:28Z</time>
      </trkpt>
      <trkpt lat="41.72042" lon="8.92181">
        <ele>324.58</ele>
        <time>2022-04-28T07:17:40Z</time>
      </trkpt>
      <trkpt lat="41.72063" lon="8.92199">
        <ele>324.1</ele>
        <time>2022-04-28T07:17:55Z</time>
      </trkpt>
      <trkpt lat="41.72074" lon="8.92217">
        <ele>322.18</ele>
        <time>2022-04-28T07:18:09Z</time>
      </trkpt>
      <trkpt lat="41.72075" lon="8.92235">
        <ele>319.3</ele>
        <time>2022-04-28T07:18:19Z</time>
      </trkpt>
      <trkpt lat="41.72077" lon="8.92238">
        <ele>318.81</ele>
        <time>2022-04-28T07:18:21Z</time>
      </trkpt>
      <trkpt lat="41.72078" lon="8.92239">
        <ele>318.33</ele>
        <time>2022-04-28T07:18:22Z</time>
      </trkpt>
      <trkpt lat="41.72088" lon="8.92245">
        <ele>315.93</ele>
        <time>2022-04-28T07:18:34Z</time>
      </trkpt>
      <trkpt lat="41.721" lon="8.92251">
        <ele>314.01</ele>
        <time>2022-04-28T07:18:48Z</time>
      </trkpt>
      <trkpt lat="41.72104" lon="8.92253">
        <ele>313.53</ele>
        <time>2022-04-28T07:18:52Z</time>
      </trkpt>
      <trkpt lat="41.72113" lon="8.92259">
        <ele>310.16</ele>
        <time>2022-04-28T07:19:04Z</time>
      </trkpt>
      <trkpt lat="41.72121" lon="8.9226">
        <ele>310.16</ele>
        <time>2022-04-28T07:19:17Z</time>
      </trkpt>
      <trkpt lat="41.72119" lon="8.92263">
        <ele>311.12</ele>
        <time>2022-04-28T07:19:42Z</time>
      </trkpt>
      <trkpt lat="41.72122" lon="8.92271">
        <ele>310.16</ele>
        <time>2022-04-28T07:20:03Z</time>
      </trkpt>
      <trkpt lat="41.72124" lon="8.92273">
        <ele>308.72</ele>
        <time>2022-04-28T07:20:06Z</time>
      </trkpt>
      <trkpt lat="41.72132" lon="8.92286">
        <ele>305.36</ele>
        <time>2022-04-28T07:20:21Z</time>
      </trkpt>
      <trkpt lat="41.72144" lon="8.92299">
        <ele>302.95</ele>
        <time>2022-04-28T07:20:38Z</time>
      </trkpt>
      <trkpt lat="41.72162" lon="8.92307">
        <ele>301.51</ele>
        <time>2022-04-28T07:20:53Z</time>
      </trkpt>
      <trkpt lat="41.72179" lon="8.92315">
        <ele>301.99</ele>
        <time>2022-04-28T07:21:08Z</time>
      </trkpt>
      <trkpt lat="41.72187" lon="8.92322">
        <ele>301.03</ele>
        <time>2022-04-28T07:21:18Z</time>
      </trkpt>
      <trkpt lat="41.72202" lon="8.92338">
        <ele>300.55</ele>
        <time>2022-04-28T07:21:31Z</time>
      </trkpt>
      <trkpt lat="41.72221" lon="8.92345">
        <ele>299.59</ele>
        <time>2022-04-28T07:21:46Z</time>
      </trkpt>
      <trkpt lat="41.72241" lon="8.92351">
        <ele>299.11</ele>
        <time>2022-04-28T07:22:01Z</time>
      </trkpt>
      <trkpt lat="41.72258" lon="8.92361">
        <ele>299.11</ele>
        <time>2022-04-28T07:22:15Z</time>
      </trkpt>
      <trkpt lat="41.7227" lon="8.9237">
        <ele>298.15</ele>
        <time>2022-04-28T07:22:28Z</time>
      </trkpt>
      <trkpt lat="41.72272" lon="8.92371">
        <ele>298.15</ele>
        <time>2022-04-28T07:22:29Z</time>
      </trkpt>
      <trkpt lat="41.72286" lon="8.92381">
        <ele>297.18</ele>
        <time>2022-04-28T07:22:42Z</time>
      </trkpt>
      <trkpt lat="41.72302" lon="8.92396">
        <ele>296.7</ele>
        <time>2022-04-28T07:22:59Z</time>
      </trkpt>
      <trkpt lat="41.72329" lon="8.92419">
        <ele>295.74</ele>
        <time>2022-04-28T07:23:21Z</time>
      </trkpt>
      <trkpt lat="41.72353" lon="8.92424">
        <ele>296.22</ele>
        <time>2022-04-28T07:23:41Z</time>
      </trkpt>
      <trkpt lat="41.7237" lon="8.92408">
        <ele>297.67</ele>
        <time>2022-04-28T07:23:59Z</time>
      </trkpt>
      <trkpt lat="41.72386" lon="8.92399">
        <ele>300.07</ele>
        <time>2022-04-28T07:24:15Z</time>
      </trkpt>
      <trkpt lat="41.7241" lon="8.92398">
        <ele>300.07</ele>
        <time>2022-04-28T07:24:32Z</time>
      </trkpt>
      <trkpt lat="41.72416" lon="8.924">
        <ele>299.59</ele>
        <time>2022-04-28T07:24:37Z</time>
      </trkpt>
      <trkpt lat="41.72424" lon="8.92414">
        <ele>298.63</ele>
        <time>2022-04-28T07:24:49Z</time>
      </trkpt>
      <trkpt lat="41.72428" lon="8.92426">
        <ele>298.15</ele>
        <time>2022-04-28T07:25:04Z</time>
      </trkpt>
      <trkpt lat="41.72429" lon="8.92432">
        <ele>297.67</ele>
        <time>2022-04-28T07:25:23Z</time>
      </trkpt>
      <trkpt lat="41.7242" lon="8.92441">
        <ele>294.3</ele>
        <time>2022-04-28T07:25:36Z</time>
      </trkpt>
      <trkpt lat="41.72415" lon="8.92449">
        <ele>291.9</ele>
        <time>2022-04-28T07:25:46Z</time>
      </trkpt>
      <trkpt lat="41.72414" lon="8.92451">
        <ele>291.9</ele>
        <time>2022-04-28T07:25:47Z</time>
      </trkpt>
      <trkpt lat="41.72413" lon="8.92453">
        <ele>291.9</ele>
        <time>2022-04-28T07:25:48Z</time>
      </trkpt>
      <trkpt lat="41.72409" lon="8.9247">
        <ele>289.01</ele>
        <time>2022-04-28T07:25:58Z</time>
      </trkpt>
      <trkpt lat="41.72403" lon="8.92476">
        <ele>287.09</ele>
        <time>2022-04-28T07:26:08Z</time>
      </trkpt>
      <trkpt lat="41.72402" lon="8.92478">
        <ele>287.09</ele>
        <time>2022-04-28T07:26:09Z</time>
      </trkpt>
      <trkpt lat="41.72401" lon="8.92489">
        <ele>285.17</ele>
        <time>2022-04-28T07:26:20Z</time>
      </trkpt>
      <trkpt lat="41.72404" lon="8.92496">
        <ele>284.69</ele>
        <time>2022-04-28T07:26:24Z</time>
      </trkpt>
      <trkpt lat="41.72413" lon="8.92516">
        <ele>282.77</ele>
        <time>2022-04-28T07:26:38Z</time>
      </trkpt>
      <trkpt lat="41.72413" lon="8.92523">
        <ele>281.32</ele>
        <time>2022-04-28T07:26:46Z</time>
      </trkpt>
      <trkpt lat="41.72408" lon="8.92537">
        <ele>280.84</ele>
        <time>2022-04-28T07:27:04Z</time>
      </trkpt>
      <trkpt lat="41.72401" lon="8.92539">
        <ele>282.77</ele>
        <time>2022-04-28T07:27:24Z</time>
      </trkpt>
      <trkpt lat="41.7238" lon="8.92548">
        <ele>286.61</ele>
        <time>2022-04-28T07:27:40Z</time>
      </trkpt>
      <trkpt lat="41.72368" lon="8.92569">
        <ele>289.97</ele>
        <time>2022-04-28T07:27:59Z</time>
      </trkpt>
      <trkpt lat="41.72365" lon="8.92582">
        <ele>292.86</ele>
        <time>2022-04-28T07:28:16Z</time>
      </trkpt>
      <trkpt lat="41.72355" lon="8.92587">
        <ele>296.22</ele>
        <time>2022-04-28T07:28:29Z</time>
      </trkpt>
      <trkpt lat="41.72355" lon="8.92588">
        <ele>296.22</ele>
        <time>2022-04-28T07:28:30Z</time>
      </trkpt>
      <trkpt lat="41.72346" lon="8.92599">
        <ele>299.11</ele>
        <time>2022-04-28T07:28:49Z</time>
      </trkpt>
      <trkpt lat="41.72334" lon="8.92609">
        <ele>301.51</ele>
        <time>2022-04-28T07:29:06Z</time>
      </trkpt>
      <trkpt lat="41.72319" lon="8.9262">
        <ele>303.43</ele>
        <time>2022-04-28T07:29:25Z</time>
      </trkpt>
      <trkpt lat="41.72298" lon="8.92625">
        <ele>304.39</ele>
        <time>2022-04-28T07:29:46Z</time>
      </trkpt>
      <trkpt lat="41.72288" lon="8.92645">
        <ele>305.36</ele>
        <time>2022-04-28T07:30:08Z</time>
      </trkpt>
      <trkpt lat="41.72277" lon="8.92651">
        <ele>305.84</ele>
        <time>2022-04-28T07:30:15Z</time>
      </trkpt>
      <trkpt lat="41.72259" lon="8.92666">
        <ele>306.32</ele>
        <time>2022-04-28T07:30:34Z</time>
      </trkpt>
      <trkpt lat="41.7224" lon="8.92675">
        <ele>305.36</ele>
        <time>2022-04-28T07:30:53Z</time>
      </trkpt>
      <trkpt lat="41.72217" lon="8.92686">
        <ele>305.84</ele>
        <time>2022-04-28T07:31:12Z</time>
      </trkpt>
      <trkpt lat="41.72205" lon="8.92694">
        <ele>306.32</ele>
        <time>2022-04-28T07:31:21Z</time>
      </trkpt>
      <trkpt lat="41.72187" lon="8.9271">
        <ele>307.76</ele>
        <time>2022-04-28T07:31:39Z</time>
      </trkpt>
      <trkpt lat="41.72179" lon="8.92721">
        <ele>310.64</ele>
        <time>2022-04-28T07:31:58Z</time>
      </trkpt>
      <trkpt lat="41.72179" lon="8.92732">
        <ele>313.53</ele>
        <time>2022-04-28T07:32:14Z</time>
      </trkpt>
      <trkpt lat="41.72176" lon="8.92736">
        <ele>316.89</ele>
        <time>2022-04-28T07:32:30Z</time>
      </trkpt>
      <trkpt lat="41.72177" lon="8.92747">
        <ele>320.26</ele>
        <time>2022-04-28T07:32:47Z</time>
      </trkpt>
      <trkpt lat="41.72177" lon="8.92757">
        <ele>323.14</ele>
        <time>2022-04-28T07:33:03Z</time>
      </trkpt>
      <trkpt lat="41.7218" lon="8.92766">
        <ele>326.02</ele>
        <time>2022-04-28T07:33:22Z</time>
      </trkpt>
      <trkpt lat="41.72179" lon="8.92774">
        <ele>329.39</ele>
        <time>2022-04-28T07:33:37Z</time>
      </trkpt>
      <trkpt lat="41.72176" lon="8.92781">
        <ele>332.27</ele>
        <time>2022-04-28T07:33:56Z</time>
      </trkpt>
      <trkpt lat="41.72178" lon="8.92789">
        <ele>335.64</ele>
        <time>2022-04-28T07:34:10Z</time>
      </trkpt>
      <trkpt lat="41.7218" lon="8.92797">
        <ele>339</ele>
        <time>2022-04-28T07:34:26Z</time>
      </trkpt>
      <trkpt lat="41.72192" lon="8.92806">
        <ele>340.44</ele>
        <time>2022-04-28T07:34:43Z</time>
      </trkpt>
      <trkpt lat="41.7222" lon="8.92813">
        <ele>343.33</ele>
        <time>2022-04-28T07:35:03Z</time>
      </trkpt>
      <trkpt lat="41.72234" lon="8.92817">
        <ele>346.21</ele>
        <time>2022-04-28T07:35:23Z</time>
      </trkpt>
      <trkpt lat="41.72249" lon="8.92821">
        <ele>348.13</ele>
        <time>2022-04-28T07:35:41Z</time>
      </trkpt>
      <trkpt lat="41.72266" lon="8.92825">
        <ele>350.54</ele>
        <time>2022-04-28T07:36:01Z</time>
      </trkpt>
      <trkpt lat="41.72285" lon="8.92834">
        <ele>352.94</ele>
        <time>2022-04-28T07:36:20Z</time>
      </trkpt>
      <trkpt lat="41.72302" lon="8.92839">
        <ele>355.34</ele>
        <time>2022-04-28T07:36:41Z</time>
      </trkpt>
      <trkpt lat="41.72312" lon="8.92849">
        <ele>357.75</ele>
        <time>2022-04-28T07:37:00Z</time>
      </trkpt>
      <trkpt lat="41.72324" lon="8.92838">
        <ele>360.63</ele>
        <time>2022-04-28T07:37:20Z</time>
      </trkpt>
      <trkpt lat="41.72338" lon="8.92836">
        <ele>362.07</ele>
        <time>2022-04-28T07:37:39Z</time>
      </trkpt>
      <trkpt lat="41.7235" lon="8.92842">
        <ele>364.96</ele>
        <time>2022-04-28T07:38:00Z</time>
      </trkpt>
      <trkpt lat="41.72363" lon="8.92849">
        <ele>366.88</ele>
        <time>2022-04-28T07:38:16Z</time>
      </trkpt>
      <trkpt lat="41.72377" lon="8.92863">
        <ele>369.28</ele>
        <time>2022-04-28T07:38:37Z</time>
      </trkpt>
      <trkpt lat="41.72394" lon="8.92882">
        <ele>370.73</ele>
        <time>2022-04-28T07:38:58Z</time>
      </trkpt>
      <trkpt lat="41.72416" lon="8.92897">
        <ele>368.8</ele>
        <time>2022-04-28T07:39:20Z</time>
      </trkpt>
      <trkpt lat="41.72423" lon="8.929">
        <ele>368.32</ele>
        <time>2022-04-28T07:39:27Z</time>
      </trkpt>
      <trkpt lat="41.72447" lon="8.92907">
        <ele>365.92</ele>
        <time>2022-04-28T07:39:45Z</time>
      </trkpt>
      <trkpt lat="41.72457" lon="8.92898">
        <ele>364</ele>
        <time>2022-04-28T07:39:57Z</time>
      </trkpt>
      <trkpt lat="41.7247" lon="8.92906">
        <ele>362.07</ele>
        <time>2022-04-28T07:40:10Z</time>
      </trkpt>
      <trkpt lat="41.72474" lon="8.92906">
        <ele>361.59</ele>
        <time>2022-04-28T07:40:14Z</time>
      </trkpt>
      <trkpt lat="41.72476" lon="8.92906">
        <ele>361.59</ele>
        <time>2022-04-28T07:40:15Z</time>
      </trkpt>
      <trkpt lat="41.72477" lon="8.92908">
        <ele>360.63</ele>
        <time>2022-04-28T07:40:17Z</time>
      </trkpt>
      <trkpt lat="41.72483" lon="8.92914">
        <ele>358.71</ele>
        <time>2022-04-28T07:40:26Z</time>
      </trkpt>
      <trkpt lat="41.72492" lon="8.92917">
        <ele>355.83</ele>
        <time>2022-04-28T07:40:41Z</time>
      </trkpt>
      <trkpt lat="41.72512" lon="8.92935">
        <ele>353.9</ele>
        <time>2022-04-28T07:40:54Z</time>
      </trkpt>
      <trkpt lat="41.72528" lon="8.92951">
        <ele>352.94</ele>
        <time>2022-04-28T07:41:08Z</time>
      </trkpt>
      <trkpt lat="41.72529" lon="8.92959">
        <ele>352.94</ele>
        <time>2022-04-28T07:41:21Z</time>
      </trkpt>
      <trkpt lat="41.72531" lon="8.92968">
        <ele>354.38</ele>
        <time>2022-04-28T07:41:36Z</time>
      </trkpt>
      <trkpt lat="41.72529" lon="8.92972">
        <ele>352.94</ele>
        <time>2022-04-28T07:41:53Z</time>
      </trkpt>
      <trkpt lat="41.72528" lon="8.92973">
        <ele>354.86</ele>
        <time>2022-04-28T07:41:54Z</time>
      </trkpt>
      <trkpt lat="41.72523" lon="8.92979">
        <ele>358.23</ele>
        <time>2022-04-28T07:42:07Z</time>
      </trkpt>
      <trkpt lat="41.72523" lon="8.92981">
        <ele>359.19</ele>
        <time>2022-04-28T07:42:10Z</time>
      </trkpt>
      <trkpt lat="41.7252" lon="8.92992">
        <ele>362.55</ele>
        <time>2022-04-28T07:42:26Z</time>
      </trkpt>
      <trkpt lat="41.72515" lon="8.93">
        <ele>365.92</ele>
        <time>2022-04-28T07:42:43Z</time>
      </trkpt>
      <trkpt lat="41.72504" lon="8.93007">
        <ele>368.8</ele>
        <time>2022-04-28T07:43:02Z</time>
      </trkpt>
      <trkpt lat="41.725" lon="8.93011">
        <ele>370.73</ele>
        <time>2022-04-28T07:43:10Z</time>
      </trkpt>
      <trkpt lat="41.72495" lon="8.93017">
        <ele>374.09</ele>
        <time>2022-04-28T07:43:28Z</time>
      </trkpt>
      <trkpt lat="41.72489" lon="8.93025">
        <ele>376.97</ele>
        <time>2022-04-28T07:43:46Z</time>
      </trkpt>
      <trkpt lat="41.72484" lon="8.93031">
        <ele>380.34</ele>
        <time>2022-04-28T07:44:02Z</time>
      </trkpt>
      <trkpt lat="41.72478" lon="8.93039">
        <ele>383.7</ele>
        <time>2022-04-28T07:44:19Z</time>
      </trkpt>
      <trkpt lat="41.72475" lon="8.9305">
        <ele>386.59</ele>
        <time>2022-04-28T07:44:40Z</time>
      </trkpt>
      <trkpt lat="41.72468" lon="8.93064">
        <ele>388.99</ele>
        <time>2022-04-28T07:44:55Z</time>
      </trkpt>
      <trkpt lat="41.72465" lon="8.93075">
        <ele>391.87</ele>
        <time>2022-04-28T07:45:10Z</time>
      </trkpt>
      <trkpt lat="41.72459" lon="8.93082">
        <ele>394.28</ele>
        <time>2022-04-28T07:45:28Z</time>
      </trkpt>
      <trkpt lat="41.72455" lon="8.93092">
        <ele>397.64</ele>
        <time>2022-04-28T07:45:43Z</time>
      </trkpt>
      <trkpt lat="41.72448" lon="8.93104">
        <ele>400.53</ele>
        <time>2022-04-28T07:46:01Z</time>
      </trkpt>
      <trkpt lat="41.72438" lon="8.93114">
        <ele>402.93</ele>
        <time>2022-04-28T07:46:22Z</time>
      </trkpt>
      <trkpt lat="41.72428" lon="8.93112">
        <ele>404.37</ele>
        <time>2022-04-28T07:46:43Z</time>
      </trkpt>
      <trkpt lat="41.72421" lon="8.93109">
        <ele>407.26</ele>
        <time>2022-04-28T07:47:03Z</time>
      </trkpt>
      <trkpt lat="41.72405" lon="8.931">
        <ele>410.14</ele>
        <time>2022-04-28T07:47:25Z</time>
      </trkpt>
      <trkpt lat="41.72396" lon="8.93101">
        <ele>413.02</ele>
        <time>2022-04-28T07:47:45Z</time>
      </trkpt>
      <trkpt lat="41.72383" lon="8.931">
        <ele>415.91</ele>
        <time>2022-04-28T07:48:01Z</time>
      </trkpt>
      <trkpt lat="41.72368" lon="8.93104">
        <ele>419.27</ele>
        <time>2022-04-28T07:48:18Z</time>
      </trkpt>
      <trkpt lat="41.72363" lon="8.93112">
        <ele>422.16</ele>
        <time>2022-04-28T07:48:38Z</time>
      </trkpt>
      <trkpt lat="41.72355" lon="8.93122">
        <ele>425.52</ele>
        <time>2022-04-28T07:48:53Z</time>
      </trkpt>
      <trkpt lat="41.72348" lon="8.93133">
        <ele>427.92</ele>
        <time>2022-04-28T07:49:12Z</time>
      </trkpt>
      <trkpt lat="41.72342" lon="8.93152">
        <ele>430.33</ele>
        <time>2022-04-28T07:49:29Z</time>
      </trkpt>
      <trkpt lat="41.72339" lon="8.93157">
        <ele>432.25</ele>
        <time>2022-04-28T07:49:33Z</time>
      </trkpt>
      <trkpt lat="41.72336" lon="8.9316">
        <ele>430.33</ele>
        <time>2022-04-28T07:49:36Z</time>
      </trkpt>
      <trkpt lat="41.72331" lon="8.93182">
        <ele>430.81</ele>
        <time>2022-04-28T07:49:52Z</time>
      </trkpt>
      <trkpt lat="41.7233" lon="8.932">
        <ele>427.92</ele>
        <time>2022-04-28T07:50:10Z</time>
      </trkpt>
      <trkpt lat="41.72335" lon="8.93225">
        <ele>429.37</ele>
        <time>2022-04-28T07:50:27Z</time>
      </trkpt>
      <trkpt lat="41.72336" lon="8.93257">
        <ele>430.81</ele>
        <time>2022-04-28T07:50:45Z</time>
      </trkpt>
      <trkpt lat="41.72325" lon="8.93279">
        <ele>430.81</ele>
        <time>2022-04-28T07:51:03Z</time>
      </trkpt>
      <trkpt lat="41.7231" lon="8.93293">
        <ele>431.29</ele>
        <time>2022-04-28T07:51:21Z</time>
      </trkpt>
      <trkpt lat="41.72297" lon="8.93319">
        <ele>432.25</ele>
        <time>2022-04-28T07:51:41Z</time>
      </trkpt>
      <trkpt lat="41.72293" lon="8.93344">
        <ele>434.17</ele>
        <time>2022-04-28T07:52:03Z</time>
      </trkpt>
      <trkpt lat="41.72293" lon="8.93384">
        <ele>435.61</ele>
        <time>2022-04-28T07:52:23Z</time>
      </trkpt>
      <trkpt lat="41.72293" lon="8.93405">
        <ele>438.5</ele>
        <time>2022-04-28T07:52:42Z</time>
      </trkpt>
      <trkpt lat="41.72289" lon="8.93428">
        <ele>440.9</ele>
        <time>2022-04-28T07:53:01Z</time>
      </trkpt>
      <trkpt lat="41.72288" lon="8.93438">
        <ele>444.27</ele>
        <time>2022-04-28T07:53:16Z</time>
      </trkpt>
      <trkpt lat="41.72282" lon="8.93452">
        <ele>446.67</ele>
        <time>2022-04-28T07:53:34Z</time>
      </trkpt>
      <trkpt lat="41.72279" lon="8.93467">
        <ele>450.03</ele>
        <time>2022-04-28T07:53:53Z</time>
      </trkpt>
      <trkpt lat="41.72274" lon="8.9348">
        <ele>451.96</ele>
        <time>2022-04-28T07:54:11Z</time>
      </trkpt>
      <trkpt lat="41.72271" lon="8.93495">
        <ele>453.88</ele>
        <time>2022-04-28T07:54:26Z</time>
      </trkpt>
      <trkpt lat="41.72268" lon="8.93508">
        <ele>457.24</ele>
        <time>2022-04-28T07:54:41Z</time>
      </trkpt>
      <trkpt lat="41.72263" lon="8.93528">
        <ele>458.21</ele>
        <time>2022-04-28T07:55:01Z</time>
      </trkpt>
      <trkpt lat="41.72253" lon="8.93542">
        <ele>459.65</ele>
        <time>2022-04-28T07:55:18Z</time>
      </trkpt>
      <trkpt lat="41.72249" lon="8.93554">
        <ele>462.53</ele>
        <time>2022-04-28T07:55:33Z</time>
      </trkpt>
      <trkpt lat="41.72246" lon="8.93564">
        <ele>465.9</ele>
        <time>2022-04-28T07:55:49Z</time>
      </trkpt>
      <trkpt lat="41.72239" lon="8.93579">
        <ele>468.78</ele>
        <time>2022-04-28T07:56:09Z</time>
      </trkpt>
      <trkpt lat="41.72233" lon="8.93584">
        <ele>470.7</ele>
        <time>2022-04-28T07:56:24Z</time>
      </trkpt>
      <trkpt lat="41.72232" lon="8.93588">
        <ele>472.63</ele>
        <time>2022-04-28T07:56:39Z</time>
      </trkpt>
      <trkpt lat="41.72232" lon="8.93593">
        <ele>473.11</ele>
        <time>2022-04-28T07:56:57Z</time>
      </trkpt>
      <trkpt lat="41.72223" lon="8.93588">
        <ele>473.11</ele>
        <time>2022-04-28T07:57:23Z</time>
      </trkpt>
      <trkpt lat="41.72222" lon="8.93588">
        <ele>473.11</ele>
        <time>2022-04-28T07:57:56Z</time>
      </trkpt>
      <trkpt lat="41.72228" lon="8.93586">
        <ele>473.59</ele>
        <time>2022-04-28T07:58:16Z</time>
      </trkpt>
      <trkpt lat="41.72231" lon="8.93592">
        <ele>475.99</ele>
        <time>2022-04-28T07:58:36Z</time>
      </trkpt>
      <trkpt lat="41.72227" lon="8.93601">
        <ele>479.35</ele>
        <time>2022-04-28T07:58:54Z</time>
      </trkpt>
      <trkpt lat="41.7222" lon="8.93606">
        <ele>481.76</ele>
        <time>2022-04-28T07:59:09Z</time>
      </trkpt>
      <trkpt lat="41.72218" lon="8.93617">
        <ele>483.68</ele>
        <time>2022-04-28T07:59:25Z</time>
      </trkpt>
      <trkpt lat="41.72217" lon="8.93622">
        <ele>487.05</ele>
        <time>2022-04-28T07:59:39Z</time>
      </trkpt>
      <trkpt lat="41.72215" lon="8.93621">
        <ele>487.05</ele>
        <time>2022-04-28T07:59:59Z</time>
      </trkpt>
      <trkpt lat="41.72212" lon="8.93633">
        <ele>490.41</ele>
        <time>2022-04-28T08:00:23Z</time>
      </trkpt>
      <trkpt lat="41.72209" lon="8.93642">
        <ele>493.29</ele>
        <time>2022-04-28T08:00:38Z</time>
      </trkpt>
      <trkpt lat="41.72206" lon="8.93649">
        <ele>496.66</ele>
        <time>2022-04-28T08:00:52Z</time>
      </trkpt>
      <trkpt lat="41.72211" lon="8.93655">
        <ele>498.58</ele>
        <time>2022-04-28T08:01:05Z</time>
      </trkpt>
      <trkpt lat="41.72209" lon="8.93664">
        <ele>501.95</ele>
        <time>2022-04-28T08:01:19Z</time>
      </trkpt>
      <trkpt lat="41.72203" lon="8.93671">
        <ele>505.31</ele>
        <time>2022-04-28T08:01:35Z</time>
      </trkpt>
      <trkpt lat="41.722" lon="8.93678">
        <ele>508.19</ele>
        <time>2022-04-28T08:01:54Z</time>
      </trkpt>
      <trkpt lat="41.72192" lon="8.93682">
        <ele>511.08</ele>
        <time>2022-04-28T08:02:13Z</time>
      </trkpt>
      <trkpt lat="41.72182" lon="8.9369">
        <ele>513</ele>
        <time>2022-04-28T08:02:31Z</time>
      </trkpt>
      <trkpt lat="41.72187" lon="8.93694">
        <ele>515.4</ele>
        <time>2022-04-28T08:02:48Z</time>
      </trkpt>
      <trkpt lat="41.72185" lon="8.93703">
        <ele>516.37</ele>
        <time>2022-04-28T08:03:17Z</time>
      </trkpt>
      <trkpt lat="41.72188" lon="8.93705">
        <ele>519.25</ele>
        <time>2022-04-28T08:03:38Z</time>
      </trkpt>
      <trkpt lat="41.72189" lon="8.93714">
        <ele>522.61</ele>
        <time>2022-04-28T08:03:53Z</time>
      </trkpt>
      <trkpt lat="41.72187" lon="8.9372">
        <ele>525.5</ele>
        <time>2022-04-28T08:04:10Z</time>
      </trkpt>
      <trkpt lat="41.72184" lon="8.93719">
        <ele>526.46</ele>
        <time>2022-04-28T08:04:28Z</time>
      </trkpt>
      <trkpt lat="41.7218" lon="8.93716">
        <ele>526.94</ele>
        <time>2022-04-28T08:04:53Z</time>
      </trkpt>
      <trkpt lat="41.7218" lon="8.93719">
        <ele>527.42</ele>
        <time>2022-04-28T08:05:15Z</time>
      </trkpt>
      <trkpt lat="41.72176" lon="8.93713">
        <ele>528.38</ele>
        <time>2022-04-28T08:05:43Z</time>
      </trkpt>
      <trkpt lat="41.72175" lon="8.93719">
        <ele>531.27</ele>
        <time>2022-04-28T08:05:56Z</time>
      </trkpt>
      <trkpt lat="41.72168" lon="8.93719">
        <ele>534.15</ele>
        <time>2022-04-28T08:06:10Z</time>
      </trkpt>
      <trkpt lat="41.72166" lon="8.93726">
        <ele>535.59</ele>
        <time>2022-04-28T08:06:26Z</time>
      </trkpt>
      <trkpt lat="41.72165" lon="8.93732">
        <ele>538.96</ele>
        <time>2022-04-28T08:06:39Z</time>
      </trkpt>
      <trkpt lat="41.72163" lon="8.93738">
        <ele>540.4</ele>
        <time>2022-04-28T08:06:51Z</time>
      </trkpt>
      <trkpt lat="41.72154" lon="8.93742">
        <ele>539.44</ele>
        <time>2022-04-28T08:07:08Z</time>
      </trkpt>
      <trkpt lat="41.72147" lon="8.93745">
        <ele>538.48</ele>
        <time>2022-04-28T08:07:25Z</time>
      </trkpt>
      <trkpt lat="41.72153" lon="8.93745">
        <ele>539.92</ele>
        <time>2022-04-28T08:07:42Z</time>
      </trkpt>
      <trkpt lat="41.72155" lon="8.9374">
        <ele>540.4</ele>
        <time>2022-04-28T08:07:59Z</time>
      </trkpt>
      <trkpt lat="41.72155" lon="8.93739">
        <ele>540.4</ele>
        <time>2022-04-28T08:08:20Z</time>
      </trkpt>
      <trkpt lat="41.72155" lon="8.93737">
        <ele>540.88</ele>
        <time>2022-04-28T08:08:36Z</time>
      </trkpt>
      <trkpt lat="41.72157" lon="8.93736">
        <ele>541.36</ele>
        <time>2022-04-28T08:08:54Z</time>
      </trkpt>
      <trkpt lat="41.72157" lon="8.93737">
        <ele>541.36</ele>
        <time>2022-04-28T08:09:24Z</time>
      </trkpt>
      <trkpt lat="41.72151" lon="8.9374">
        <ele>539.92</ele>
        <time>2022-04-28T08:09:46Z</time>
      </trkpt>
      <trkpt lat="41.72142" lon="8.93743">
        <ele>538.96</ele>
        <time>2022-04-28T08:09:58Z</time>
      </trkpt>
      <trkpt lat="41.72129" lon="8.93744">
        <ele>537.03</ele>
        <time>2022-04-28T08:10:12Z</time>
      </trkpt>
      <trkpt lat="41.72122" lon="8.93752">
        <ele>537.03</ele>
        <time>2022-04-28T08:10:24Z</time>
      </trkpt>
      <trkpt lat="41.72112" lon="8.93762">
        <ele>537.51</ele>
        <time>2022-04-28T08:10:41Z</time>
      </trkpt>
      <trkpt lat="41.72109" lon="8.93771">
        <ele>540.88</ele>
        <time>2022-04-28T08:10:54Z</time>
      </trkpt>
      <trkpt lat="41.72099" lon="8.93775">
        <ele>543.76</ele>
        <time>2022-04-28T08:11:12Z</time>
      </trkpt>
      <trkpt lat="41.72087" lon="8.93775">
        <ele>547.13</ele>
        <time>2022-04-28T08:11:31Z</time>
      </trkpt>
      <trkpt lat="41.72081" lon="8.93776">
        <ele>548.57</ele>
        <time>2022-04-28T08:11:49Z</time>
      </trkpt>
      <trkpt lat="41.72082" lon="8.93778">
        <ele>548.57</ele>
        <time>2022-04-28T08:12:14Z</time>
      </trkpt>
      <trkpt lat="41.72084" lon="8.93776">
        <ele>549.05</ele>
        <time>2022-04-28T08:12:46Z</time>
      </trkpt>
      <trkpt lat="41.72084" lon="8.93777">
        <ele>549.05</ele>
        <time>2022-04-28T08:13:13Z</time>
      </trkpt>
      <trkpt lat="41.72086" lon="8.93779">
        <ele>549.53</ele>
        <time>2022-04-28T08:13:38Z</time>
      </trkpt>
      <trkpt lat="41.72089" lon="8.93779">
        <ele>549.53</ele>
        <time>2022-04-28T08:14:07Z</time>
      </trkpt>
      <trkpt lat="41.72078" lon="8.93777">
        <ele>550.49</ele>
        <time>2022-04-28T08:14:30Z</time>
      </trkpt>
      <trkpt lat="41.72077" lon="8.93787">
        <ele>553.86</ele>
        <time>2022-04-28T08:14:44Z</time>
      </trkpt>
      <trkpt lat="41.72079" lon="8.93794">
        <ele>556.26</ele>
        <time>2022-04-28T08:14:59Z</time>
      </trkpt>
      <trkpt lat="41.72077" lon="8.93799">
        <ele>558.66</ele>
        <time>2022-04-28T08:15:13Z</time>
      </trkpt>
      <trkpt lat="41.72077" lon="8.93806">
        <ele>562.03</ele>
        <time>2022-04-28T08:15:28Z</time>
      </trkpt>
      <trkpt lat="41.72076" lon="8.93814">
        <ele>564.91</ele>
        <time>2022-04-28T08:15:44Z</time>
      </trkpt>
      <trkpt lat="41.72079" lon="8.93822">
        <ele>567.8</ele>
        <time>2022-04-28T08:16:00Z</time>
      </trkpt>
      <trkpt lat="41.72073" lon="8.93823">
        <ele>569.72</ele>
        <time>2022-04-28T08:16:13Z</time>
      </trkpt>
      <trkpt lat="41.7207" lon="8.9383">
        <ele>572.12</ele>
        <time>2022-04-28T08:16:26Z</time>
      </trkpt>
      <trkpt lat="41.72068" lon="8.9384">
        <ele>574.04</ele>
        <time>2022-04-28T08:16:38Z</time>
      </trkpt>
      <trkpt lat="41.72065" lon="8.93851">
        <ele>577.41</ele>
        <time>2022-04-28T08:16:55Z</time>
      </trkpt>
      <trkpt lat="41.72064" lon="8.93865">
        <ele>578.85</ele>
        <time>2022-04-28T08:17:14Z</time>
      </trkpt>
      <trkpt lat="41.72066" lon="8.93873">
        <ele>581.73</ele>
        <time>2022-04-28T08:17:27Z</time>
      </trkpt>
      <trkpt lat="41.72075" lon="8.93881">
        <ele>584.62</ele>
        <time>2022-04-28T08:17:44Z</time>
      </trkpt>
      <trkpt lat="41.72078" lon="8.93895">
        <ele>587.5</ele>
        <time>2022-04-28T08:18:01Z</time>
      </trkpt>
      <trkpt lat="41.72077" lon="8.9391">
        <ele>590.39</ele>
        <time>2022-04-28T08:18:17Z</time>
      </trkpt>
      <trkpt lat="41.72076" lon="8.93923">
        <ele>592.79</ele>
        <time>2022-04-28T08:18:34Z</time>
      </trkpt>
      <trkpt lat="41.72078" lon="8.93933">
        <ele>594.71</ele>
        <time>2022-04-28T08:18:50Z</time>
      </trkpt>
      <trkpt lat="41.72076" lon="8.93951">
        <ele>597.12</ele>
        <time>2022-04-28T08:19:07Z</time>
      </trkpt>
      <trkpt lat="41.72072" lon="8.93971">
        <ele>597.6</ele>
        <time>2022-04-28T08:19:23Z</time>
      </trkpt>
      <trkpt lat="41.72066" lon="8.93982">
        <ele>599.04</ele>
        <time>2022-04-28T08:19:36Z</time>
      </trkpt>
      <trkpt lat="41.72061" lon="8.93996">
        <ele>600.96</ele>
        <time>2022-04-28T08:19:52Z</time>
      </trkpt>
      <trkpt lat="41.72057" lon="8.94009">
        <ele>602.88</ele>
        <time>2022-04-28T08:20:05Z</time>
      </trkpt>
      <trkpt lat="41.72056" lon="8.94023">
        <ele>604.33</ele>
        <time>2022-04-28T08:20:20Z</time>
      </trkpt>
      <trkpt lat="41.72051" lon="8.94042">
        <ele>605.77</ele>
        <time>2022-04-28T08:20:36Z</time>
      </trkpt>
      <trkpt lat="41.72048" lon="8.94061">
        <ele>607.69</ele>
        <time>2022-04-28T08:20:52Z</time>
      </trkpt>
      <trkpt lat="41.72044" lon="8.94081">
        <ele>609.13</ele>
        <time>2022-04-28T08:21:08Z</time>
      </trkpt>
      <trkpt lat="41.72045" lon="8.94099">
        <ele>610.09</ele>
        <time>2022-04-28T08:21:22Z</time>
      </trkpt>
      <trkpt lat="41.7205" lon="8.94111">
        <ele>612.98</ele>
        <time>2022-04-28T08:21:35Z</time>
      </trkpt>
      <trkpt lat="41.72056" lon="8.94125">
        <ele>614.9</ele>
        <time>2022-04-28T08:21:49Z</time>
      </trkpt>
      <trkpt lat="41.72054" lon="8.9414">
        <ele>616.82</ele>
        <time>2022-04-28T08:22:04Z</time>
      </trkpt>
      <trkpt lat="41.72057" lon="8.94152">
        <ele>618.75</ele>
        <time>2022-04-28T08:22:16Z</time>
      </trkpt>
      <trkpt lat="41.72063" lon="8.94166">
        <ele>620.19</ele>
        <time>2022-04-28T08:22:31Z</time>
      </trkpt>
      <trkpt lat="41.7207" lon="8.94187">
        <ele>622.11</ele>
        <time>2022-04-28T08:22:50Z</time>
      </trkpt>
      <trkpt lat="41.72075" lon="8.94193">
        <ele>622.59</ele>
        <time>2022-04-28T08:22:56Z</time>
      </trkpt>
      <trkpt lat="41.72085" lon="8.94212">
        <ele>622.59</ele>
        <time>2022-04-28T08:23:13Z</time>
      </trkpt>
      <trkpt lat="41.721" lon="8.94235">
        <ele>624.99</ele>
        <time>2022-04-28T08:23:30Z</time>
      </trkpt>
      <trkpt lat="41.7211" lon="8.9425">
        <ele>626.92</ele>
        <time>2022-04-28T08:23:47Z</time>
      </trkpt>
      <trkpt lat="41.72115" lon="8.94266">
        <ele>628.36</ele>
        <time>2022-04-28T08:24:02Z</time>
      </trkpt>
      <trkpt lat="41.72118" lon="8.9429">
        <ele>630.76</ele>
        <time>2022-04-28T08:24:19Z</time>
      </trkpt>
      <trkpt lat="41.72128" lon="8.94316">
        <ele>631.72</ele>
        <time>2022-04-28T08:24:38Z</time>
      </trkpt>
      <trkpt lat="41.72133" lon="8.94343">
        <ele>633.17</ele>
        <time>2022-04-28T08:24:57Z</time>
      </trkpt>
      <trkpt lat="41.72136" lon="8.94369">
        <ele>633.65</ele>
        <time>2022-04-28T08:25:14Z</time>
      </trkpt>
      <trkpt lat="41.72138" lon="8.94391">
        <ele>634.13</ele>
        <time>2022-04-28T08:25:29Z</time>
      </trkpt>
      <trkpt lat="41.72143" lon="8.94418">
        <ele>634.13</ele>
        <time>2022-04-28T08:25:46Z</time>
      </trkpt>
      <trkpt lat="41.72146" lon="8.9444">
        <ele>632.2</ele>
        <time>2022-04-28T08:26:04Z</time>
      </trkpt>
      <trkpt lat="41.72147" lon="8.94451">
        <ele>631.72</ele>
        <time>2022-04-28T08:26:18Z</time>
      </trkpt>
      <trkpt lat="41.72149" lon="8.94461">
        <ele>631.24</ele>
        <time>2022-04-28T08:26:33Z</time>
      </trkpt>
      <trkpt lat="41.72148" lon="8.9446">
        <ele>630.76</ele>
        <time>2022-04-28T08:26:53Z</time>
      </trkpt>
      <trkpt lat="41.72152" lon="8.94473">
        <ele>629.8</ele>
        <time>2022-04-28T08:27:08Z</time>
      </trkpt>
      <trkpt lat="41.72157" lon="8.94497">
        <ele>628.36</ele>
        <time>2022-04-28T08:27:21Z</time>
      </trkpt>
      <trkpt lat="41.72172" lon="8.94516">
        <ele>625.96</ele>
        <time>2022-04-28T08:27:36Z</time>
      </trkpt>
      <trkpt lat="41.72181" lon="8.94524">
        <ele>624.51</ele>
        <time>2022-04-28T08:27:51Z</time>
      </trkpt>
      <trkpt lat="41.72185" lon="8.94548">
        <ele>624.03</ele>
        <time>2022-04-28T08:28:06Z</time>
      </trkpt>
      <trkpt lat="41.72189" lon="8.94571">
        <ele>624.51</ele>
        <time>2022-04-28T08:28:20Z</time>
      </trkpt>
      <trkpt lat="41.72191" lon="8.94596">
        <ele>623.07</ele>
        <time>2022-04-28T08:28:36Z</time>
      </trkpt>
      <trkpt lat="41.72194" lon="8.94609">
        <ele>622.11</ele>
        <time>2022-04-28T08:28:44Z</time>
      </trkpt>
      <trkpt lat="41.72193" lon="8.94637">
        <ele>619.23</ele>
        <time>2022-04-28T08:29:00Z</time>
      </trkpt>
      <trkpt lat="41.72193" lon="8.9466">
        <ele>617.3</ele>
        <time>2022-04-28T08:29:13Z</time>
      </trkpt>
      <trkpt lat="41.72198" lon="8.94679">
        <ele>615.38</ele>
        <time>2022-04-28T08:29:25Z</time>
      </trkpt>
      <trkpt lat="41.72203" lon="8.94703">
        <ele>614.42</ele>
        <time>2022-04-28T08:29:39Z</time>
      </trkpt>
      <trkpt lat="41.72207" lon="8.94726">
        <ele>612.02</ele>
        <time>2022-04-28T08:29:52Z</time>
      </trkpt>
      <trkpt lat="41.72216" lon="8.94737">
        <ele>611.54</ele>
        <time>2022-04-28T08:30:08Z</time>
      </trkpt>
      <trkpt lat="41.72221" lon="8.94749">
        <ele>610.09</ele>
        <time>2022-04-28T08:30:27Z</time>
      </trkpt>
      <trkpt lat="41.72235" lon="8.94769">
        <ele>608.65</ele>
        <time>2022-04-28T08:30:43Z</time>
      </trkpt>
      <trkpt lat="41.72248" lon="8.94793">
        <ele>606.73</ele>
        <time>2022-04-28T08:31:00Z</time>
      </trkpt>
      <trkpt lat="41.72254" lon="8.94813">
        <ele>606.25</ele>
        <time>2022-04-28T08:31:14Z</time>
      </trkpt>
      <trkpt lat="41.72254" lon="8.94821">
        <ele>604.81</ele>
        <time>2022-04-28T08:31:18Z</time>
      </trkpt>
      <trkpt lat="41.7226" lon="8.94839">
        <ele>604.81</ele>
        <time>2022-04-28T08:31:30Z</time>
      </trkpt>
      <trkpt lat="41.72261" lon="8.94849">
        <ele>603.36</ele>
        <time>2022-04-28T08:31:36Z</time>
      </trkpt>
      <trkpt lat="41.72264" lon="8.94859">
        <ele>601.44</ele>
        <time>2022-04-28T08:31:42Z</time>
      </trkpt>
      <trkpt lat="41.7227" lon="8.94868">
        <ele>600</ele>
        <time>2022-04-28T08:31:54Z</time>
      </trkpt>
      <trkpt lat="41.72272" lon="8.94876">
        <ele>599.04</ele>
        <time>2022-04-28T08:32:15Z</time>
      </trkpt>
      <trkpt lat="41.72277" lon="8.94887">
        <ele>597.6</ele>
        <time>2022-04-28T08:32:25Z</time>
      </trkpt>
      <trkpt lat="41.72283" lon="8.949">
        <ele>595.19</ele>
        <time>2022-04-28T08:32:35Z</time>
      </trkpt>
      <trkpt lat="41.72294" lon="8.94915">
        <ele>593.27</ele>
        <time>2022-04-28T08:32:50Z</time>
      </trkpt>
      <trkpt lat="41.72303" lon="8.9492">
        <ele>592.31</ele>
        <time>2022-04-28T08:33:05Z</time>
      </trkpt>
      <trkpt lat="41.72314" lon="8.94928">
        <ele>589.43</ele>
        <time>2022-04-28T08:33:16Z</time>
      </trkpt>
      <trkpt lat="41.72327" lon="8.94937">
        <ele>587.5</ele>
        <time>2022-04-28T08:33:31Z</time>
      </trkpt>
      <trkpt lat="41.72334" lon="8.94948">
        <ele>584.14</ele>
        <time>2022-04-28T08:33:46Z</time>
      </trkpt>
      <trkpt lat="41.72348" lon="8.94952">
        <ele>581.25</ele>
        <time>2022-04-28T08:34:00Z</time>
      </trkpt>
      <trkpt lat="41.72364" lon="8.94957">
        <ele>577.89</ele>
        <time>2022-04-28T08:34:14Z</time>
      </trkpt>
      <trkpt lat="41.72385" lon="8.94957">
        <ele>577.41</ele>
        <time>2022-04-28T08:34:34Z</time>
      </trkpt>
      <trkpt lat="41.72405" lon="8.94958">
        <ele>575.97</ele>
        <time>2022-04-28T08:34:51Z</time>
      </trkpt>
      <trkpt lat="41.72427" lon="8.94969">
        <ele>574.04</ele>
        <time>2022-04-28T08:35:09Z</time>
      </trkpt>
      <trkpt lat="41.72442" lon="8.94982">
        <ele>573.08</ele>
        <time>2022-04-28T08:35:23Z</time>
      </trkpt>
      <trkpt lat="41.72454" lon="8.94985">
        <ele>571.64</ele>
        <time>2022-04-28T08:35:31Z</time>
      </trkpt>
      <trkpt lat="41.7246" lon="8.94989">
        <ele>569.72</ele>
        <time>2022-04-28T08:35:36Z</time>
      </trkpt>
      <trkpt lat="41.72472" lon="8.94989">
        <ele>567.32</ele>
        <time>2022-04-28T08:35:45Z</time>
      </trkpt>
      <trkpt lat="41.72498" lon="8.94986">
        <ele>564.91</ele>
        <time>2022-04-28T08:36:07Z</time>
      </trkpt>
      <trkpt lat="41.72512" lon="8.95">
        <ele>563.47</ele>
        <time>2022-04-28T08:36:24Z</time>
      </trkpt>
      <trkpt lat="41.72519" lon="8.95009">
        <ele>562.03</ele>
        <time>2022-04-28T08:36:40Z</time>
      </trkpt>
      <trkpt lat="41.72524" lon="8.95019">
        <ele>558.66</ele>
        <time>2022-04-28T08:36:58Z</time>
      </trkpt>
      <trkpt lat="41.7253" lon="8.95028">
        <ele>555.78</ele>
        <time>2022-04-28T08:37:12Z</time>
      </trkpt>
      <trkpt lat="41.72539" lon="8.95035">
        <ele>552.41</ele>
        <time>2022-04-28T08:37:25Z</time>
      </trkpt>
      <trkpt lat="41.72546" lon="8.95041">
        <ele>549.53</ele>
        <time>2022-04-28T08:37:35Z</time>
      </trkpt>
      <trkpt lat="41.72561" lon="8.95053">
        <ele>548.57</ele>
        <time>2022-04-28T08:37:52Z</time>
      </trkpt>
      <trkpt lat="41.72562" lon="8.95058">
        <ele>548.09</ele>
        <time>2022-04-28T08:37:56Z</time>
      </trkpt>
      <trkpt lat="41.72571" lon="8.95079">
        <ele>545.2</ele>
        <time>2022-04-28T08:38:12Z</time>
      </trkpt>
      <trkpt lat="41.72581" lon="8.95099">
        <ele>544.24</ele>
        <time>2022-04-28T08:38:27Z</time>
      </trkpt>
      <trkpt lat="41.72592" lon="8.9511">
        <ele>545.69</ele>
        <time>2022-04-28T08:38:41Z</time>
      </trkpt>
      <trkpt lat="41.72606" lon="8.95119">
        <ele>549.05</ele>
        <time>2022-04-28T08:38:57Z</time>
      </trkpt>
      <trkpt lat="41.72622" lon="8.95131">
        <ele>549.53</ele>
        <time>2022-04-28T08:39:13Z</time>
      </trkpt>
      <trkpt lat="41.72637" lon="8.95148">
        <ele>550.97</ele>
        <time>2022-04-28T08:39:30Z</time>
      </trkpt>
      <trkpt lat="41.72644" lon="8.95169">
        <ele>548.57</ele>
        <time>2022-04-28T08:39:46Z</time>
      </trkpt>
      <trkpt lat="41.72649" lon="8.95188">
        <ele>549.53</ele>
        <time>2022-04-28T08:40:01Z</time>
      </trkpt>
      <trkpt lat="41.72659" lon="8.95211">
        <ele>549.53</ele>
        <time>2022-04-28T08:40:18Z</time>
      </trkpt>
      <trkpt lat="41.72671" lon="8.95239">
        <ele>550.49</ele>
        <time>2022-04-28T08:40:37Z</time>
      </trkpt>
      <trkpt lat="41.72681" lon="8.95261">
        <ele>552.9</ele>
        <time>2022-04-28T08:40:53Z</time>
      </trkpt>
      <trkpt lat="41.72683" lon="8.9528">
        <ele>555.78</ele>
        <time>2022-04-28T08:41:10Z</time>
      </trkpt>
      <trkpt lat="41.72691" lon="8.95289">
        <ele>558.66</ele>
        <time>2022-04-28T08:41:26Z</time>
      </trkpt>
      <trkpt lat="41.72699" lon="8.95299">
        <ele>561.07</ele>
        <time>2022-04-28T08:41:40Z</time>
      </trkpt>
      <trkpt lat="41.72711" lon="8.95307">
        <ele>564.43</ele>
        <time>2022-04-28T08:41:57Z</time>
      </trkpt>
      <trkpt lat="41.72727" lon="8.9531">
        <ele>566.35</ele>
        <time>2022-04-28T08:42:13Z</time>
      </trkpt>
      <trkpt lat="41.7274" lon="8.95312">
        <ele>567.32</ele>
        <time>2022-04-28T08:42:28Z</time>
      </trkpt>
      <trkpt lat="41.72756" lon="8.95309">
        <ele>569.72</ele>
        <time>2022-04-28T08:42:45Z</time>
      </trkpt>
      <trkpt lat="41.72774" lon="8.95317">
        <ele>569.72</ele>
        <time>2022-04-28T08:43:02Z</time>
      </trkpt>
      <trkpt lat="41.72792" lon="8.95335">
        <ele>572.12</ele>
        <time>2022-04-28T08:43:21Z</time>
      </trkpt>
      <trkpt lat="41.72803" lon="8.95346">
        <ele>575.49</ele>
        <time>2022-04-28T08:43:37Z</time>
      </trkpt>
      <trkpt lat="41.72811" lon="8.95354">
        <ele>575.97</ele>
        <time>2022-04-28T08:43:51Z</time>
      </trkpt>
      <trkpt lat="41.72813" lon="8.95352">
        <ele>575.97</ele>
        <time>2022-04-28T08:44:14Z</time>
      </trkpt>
      <trkpt lat="41.72829" lon="8.95357">
        <ele>575.97</ele>
        <time>2022-04-28T08:44:31Z</time>
      </trkpt>
      <trkpt lat="41.72851" lon="8.95344">
        <ele>574.04</ele>
        <time>2022-04-28T08:44:50Z</time>
      </trkpt>
      <trkpt lat="41.72872" lon="8.95344">
        <ele>573.56</ele>
        <time>2022-04-28T08:45:08Z</time>
      </trkpt>
      <trkpt lat="41.72889" lon="8.95338">
        <ele>570.2</ele>
        <time>2022-04-28T08:45:23Z</time>
      </trkpt>
      <trkpt lat="41.72891" lon="8.95337">
        <ele>570.2</ele>
        <time>2022-04-28T08:45:24Z</time>
      </trkpt>
      <trkpt lat="41.72898" lon="8.95338">
        <ele>567.8</ele>
        <time>2022-04-28T08:45:29Z</time>
      </trkpt>
      <trkpt lat="41.72921" lon="8.95347">
        <ele>564.91</ele>
        <time>2022-04-28T08:45:46Z</time>
      </trkpt>
      <trkpt lat="41.72934" lon="8.95351">
        <ele>561.55</ele>
        <time>2022-04-28T08:45:57Z</time>
      </trkpt>
      <trkpt lat="41.72949" lon="8.95371">
        <ele>562.51</ele>
        <time>2022-04-28T08:46:15Z</time>
      </trkpt>
      <trkpt lat="41.72961" lon="8.95397">
        <ele>560.11</ele>
        <time>2022-04-28T08:46:34Z</time>
      </trkpt>
      <trkpt lat="41.72971" lon="8.9542">
        <ele>558.66</ele>
        <time>2022-04-28T08:46:53Z</time>
      </trkpt>
      <trkpt lat="41.72976" lon="8.95427">
        <ele>561.55</ele>
        <time>2022-04-28T08:47:05Z</time>
      </trkpt>
      <trkpt lat="41.72977" lon="8.95442">
        <ele>564.91</ele>
        <time>2022-04-28T08:47:23Z</time>
      </trkpt>
      <trkpt lat="41.72966" lon="8.95454">
        <ele>567.32</ele>
        <time>2022-04-28T08:47:43Z</time>
      </trkpt>
      <trkpt lat="41.72976" lon="8.95459">
        <ele>570.2</ele>
        <time>2022-04-28T08:47:56Z</time>
      </trkpt>
      <trkpt lat="41.72986" lon="8.95461">
        <ele>573.56</ele>
        <time>2022-04-28T08:48:14Z</time>
      </trkpt>
      <trkpt lat="41.72987" lon="8.95483">
        <ele>576.93</ele>
        <time>2022-04-28T08:48:34Z</time>
      </trkpt>
      <trkpt lat="41.72994" lon="8.95502">
        <ele>580.29</ele>
        <time>2022-04-28T08:48:53Z</time>
      </trkpt>
      <trkpt lat="41.73008" lon="8.95511">
        <ele>582.22</ele>
        <time>2022-04-28T08:49:12Z</time>
      </trkpt>
      <trkpt lat="41.73023" lon="8.95517">
        <ele>585.58</ele>
        <time>2022-04-28T08:49:29Z</time>
      </trkpt>
      <trkpt lat="41.73036" lon="8.95527">
        <ele>587.98</ele>
        <time>2022-04-28T08:49:45Z</time>
      </trkpt>
      <trkpt lat="41.73048" lon="8.95534">
        <ele>590.87</ele>
        <time>2022-04-28T08:50:02Z</time>
      </trkpt>
      <trkpt lat="41.73059" lon="8.95545">
        <ele>594.71</ele>
        <time>2022-04-28T08:50:19Z</time>
      </trkpt>
      <trkpt lat="41.73071" lon="8.95548">
        <ele>597.12</ele>
        <time>2022-04-28T08:50:36Z</time>
      </trkpt>
      <trkpt lat="41.73087" lon="8.95565">
        <ele>599.52</ele>
        <time>2022-04-28T08:50:54Z</time>
      </trkpt>
      <trkpt lat="41.73097" lon="8.9558">
        <ele>602.88</ele>
        <time>2022-04-28T08:51:11Z</time>
      </trkpt>
      <trkpt lat="41.73109" lon="8.95605">
        <ele>603.85</ele>
        <time>2022-04-28T08:51:31Z</time>
      </trkpt>
      <trkpt lat="41.73129" lon="8.95615">
        <ele>603.85</ele>
        <time>2022-04-28T08:51:49Z</time>
      </trkpt>
      <trkpt lat="41.73151" lon="8.95622">
        <ele>606.25</ele>
        <time>2022-04-28T08:52:08Z</time>
      </trkpt>
      <trkpt lat="41.7317" lon="8.95632">
        <ele>609.13</ele>
        <time>2022-04-28T08:52:27Z</time>
      </trkpt>
      <trkpt lat="41.73191" lon="8.95634">
        <ele>612.5</ele>
        <time>2022-04-28T08:52:46Z</time>
      </trkpt>
      <trkpt lat="41.73206" lon="8.95649">
        <ele>613.94</ele>
        <time>2022-04-28T08:53:03Z</time>
      </trkpt>
      <trkpt lat="41.73209" lon="8.95668">
        <ele>616.82</ele>
        <time>2022-04-28T08:53:21Z</time>
      </trkpt>
      <trkpt lat="41.73209" lon="8.9568">
        <ele>620.19</ele>
        <time>2022-04-28T08:53:34Z</time>
      </trkpt>
      <trkpt lat="41.73199" lon="8.95684">
        <ele>623.07</ele>
        <time>2022-04-28T08:53:49Z</time>
      </trkpt>
      <trkpt lat="41.73181" lon="8.95696">
        <ele>625.47</ele>
        <time>2022-04-28T08:54:09Z</time>
      </trkpt>
      <trkpt lat="41.73168" lon="8.95713">
        <ele>627.88</ele>
        <time>2022-04-28T08:54:28Z</time>
      </trkpt>
      <trkpt lat="41.73159" lon="8.95732">
        <ele>630.76</ele>
        <time>2022-04-28T08:54:46Z</time>
      </trkpt>
      <trkpt lat="41.73151" lon="8.95745">
        <ele>633.65</ele>
        <time>2022-04-28T08:55:03Z</time>
      </trkpt>
      <trkpt lat="41.73158" lon="8.95752">
        <ele>636.53</ele>
        <time>2022-04-28T08:55:20Z</time>
      </trkpt>
      <trkpt lat="41.7315" lon="8.95769">
        <ele>640.38</ele>
        <time>2022-04-28T08:55:38Z</time>
      </trkpt>
      <trkpt lat="41.73152" lon="8.95786">
        <ele>642.3</ele>
        <time>2022-04-28T08:55:54Z</time>
      </trkpt>
      <trkpt lat="41.73154" lon="8.95804">
        <ele>645.66</ele>
        <time>2022-04-28T08:56:11Z</time>
      </trkpt>
      <trkpt lat="41.73156" lon="8.95819">
        <ele>647.59</ele>
        <time>2022-04-28T08:56:25Z</time>
      </trkpt>
      <trkpt lat="41.73159" lon="8.95835">
        <ele>650.47</ele>
        <time>2022-04-28T08:56:39Z</time>
      </trkpt>
      <trkpt lat="41.73165" lon="8.95844">
        <ele>653.35</ele>
        <time>2022-04-28T08:56:55Z</time>
      </trkpt>
      <trkpt lat="41.73174" lon="8.95847">
        <ele>655.28</ele>
        <time>2022-04-28T08:57:08Z</time>
      </trkpt>
      <trkpt lat="41.73176" lon="8.95866">
        <ele>657.68</ele>
        <time>2022-04-28T08:57:25Z</time>
      </trkpt>
      <trkpt lat="41.73181" lon="8.95874">
        <ele>660.08</ele>
        <time>2022-04-28T08:57:40Z</time>
      </trkpt>
      <trkpt lat="41.7319" lon="8.95888">
        <ele>662.97</ele>
        <time>2022-04-28T08:57:57Z</time>
      </trkpt>
      <trkpt lat="41.73199" lon="8.959">
        <ele>666.33</ele>
        <time>2022-04-28T08:58:13Z</time>
      </trkpt>
      <trkpt lat="41.73207" lon="8.95917">
        <ele>669.7</ele>
        <time>2022-04-28T08:58:32Z</time>
      </trkpt>
      <trkpt lat="41.73218" lon="8.95939">
        <ele>671.14</ele>
        <time>2022-04-28T08:58:51Z</time>
      </trkpt>
      <trkpt lat="41.73229" lon="8.95963">
        <ele>673.54</ele>
        <time>2022-04-28T08:59:10Z</time>
      </trkpt>
      <trkpt lat="41.73227" lon="8.95991">
        <ele>675.94</ele>
        <time>2022-04-28T08:59:32Z</time>
      </trkpt>
      <trkpt lat="41.73243" lon="8.95999">
        <ele>678.83</ele>
        <time>2022-04-28T08:59:54Z</time>
      </trkpt>
      <trkpt lat="41.73257" lon="8.96011">
        <ele>681.71</ele>
        <time>2022-04-28T09:00:12Z</time>
      </trkpt>
      <trkpt lat="41.73263" lon="8.9602">
        <ele>684.6</ele>
        <time>2022-04-28T09:00:28Z</time>
      </trkpt>
      <trkpt lat="41.73274" lon="8.96032">
        <ele>687.96</ele>
        <time>2022-04-28T09:00:45Z</time>
      </trkpt>
      <trkpt lat="41.7328" lon="8.96034">
        <ele>690.84</ele>
        <time>2022-04-28T09:01:00Z</time>
      </trkpt>
      <trkpt lat="41.73284" lon="8.96031">
        <ele>692.77</ele>
        <time>2022-04-28T09:01:21Z</time>
      </trkpt>
      <trkpt lat="41.73286" lon="8.96017">
        <ele>693.25</ele>
        <time>2022-04-28T09:01:46Z</time>
      </trkpt>
      <trkpt lat="41.73296" lon="8.96025">
        <ele>696.13</ele>
        <time>2022-04-28T09:02:02Z</time>
      </trkpt>
      <trkpt lat="41.73303" lon="8.96036">
        <ele>699.02</ele>
        <time>2022-04-28T09:02:19Z</time>
      </trkpt>
      <trkpt lat="41.7331" lon="8.96028">
        <ele>701.9</ele>
        <time>2022-04-28T09:02:35Z</time>
      </trkpt>
      <trkpt lat="41.73315" lon="8.96043">
        <ele>704.3</ele>
        <time>2022-04-28T09:02:50Z</time>
      </trkpt>
      <trkpt lat="41.73322" lon="8.96057">
        <ele>706.71</ele>
        <time>2022-04-28T09:03:09Z</time>
      </trkpt>
      <trkpt lat="41.73329" lon="8.96065">
        <ele>710.07</ele>
        <time>2022-04-28T09:03:21Z</time>
      </trkpt>
      <trkpt lat="41.73339" lon="8.96072">
        <ele>712.95</ele>
        <time>2022-04-28T09:03:37Z</time>
      </trkpt>
      <trkpt lat="41.73351" lon="8.96081">
        <ele>715.84</ele>
        <time>2022-04-28T09:03:57Z</time>
      </trkpt>
      <trkpt lat="41.73361" lon="8.96083">
        <ele>719.2</ele>
        <time>2022-04-28T09:04:13Z</time>
      </trkpt>
      <trkpt lat="41.7337" lon="8.96101">
        <ele>721.13</ele>
        <time>2022-04-28T09:04:31Z</time>
      </trkpt>
      <trkpt lat="41.73377" lon="8.96115">
        <ele>723.53</ele>
        <time>2022-04-28T09:04:47Z</time>
      </trkpt>
      <trkpt lat="41.73387" lon="8.96134">
        <ele>725.93</ele>
        <time>2022-04-28T09:05:05Z</time>
      </trkpt>
      <trkpt lat="41.73393" lon="8.96146">
        <ele>727.37</ele>
        <time>2022-04-28T09:05:23Z</time>
      </trkpt>
      <trkpt lat="41.73394" lon="8.96149">
        <ele>727.37</ele>
        <time>2022-04-28T09:05:44Z</time>
      </trkpt>
      <trkpt lat="41.73394" lon="8.96166">
        <ele>728.82</ele>
        <time>2022-04-28T09:06:02Z</time>
      </trkpt>
      <trkpt lat="41.73381" lon="8.96182">
        <ele>731.22</ele>
        <time>2022-04-28T09:06:21Z</time>
      </trkpt>
      <trkpt lat="41.73373" lon="8.96189">
        <ele>734.58</ele>
        <time>2022-04-28T09:06:34Z</time>
      </trkpt>
      <trkpt lat="41.73359" lon="8.96197">
        <ele>737.47</ele>
        <time>2022-04-28T09:06:53Z</time>
      </trkpt>
      <trkpt lat="41.73344" lon="8.96205">
        <ele>739.87</ele>
        <time>2022-04-28T09:07:12Z</time>
      </trkpt>
      <trkpt lat="41.73331" lon="8.96216">
        <ele>742.76</ele>
        <time>2022-04-28T09:07:29Z</time>
      </trkpt>
      <trkpt lat="41.73321" lon="8.96231">
        <ele>744.68</ele>
        <time>2022-04-28T09:07:48Z</time>
      </trkpt>
      <trkpt lat="41.73314" lon="8.96254">
        <ele>747.56</ele>
        <time>2022-04-28T09:08:07Z</time>
      </trkpt>
      <trkpt lat="41.733" lon="8.96264">
        <ele>749</ele>
        <time>2022-04-28T09:08:26Z</time>
      </trkpt>
      <trkpt lat="41.73283" lon="8.96268">
        <ele>751.41</ele>
        <time>2022-04-28T09:08:46Z</time>
      </trkpt>
      <trkpt lat="41.73265" lon="8.96274">
        <ele>754.77</ele>
        <time>2022-04-28T09:09:06Z</time>
      </trkpt>
      <trkpt lat="41.73246" lon="8.96278">
        <ele>756.69</ele>
        <time>2022-04-28T09:09:25Z</time>
      </trkpt>
      <trkpt lat="41.73229" lon="8.96289">
        <ele>758.62</ele>
        <time>2022-04-28T09:09:44Z</time>
      </trkpt>
      <trkpt lat="41.73211" lon="8.96301">
        <ele>761.98</ele>
        <time>2022-04-28T09:10:05Z</time>
      </trkpt>
      <trkpt lat="41.73199" lon="8.963">
        <ele>765.35</ele>
        <time>2022-04-28T09:10:21Z</time>
      </trkpt>
      <trkpt lat="41.73191" lon="8.96301">
        <ele>767.27</ele>
        <time>2022-04-28T09:10:34Z</time>
      </trkpt>
      <trkpt lat="41.73177" lon="8.96296">
        <ele>770.15</ele>
        <time>2022-04-28T09:10:53Z</time>
      </trkpt>
      <trkpt lat="41.73161" lon="8.96293">
        <ele>772.08</ele>
        <time>2022-04-28T09:11:12Z</time>
      </trkpt>
      <trkpt lat="41.73147" lon="8.9629">
        <ele>774.96</ele>
        <time>2022-04-28T09:11:29Z</time>
      </trkpt>
      <trkpt lat="41.73129" lon="8.96288">
        <ele>777.36</ele>
        <time>2022-04-28T09:11:47Z</time>
      </trkpt>
      <trkpt lat="41.73113" lon="8.963">
        <ele>778.32</ele>
        <time>2022-04-28T09:12:04Z</time>
      </trkpt>
      <trkpt lat="41.73093" lon="8.9632">
        <ele>777.36</ele>
        <time>2022-04-28T09:12:26Z</time>
      </trkpt>
      <trkpt lat="41.73075" lon="8.96345">
        <ele>777.36</ele>
        <time>2022-04-28T09:12:47Z</time>
      </trkpt>
      <trkpt lat="41.73059" lon="8.96359">
        <ele>776.88</ele>
        <time>2022-04-28T09:13:04Z</time>
      </trkpt>
      <trkpt lat="41.73046" lon="8.96383">
        <ele>775.92</ele>
        <time>2022-04-28T09:13:22Z</time>
      </trkpt>
      <trkpt lat="41.73032" lon="8.96394">
        <ele>775.44</ele>
        <time>2022-04-28T09:13:35Z</time>
      </trkpt>
      <trkpt lat="41.73014" lon="8.96403">
        <ele>774.48</ele>
        <time>2022-04-28T09:13:50Z</time>
      </trkpt>
      <trkpt lat="41.72997" lon="8.96413">
        <ele>773.52</ele>
        <time>2022-04-28T09:14:06Z</time>
      </trkpt>
      <trkpt lat="41.72978" lon="8.96425">
        <ele>773.04</ele>
        <time>2022-04-28T09:14:22Z</time>
      </trkpt>
      <trkpt lat="41.72957" lon="8.96438">
        <ele>772.08</ele>
        <time>2022-04-28T09:14:41Z</time>
      </trkpt>
      <trkpt lat="41.72941" lon="8.96448">
        <ele>770.63</ele>
        <time>2022-04-28T09:14:54Z</time>
      </trkpt>
      <trkpt lat="41.72928" lon="8.9647">
        <ele>767.75</ele>
        <time>2022-04-28T09:15:12Z</time>
      </trkpt>
      <trkpt lat="41.72924" lon="8.96492">
        <ele>765.35</ele>
        <time>2022-04-28T09:15:28Z</time>
      </trkpt>
      <trkpt lat="41.72927" lon="8.96512">
        <ele>761.98</ele>
        <time>2022-04-28T09:15:42Z</time>
      </trkpt>
      <trkpt lat="41.72933" lon="8.96547">
        <ele>760.54</ele>
        <time>2022-04-28T09:16:01Z</time>
      </trkpt>
      <trkpt lat="41.72929" lon="8.96576">
        <ele>760.06</ele>
        <time>2022-04-28T09:16:20Z</time>
      </trkpt>
      <trkpt lat="41.72926" lon="8.96608">
        <ele>759.1</ele>
        <time>2022-04-28T09:16:39Z</time>
      </trkpt>
      <trkpt lat="41.72913" lon="8.96621">
        <ele>756.21</ele>
        <time>2022-04-28T09:16:51Z</time>
      </trkpt>
      <trkpt lat="41.729" lon="8.96635">
        <ele>752.85</ele>
        <time>2022-04-28T09:17:07Z</time>
      </trkpt>
      <trkpt lat="41.72885" lon="8.96654">
        <ele>749.97</ele>
        <time>2022-04-28T09:17:23Z</time>
      </trkpt>
      <trkpt lat="41.72867" lon="8.96671">
        <ele>747.56</ele>
        <time>2022-04-28T09:17:41Z</time>
      </trkpt>
      <trkpt lat="41.72853" lon="8.9668">
        <ele>745.16</ele>
        <time>2022-04-28T09:17:58Z</time>
      </trkpt>
      <trkpt lat="41.72845" lon="8.9668">
        <ele>745.16</ele>
        <time>2022-04-28T09:18:19Z</time>
      </trkpt>
      <trkpt lat="41.72837" lon="8.96693">
        <ele>745.16</ele>
        <time>2022-04-28T09:18:41Z</time>
      </trkpt>
      <trkpt lat="41.72837" lon="8.96705">
        <ele>741.79</ele>
        <time>2022-04-28T09:18:52Z</time>
      </trkpt>
      <trkpt lat="41.72834" lon="8.96714">
        <ele>738.43</ele>
        <time>2022-04-28T09:19:00Z</time>
      </trkpt>
      <trkpt lat="41.7283" lon="8.96722">
        <ele>734.58</ele>
        <time>2022-04-28T09:19:08Z</time>
      </trkpt>
      <trkpt lat="41.72819" lon="8.96731">
        <ele>731.22</ele>
        <time>2022-04-28T09:19:18Z</time>
      </trkpt>
      <trkpt lat="41.72814" lon="8.96736">
        <ele>729.3</ele>
        <time>2022-04-28T09:19:22Z</time>
      </trkpt>
      <trkpt lat="41.72809" lon="8.96747">
        <ele>727.37</ele>
        <time>2022-04-28T09:19:38Z</time>
      </trkpt>
      <trkpt lat="41.72806" lon="8.96747">
        <ele>726.89</ele>
        <time>2022-04-28T09:20:05Z</time>
      </trkpt>
      <trkpt lat="41.72802" lon="8.96751">
        <ele>725.45</ele>
        <time>2022-04-28T09:20:25Z</time>
      </trkpt>
      <trkpt lat="41.72781" lon="8.96761">
        <ele>722.57</ele>
        <time>2022-04-28T09:20:43Z</time>
      </trkpt>
      <trkpt lat="41.7277" lon="8.96774">
        <ele>719.68</ele>
        <time>2022-04-28T09:20:54Z</time>
      </trkpt>
      <trkpt lat="41.72754" lon="8.96793">
        <ele>716.8</ele>
        <time>2022-04-28T09:21:09Z</time>
      </trkpt>
      <trkpt lat="41.72754" lon="8.96795">
        <ele>716.32</ele>
        <time>2022-04-28T09:21:10Z</time>
      </trkpt>
      <trkpt lat="41.72749" lon="8.96802">
        <ele>715.36</ele>
        <time>2022-04-28T09:21:14Z</time>
      </trkpt>
      <trkpt lat="41.72736" lon="8.96818">
        <ele>713.44</ele>
        <time>2022-04-28T09:21:27Z</time>
      </trkpt>
      <trkpt lat="41.7273" lon="8.9684">
        <ele>710.07</ele>
        <time>2022-04-28T09:21:41Z</time>
      </trkpt>
      <trkpt lat="41.72728" lon="8.96854">
        <ele>708.63</ele>
        <time>2022-04-28T09:21:51Z</time>
      </trkpt>
      <trkpt lat="41.72727" lon="8.96884">
        <ele>704.78</ele>
        <time>2022-04-28T09:22:09Z</time>
      </trkpt>
      <trkpt lat="41.72725" lon="8.96902">
        <ele>703.82</ele>
        <time>2022-04-28T09:22:26Z</time>
      </trkpt>
      <trkpt lat="41.72723" lon="8.96902">
        <ele>703.82</ele>
        <time>2022-04-28T09:22:44Z</time>
      </trkpt>
      <trkpt lat="41.72725" lon="8.96909">
        <ele>702.86</ele>
        <time>2022-04-28T09:23:02Z</time>
      </trkpt>
      <trkpt lat="41.72727" lon="8.96909">
        <ele>702.86</ele>
        <time>2022-04-28T09:23:19Z</time>
      </trkpt>
      <trkpt lat="41.72727" lon="8.96918">
        <ele>700.94</ele>
        <time>2022-04-28T09:23:28Z</time>
      </trkpt>
      <trkpt lat="41.72719" lon="8.96927">
        <ele>697.57</ele>
        <time>2022-04-28T09:23:38Z</time>
      </trkpt>
      <trkpt lat="41.72711" lon="8.96931">
        <ele>695.65</ele>
        <time>2022-04-28T09:23:47Z</time>
      </trkpt>
      <trkpt lat="41.72701" lon="8.96938">
        <ele>691.81</ele>
        <time>2022-04-28T09:23:58Z</time>
      </trkpt>
      <trkpt lat="41.72696" lon="8.96951">
        <ele>688.92</ele>
        <time>2022-04-28T09:24:09Z</time>
      </trkpt>
      <trkpt lat="41.72687" lon="8.9695">
        <ele>685.56</ele>
        <time>2022-04-28T09:24:23Z</time>
      </trkpt>
      <trkpt lat="41.72685" lon="8.9696">
        <ele>682.67</ele>
        <time>2022-04-28T09:24:37Z</time>
      </trkpt>
      <trkpt lat="41.72685" lon="8.96965">
        <ele>681.71</ele>
        <time>2022-04-28T09:25:00Z</time>
      </trkpt>
      <trkpt lat="41.72684" lon="8.96973">
        <ele>680.27</ele>
        <time>2022-04-28T09:25:35Z</time>
      </trkpt>
      <trkpt lat="41.72684" lon="8.96974">
        <ele>679.79</ele>
        <time>2022-04-28T09:25:36Z</time>
      </trkpt>
      <trkpt lat="41.72678" lon="8.96981">
        <ele>676.42</ele>
        <time>2022-04-28T09:25:47Z</time>
      </trkpt>
      <trkpt lat="41.72676" lon="8.96982">
        <ele>675.46</ele>
        <time>2022-04-28T09:25:49Z</time>
      </trkpt>
      <trkpt lat="41.72664" lon="8.96987">
        <ele>672.58</ele>
        <time>2022-04-28T09:26:01Z</time>
      </trkpt>
      <trkpt lat="41.72654" lon="8.96984">
        <ele>669.22</ele>
        <time>2022-04-28T09:26:13Z</time>
      </trkpt>
      <trkpt lat="41.72644" lon="8.96984">
        <ele>665.85</ele>
        <time>2022-04-28T09:26:23Z</time>
      </trkpt>
      <trkpt lat="41.72642" lon="8.96984">
        <ele>664.89</ele>
        <time>2022-04-28T09:26:25Z</time>
      </trkpt>
      <trkpt lat="41.72634" lon="8.96991">
        <ele>662.49</ele>
        <time>2022-04-28T09:26:37Z</time>
      </trkpt>
      <trkpt lat="41.72624" lon="8.96989">
        <ele>659.6</ele>
        <time>2022-04-28T09:26:48Z</time>
      </trkpt>
      <trkpt lat="41.72615" lon="8.96989">
        <ele>656.24</ele>
        <time>2022-04-28T09:26:57Z</time>
      </trkpt>
      <trkpt lat="41.72605" lon="8.96986">
        <ele>653.35</ele>
        <time>2022-04-28T09:27:11Z</time>
      </trkpt>
      <trkpt lat="41.72593" lon="8.96992">
        <ele>649.51</ele>
        <time>2022-04-28T09:27:24Z</time>
      </trkpt>
      <trkpt lat="41.72582" lon="8.9699">
        <ele>646.62</ele>
        <time>2022-04-28T09:27:35Z</time>
      </trkpt>
      <trkpt lat="41.72575" lon="8.96982">
        <ele>643.74</ele>
        <time>2022-04-28T09:27:46Z</time>
      </trkpt>
      <trkpt lat="41.72568" lon="8.96971">
        <ele>641.34</ele>
        <time>2022-04-28T09:27:57Z</time>
      </trkpt>
      <trkpt lat="41.72563" lon="8.96952">
        <ele>637.97</ele>
        <time>2022-04-28T09:28:11Z</time>
      </trkpt>
      <trkpt lat="41.72551" lon="8.96935">
        <ele>635.09</ele>
        <time>2022-04-28T09:28:27Z</time>
      </trkpt>
      <trkpt lat="41.72529" lon="8.96927">
        <ele>632.2</ele>
        <time>2022-04-28T09:28:45Z</time>
      </trkpt>
      <trkpt lat="41.72512" lon="8.96935">
        <ele>628.84</ele>
        <time>2022-04-28T09:29:02Z</time>
      </trkpt>
      <trkpt lat="41.72501" lon="8.96946">
        <ele>627.4</ele>
        <time>2022-04-28T09:29:16Z</time>
      </trkpt>
      <trkpt lat="41.72495" lon="8.96953">
        <ele>625.47</ele>
        <time>2022-04-28T09:29:23Z</time>
      </trkpt>
      <trkpt lat="41.72486" lon="8.96967">
        <ele>622.59</ele>
        <time>2022-04-28T09:29:36Z</time>
      </trkpt>
      <trkpt lat="41.72477" lon="8.96972">
        <ele>621.63</ele>
        <time>2022-04-28T09:29:52Z</time>
      </trkpt>
      <trkpt lat="41.7248" lon="8.96971">
        <ele>621.63</ele>
        <time>2022-04-28T09:30:18Z</time>
      </trkpt>
      <trkpt lat="41.72476" lon="8.96969">
        <ele>621.63</ele>
        <time>2022-04-28T09:30:51Z</time>
      </trkpt>
      <trkpt lat="41.72462" lon="8.9697">
        <ele>618.75</ele>
        <time>2022-04-28T09:31:04Z</time>
      </trkpt>
      <trkpt lat="41.72458" lon="8.96973">
        <ele>617.78</ele>
        <time>2022-04-28T09:31:07Z</time>
      </trkpt>
      <trkpt lat="41.72449" lon="8.96976">
        <ele>615.38</ele>
        <time>2022-04-28T09:31:15Z</time>
      </trkpt>
      <trkpt lat="41.72438" lon="8.9698">
        <ele>612.5</ele>
        <time>2022-04-28T09:31:25Z</time>
      </trkpt>
      <trkpt lat="41.72426" lon="8.96987">
        <ele>609.13</ele>
        <time>2022-04-28T09:31:38Z</time>
      </trkpt>
      <trkpt lat="41.72414" lon="8.96988">
        <ele>605.29</ele>
        <time>2022-04-28T09:31:56Z</time>
      </trkpt>
      <trkpt lat="41.72406" lon="8.96985">
        <ele>604.33</ele>
        <time>2022-04-28T09:32:22Z</time>
      </trkpt>
      <trkpt lat="41.72393" lon="8.96978">
        <ele>601.44</ele>
        <time>2022-04-28T09:32:36Z</time>
      </trkpt>
      <trkpt lat="41.72383" lon="8.96965">
        <ele>599.52</ele>
        <time>2022-04-28T09:32:48Z</time>
      </trkpt>
      <trkpt lat="41.72376" lon="8.96968">
        <ele>596.64</ele>
        <time>2022-04-28T09:32:58Z</time>
      </trkpt>
      <trkpt lat="41.72369" lon="8.96969">
        <ele>594.23</ele>
        <time>2022-04-28T09:33:14Z</time>
      </trkpt>
      <trkpt lat="41.72366" lon="8.9698">
        <ele>592.79</ele>
        <time>2022-04-28T09:33:28Z</time>
      </trkpt>
      <trkpt lat="41.72345" lon="8.96986">
        <ele>591.35</ele>
        <time>2022-04-28T09:33:46Z</time>
      </trkpt>
      <trkpt lat="41.72324" lon="8.96979">
        <ele>591.35</ele>
        <time>2022-04-28T09:34:03Z</time>
      </trkpt>
      <trkpt lat="41.72304" lon="8.96969">
        <ele>587.98</ele>
        <time>2022-04-28T09:34:21Z</time>
      </trkpt>
      <trkpt lat="41.72296" lon="8.96967">
        <ele>586.06</ele>
        <time>2022-04-28T09:34:30Z</time>
      </trkpt>
      <trkpt lat="41.72285" lon="8.96952">
        <ele>582.7</ele>
        <time>2022-04-28T09:34:42Z</time>
      </trkpt>
      <trkpt lat="41.72275" lon="8.9694">
        <ele>579.33</ele>
        <time>2022-04-28T09:34:53Z</time>
      </trkpt>
      <trkpt lat="41.72266" lon="8.96938">
        <ele>575.97</ele>
        <time>2022-04-28T09:35:04Z</time>
      </trkpt>
      <trkpt lat="41.72256" lon="8.96926">
        <ele>573.08</ele>
        <time>2022-04-28T09:35:18Z</time>
      </trkpt>
      <trkpt lat="41.72248" lon="8.96909">
        <ele>571.16</ele>
        <time>2022-04-28T09:35:34Z</time>
      </trkpt>
      <trkpt lat="41.72245" lon="8.96902">
        <ele>569.24</ele>
        <time>2022-04-28T09:35:49Z</time>
      </trkpt>
      <trkpt lat="41.72228" lon="8.96894">
        <ele>566.35</ele>
        <time>2022-04-28T09:36:05Z</time>
      </trkpt>
      <trkpt lat="41.72216" lon="8.96896">
        <ele>564.91</ele>
        <time>2022-04-28T09:36:15Z</time>
      </trkpt>
      <trkpt lat="41.72198" lon="8.96898">
        <ele>563.47</ele>
        <time>2022-04-28T09:36:30Z</time>
      </trkpt>
      <trkpt lat="41.72172" lon="8.96907">
        <ele>562.03</ele>
        <time>2022-04-28T09:36:49Z</time>
      </trkpt>
      <trkpt lat="41.72162" lon="8.96917">
        <ele>558.66</ele>
        <time>2022-04-28T09:36:59Z</time>
      </trkpt>
      <trkpt lat="41.72162" lon="8.96918">
        <ele>558.66</ele>
        <time>2022-04-28T09:37:00Z</time>
      </trkpt>
      <trkpt lat="41.72161" lon="8.96925">
        <ele>558.18</ele>
        <time>2022-04-28T09:37:04Z</time>
      </trkpt>
      <trkpt lat="41.72161" lon="8.96933">
        <ele>557.7</ele>
        <time>2022-04-28T09:37:09Z</time>
      </trkpt>
      <trkpt lat="41.72156" lon="8.96953">
        <ele>554.34</ele>
        <time>2022-04-28T09:37:22Z</time>
      </trkpt>
      <trkpt lat="41.72156" lon="8.96955">
        <ele>553.86</ele>
        <time>2022-04-28T09:37:23Z</time>
      </trkpt>
      <trkpt lat="41.72144" lon="8.96981">
        <ele>550.97</ele>
        <time>2022-04-28T09:37:42Z</time>
      </trkpt>
      <trkpt lat="41.72134" lon="8.96993">
        <ele>547.61</ele>
        <time>2022-04-28T09:37:56Z</time>
      </trkpt>
      <trkpt lat="41.72128" lon="8.97006">
        <ele>546.17</ele>
        <time>2022-04-28T09:38:08Z</time>
      </trkpt>
      <trkpt lat="41.72117" lon="8.9702">
        <ele>542.32</ele>
        <time>2022-04-28T09:38:21Z</time>
      </trkpt>
      <trkpt lat="41.72107" lon="8.97029">
        <ele>539.44</ele>
        <time>2022-04-28T09:38:35Z</time>
      </trkpt>
      <trkpt lat="41.72098" lon="8.97022">
        <ele>536.55</ele>
        <time>2022-04-28T09:38:49Z</time>
      </trkpt>
      <trkpt lat="41.72089" lon="8.97012">
        <ele>533.19</ele>
        <time>2022-04-28T09:39:04Z</time>
      </trkpt>
      <trkpt lat="41.72087" lon="8.97003">
        <ele>531.75</ele>
        <time>2022-04-28T09:39:19Z</time>
      </trkpt>
      <trkpt lat="41.72079" lon="8.96998">
        <ele>528.38</ele>
        <time>2022-04-28T09:39:31Z</time>
      </trkpt>
      <trkpt lat="41.72069" lon="8.96996">
        <ele>525.5</ele>
        <time>2022-04-28T09:39:43Z</time>
      </trkpt>
      <trkpt lat="41.72064" lon="8.96991">
        <ele>523.58</ele>
        <time>2022-04-28T09:39:49Z</time>
      </trkpt>
      <trkpt lat="41.72056" lon="8.96989">
        <ele>521.17</ele>
        <time>2022-04-28T09:39:57Z</time>
      </trkpt>
      <trkpt lat="41.72043" lon="8.96979">
        <ele>517.81</ele>
        <time>2022-04-28T09:40:11Z</time>
      </trkpt>
      <trkpt lat="41.72024" lon="8.96975">
        <ele>514.92</ele>
        <time>2022-04-28T09:40:26Z</time>
      </trkpt>
      <trkpt lat="41.72018" lon="8.96977">
        <ele>513.48</ele>
        <time>2022-04-28T09:40:30Z</time>
      </trkpt>
      <trkpt lat="41.72008" lon="8.96985">
        <ele>510.12</ele>
        <time>2022-04-28T09:40:41Z</time>
      </trkpt>
      <trkpt lat="41.71996" lon="8.96999">
        <ele>507.23</ele>
        <time>2022-04-28T09:40:56Z</time>
      </trkpt>
      <trkpt lat="41.71991" lon="8.97003">
        <ele>505.79</ele>
        <time>2022-04-28T09:41:01Z</time>
      </trkpt>
      <trkpt lat="41.71983" lon="8.97008">
        <ele>503.39</ele>
        <time>2022-04-28T09:41:19Z</time>
      </trkpt>
      <trkpt lat="41.71979" lon="8.97015">
        <ele>501.46</ele>
        <time>2022-04-28T09:41:25Z</time>
      </trkpt>
      <trkpt lat="41.71966" lon="8.97021">
        <ele>498.1</ele>
        <time>2022-04-28T09:41:39Z</time>
      </trkpt>
      <trkpt lat="41.71966" lon="8.97022">
        <ele>498.1</ele>
        <time>2022-04-28T09:41:40Z</time>
      </trkpt>
      <trkpt lat="41.71959" lon="8.97031">
        <ele>495.7</ele>
        <time>2022-04-28T09:41:50Z</time>
      </trkpt>
      <trkpt lat="41.71951" lon="8.97036">
        <ele>492.33</ele>
        <time>2022-04-28T09:42:03Z</time>
      </trkpt>
      <trkpt lat="41.71943" lon="8.97036">
        <ele>489.45</ele>
        <time>2022-04-28T09:42:13Z</time>
      </trkpt>
      <trkpt lat="41.7194" lon="8.97037">
        <ele>488.01</ele>
        <time>2022-04-28T09:42:16Z</time>
      </trkpt>
      <trkpt lat="41.71932" lon="8.97046">
        <ele>485.12</ele>
        <time>2022-04-28T09:42:29Z</time>
      </trkpt>
      <trkpt lat="41.71927" lon="8.97052">
        <ele>482.24</ele>
        <time>2022-04-28T09:42:42Z</time>
      </trkpt>
      <trkpt lat="41.71921" lon="8.97069">
        <ele>478.87</ele>
        <time>2022-04-28T09:42:56Z</time>
      </trkpt>
      <trkpt lat="41.7191" lon="8.97085">
        <ele>475.51</ele>
        <time>2022-04-28T09:43:11Z</time>
      </trkpt>
      <trkpt lat="41.719" lon="8.97104">
        <ele>472.63</ele>
        <time>2022-04-28T09:43:25Z</time>
      </trkpt>
      <trkpt lat="41.71891" lon="8.9712">
        <ele>470.22</ele>
        <time>2022-04-28T09:43:39Z</time>
      </trkpt>
      <trkpt lat="41.71887" lon="8.97131">
        <ele>466.86</ele>
        <time>2022-04-28T09:43:50Z</time>
      </trkpt>
      <trkpt lat="41.71885" lon="8.97132">
        <ele>466.38</ele>
        <time>2022-04-28T09:43:52Z</time>
      </trkpt>
      <trkpt lat="41.71884" lon="8.97145">
        <ele>463.49</ele>
        <time>2022-04-28T09:44:05Z</time>
      </trkpt>
      <trkpt lat="41.7188" lon="8.97159">
        <ele>460.13</ele>
        <time>2022-04-28T09:44:20Z</time>
      </trkpt>
      <trkpt lat="41.71875" lon="8.97174">
        <ele>456.76</ele>
        <time>2022-04-28T09:44:32Z</time>
      </trkpt>
      <trkpt lat="41.71873" lon="8.97187">
        <ele>455.8</ele>
        <time>2022-04-28T09:44:41Z</time>
      </trkpt>
      <trkpt lat="41.71867" lon="8.97198">
        <ele>453.88</ele>
        <time>2022-04-28T09:44:49Z</time>
      </trkpt>
      <trkpt lat="41.71863" lon="8.97217">
        <ele>450.52</ele>
        <time>2022-04-28T09:45:02Z</time>
      </trkpt>
      <trkpt lat="41.71857" lon="8.97225">
        <ele>448.11</ele>
        <time>2022-04-28T09:45:12Z</time>
      </trkpt>
      <trkpt lat="41.71848" lon="8.97242">
        <ele>445.71</ele>
        <time>2022-04-28T09:45:27Z</time>
      </trkpt>
      <trkpt lat="41.71839" lon="8.9724">
        <ele>444.27</ele>
        <time>2022-04-28T09:45:41Z</time>
      </trkpt>
      <trkpt lat="41.71839" lon="8.97238">
        <ele>443.79</ele>
        <time>2022-04-28T09:46:14Z</time>
      </trkpt>
      <trkpt lat="41.71839" lon="8.97239">
        <ele>443.79</ele>
        <time>2022-04-28T09:46:37Z</time>
      </trkpt>
      <trkpt lat="41.71838" lon="8.97238">
        <ele>443.79</ele>
        <time>2022-04-28T09:46:59Z</time>
      </trkpt>
      <trkpt lat="41.7183" lon="8.97232">
        <ele>441.86</ele>
        <time>2022-04-28T09:47:11Z</time>
      </trkpt>
      <trkpt lat="41.71824" lon="8.97228">
        <ele>440.42</ele>
        <time>2022-04-28T09:47:19Z</time>
      </trkpt>
      <trkpt lat="41.71812" lon="8.97213">
        <ele>437.06</ele>
        <time>2022-04-28T09:47:34Z</time>
      </trkpt>
      <trkpt lat="41.71804" lon="8.97205">
        <ele>434.17</ele>
        <time>2022-04-28T09:47:46Z</time>
      </trkpt>
      <trkpt lat="41.71804" lon="8.97206">
        <ele>434.17</ele>
        <time>2022-04-28T09:47:47Z</time>
      </trkpt>
      <trkpt lat="41.71798" lon="8.97207">
        <ele>431.77</ele>
        <time>2022-04-28T09:47:55Z</time>
      </trkpt>
      <trkpt lat="41.71789" lon="8.97202">
        <ele>428.4</ele>
        <time>2022-04-28T09:48:07Z</time>
      </trkpt>
      <trkpt lat="41.71776" lon="8.97193">
        <ele>425.04</ele>
        <time>2022-04-28T09:48:23Z</time>
      </trkpt>
      <trkpt lat="41.71765" lon="8.97187">
        <ele>422.16</ele>
        <time>2022-04-28T09:48:33Z</time>
      </trkpt>
      <trkpt lat="41.71753" lon="8.97187">
        <ele>418.79</ele>
        <time>2022-04-28T09:48:47Z</time>
      </trkpt>
      <trkpt lat="41.71751" lon="8.972">
        <ele>415.91</ele>
        <time>2022-04-28T09:48:59Z</time>
      </trkpt>
      <trkpt lat="41.71749" lon="8.97202">
        <ele>414.47</ele>
        <time>2022-04-28T09:49:02Z</time>
      </trkpt>
      <trkpt lat="41.7174" lon="8.97201">
        <ele>411.58</ele>
        <time>2022-04-28T09:49:14Z</time>
      </trkpt>
      <trkpt lat="41.71729" lon="8.97194">
        <ele>408.22</ele>
        <time>2022-04-28T09:49:29Z</time>
      </trkpt>
      <trkpt lat="41.71722" lon="8.97187">
        <ele>404.85</ele>
        <time>2022-04-28T09:49:38Z</time>
      </trkpt>
      <trkpt lat="41.71714" lon="8.97192">
        <ele>401.97</ele>
        <time>2022-04-28T09:49:50Z</time>
      </trkpt>
      <trkpt lat="41.71711" lon="8.97197">
        <ele>399.57</ele>
        <time>2022-04-28T09:49:57Z</time>
      </trkpt>
      <trkpt lat="41.71703" lon="8.97201">
        <ele>396.68</ele>
        <time>2022-04-28T09:50:10Z</time>
      </trkpt>
      <trkpt lat="41.71697" lon="8.97206">
        <ele>393.8</ele>
        <time>2022-04-28T09:50:18Z</time>
      </trkpt>
      <trkpt lat="41.71689" lon="8.97211">
        <ele>390.91</ele>
        <time>2022-04-28T09:50:26Z</time>
      </trkpt>
      <trkpt lat="41.71688" lon="8.97211">
        <ele>390.43</ele>
        <time>2022-04-28T09:50:27Z</time>
      </trkpt>
      <trkpt lat="41.71679" lon="8.97216">
        <ele>388.03</ele>
        <time>2022-04-28T09:50:35Z</time>
      </trkpt>
      <trkpt lat="41.71674" lon="8.97226">
        <ele>384.18</ele>
        <time>2022-04-28T09:50:45Z</time>
      </trkpt>
      <trkpt lat="41.71674" lon="8.97228">
        <ele>385.15</ele>
        <time>2022-04-28T09:50:46Z</time>
      </trkpt>
      <trkpt lat="41.71672" lon="8.97262">
        <ele>382.74</ele>
        <time>2022-04-28T09:51:05Z</time>
      </trkpt>
      <trkpt lat="41.7167" lon="8.97283">
        <ele>381.78</ele>
        <time>2022-04-28T09:51:21Z</time>
      </trkpt>
      <trkpt lat="41.71671" lon="8.97296">
        <ele>380.82</ele>
        <time>2022-04-28T09:51:28Z</time>
      </trkpt>
      <trkpt lat="41.71671" lon="8.9732">
        <ele>379.86</ele>
        <time>2022-04-28T09:51:43Z</time>
      </trkpt>
      <trkpt lat="41.7167" lon="8.97352">
        <ele>378.42</ele>
        <time>2022-04-28T09:52:01Z</time>
      </trkpt>
      <trkpt lat="41.71673" lon="8.97383">
        <ele>376.97</ele>
        <time>2022-04-28T09:52:19Z</time>
      </trkpt>
      <trkpt lat="41.71681" lon="8.97408">
        <ele>375.53</ele>
        <time>2022-04-28T09:52:34Z</time>
      </trkpt>
      <trkpt lat="41.71693" lon="8.97427">
        <ele>374.57</ele>
        <time>2022-04-28T09:52:48Z</time>
      </trkpt>
      <trkpt lat="41.71696" lon="8.97435">
        <ele>374.09</ele>
        <time>2022-04-28T09:52:53Z</time>
      </trkpt>
      <trkpt lat="41.71698" lon="8.97442">
        <ele>373.13</ele>
        <time>2022-04-28T09:52:57Z</time>
      </trkpt>
      <trkpt lat="41.71707" lon="8.97473">
        <ele>372.17</ele>
        <time>2022-04-28T09:53:16Z</time>
      </trkpt>
      <trkpt lat="41.71708" lon="8.97476">
        <ele>371.69</ele>
        <time>2022-04-28T09:53:18Z</time>
      </trkpt>
      <trkpt lat="41.71712" lon="8.97488">
        <ele>370.73</ele>
        <time>2022-04-28T09:53:26Z</time>
      </trkpt>
      <trkpt lat="41.71723" lon="8.97517">
        <ele>367.84</ele>
        <time>2022-04-28T09:53:44Z</time>
      </trkpt>
      <trkpt lat="41.71725" lon="8.97521">
        <ele>367.36</ele>
        <time>2022-04-28T09:53:47Z</time>
      </trkpt>
      <trkpt lat="41.71728" lon="8.9753">
        <ele>369.28</ele>
        <time>2022-04-28T09:53:53Z</time>
      </trkpt>
      <trkpt lat="41.71736" lon="8.97551">
        <ele>365.92</ele>
        <time>2022-04-28T09:54:11Z</time>
      </trkpt>
      <trkpt lat="41.71748" lon="8.97573">
        <ele>364.96</ele>
        <time>2022-04-28T09:54:29Z</time>
      </trkpt>
      <trkpt lat="41.71758" lon="8.97595">
        <ele>364</ele>
        <time>2022-04-28T09:54:44Z</time>
      </trkpt>
      <trkpt lat="41.71768" lon="8.9761">
        <ele>363.04</ele>
        <time>2022-04-28T09:54:56Z</time>
      </trkpt>
      <trkpt lat="41.71767" lon="8.97615">
        <ele>362.55</ele>
        <time>2022-04-28T09:55:10Z</time>
      </trkpt>
      <trkpt lat="41.71769" lon="8.97618">
        <ele>363.04</ele>
        <time>2022-04-28T09:55:26Z</time>
      </trkpt>
      <trkpt lat="41.71781" lon="8.97615">
        <ele>362.07</ele>
        <time>2022-04-28T09:55:35Z</time>
      </trkpt>
      <trkpt lat="41.71797" lon="8.97613">
        <ele>360.63</ele>
        <time>2022-04-28T09:55:44Z</time>
      </trkpt>
      <trkpt lat="41.718" lon="8.97614">
        <ele>360.15</ele>
        <time>2022-04-28T09:55:46Z</time>
      </trkpt>
      <trkpt lat="41.71805" lon="8.9762">
        <ele>359.67</ele>
        <time>2022-04-28T09:55:50Z</time>
      </trkpt>
      <trkpt lat="41.71808" lon="8.97648">
        <ele>360.15</ele>
        <time>2022-04-28T09:56:06Z</time>
      </trkpt>
      <trkpt lat="41.71824" lon="8.97679">
        <ele>358.23</ele>
        <time>2022-04-28T09:56:26Z</time>
      </trkpt>
      <trkpt lat="41.71837" lon="8.97704">
        <ele>356.79</ele>
        <time>2022-04-28T09:56:42Z</time>
      </trkpt>
      <trkpt lat="41.7185" lon="8.97722">
        <ele>354.86</ele>
        <time>2022-04-28T09:56:56Z</time>
      </trkpt>
      <trkpt lat="41.71854" lon="8.97727">
        <ele>354.38</ele>
        <time>2022-04-28T09:57:00Z</time>
      </trkpt>
      <trkpt lat="41.71852" lon="8.97756">
        <ele>351.5</ele>
        <time>2022-04-28T09:57:17Z</time>
      </trkpt>
      <trkpt lat="41.71834" lon="8.97779">
        <ele>349.58</ele>
        <time>2022-04-28T09:57:35Z</time>
      </trkpt>
      <trkpt lat="41.71827" lon="8.97787">
        <ele>348.13</ele>
        <time>2022-04-28T09:57:49Z</time>
      </trkpt>
      <trkpt lat="41.71808" lon="8.97807">
        <ele>345.73</ele>
        <time>2022-04-28T09:58:09Z</time>
      </trkpt>
      <trkpt lat="41.71795" lon="8.97811">
        <ele>344.77</ele>
        <time>2022-04-28T09:58:22Z</time>
      </trkpt>
      <trkpt lat="41.71789" lon="8.97811">
        <ele>343.81</ele>
        <time>2022-04-28T09:58:28Z</time>
      </trkpt>
      <trkpt lat="41.71782" lon="8.97808">
        <ele>343.33</ele>
        <time>2022-04-28T09:58:39Z</time>
      </trkpt>
      <trkpt lat="41.71761" lon="8.97811">
        <ele>342.85</ele>
        <time>2022-04-28T09:58:54Z</time>
      </trkpt>
      <trkpt lat="41.71745" lon="8.97834">
        <ele>340.92</ele>
        <time>2022-04-28T09:59:12Z</time>
      </trkpt>
      <trkpt lat="41.71743" lon="8.97846">
        <ele>339.96</ele>
        <time>2022-04-28T09:59:19Z</time>
      </trkpt>
      <trkpt lat="41.71744" lon="8.97865">
        <ele>338.52</ele>
        <time>2022-04-28T09:59:35Z</time>
      </trkpt>
      <trkpt lat="41.71743" lon="8.97867">
        <ele>338.52</ele>
        <time>2022-04-28T09:59:54Z</time>
      </trkpt>
      <trkpt lat="41.71752" lon="8.97892">
        <ele>334.68</ele>
        <time>2022-04-28T10:00:09Z</time>
      </trkpt>
      <trkpt lat="41.71765" lon="8.97925">
        <ele>331.31</ele>
        <time>2022-04-28T10:00:28Z</time>
      </trkpt>
      <trkpt lat="41.71768" lon="8.97952">
        <ele>328.91</ele>
        <time>2022-04-28T10:00:44Z</time>
      </trkpt>
      <trkpt lat="41.71768" lon="8.97946">
        <ele>328.91</ele>
        <time>2022-04-28T10:01:00Z</time>
      </trkpt>
      <trkpt lat="41.71767" lon="8.97944">
        <ele>328.43</ele>
        <time>2022-04-28T10:01:08Z</time>
      </trkpt>
      <trkpt lat="41.7175" lon="8.97939">
        <ele>325.54</ele>
        <time>2022-04-28T10:01:22Z</time>
      </trkpt>
      <trkpt lat="41.71736" lon="8.97936">
        <ele>322.18</ele>
        <time>2022-04-28T10:01:33Z</time>
      </trkpt>
      <trkpt lat="41.71709" lon="8.97937">
        <ele>319.3</ele>
        <time>2022-04-28T10:01:53Z</time>
      </trkpt>
      <trkpt lat="41.71685" lon="8.97935">
        <ele>317.85</ele>
        <time>2022-04-28T10:02:05Z</time>
      </trkpt>
      <trkpt lat="41.71657" lon="8.97937">
        <ele>315.45</ele>
        <time>2022-04-28T10:02:19Z</time>
      </trkpt>
      <trkpt lat="41.71647" lon="8.97939">
        <ele>314.01</ele>
        <time>2022-04-28T10:02:30Z</time>
      </trkpt>
      <trkpt lat="41.7164" lon="8.97939">
        <ele>310.64</ele>
        <time>2022-04-28T10:02:40Z</time>
      </trkpt>
      <trkpt lat="41.71637" lon="8.97939">
        <ele>309.68</ele>
        <time>2022-04-28T10:02:46Z</time>
      </trkpt>
      <trkpt lat="41.71636" lon="8.9794">
        <ele>309.68</ele>
        <time>2022-04-28T10:02:47Z</time>
      </trkpt>
      <trkpt lat="41.71627" lon="8.97945">
        <ele>308.24</ele>
        <time>2022-04-28T10:02:51Z</time>
      </trkpt>
      <trkpt lat="41.71624" lon="8.97947">
        <ele>307.76</ele>
        <time>2022-04-28T10:02:52Z</time>
      </trkpt>
      <trkpt lat="41.71619" lon="8.97962">
        <ele>307.28</ele>
        <time>2022-04-28T10:02:57Z</time>
      </trkpt>
      <trkpt lat="41.71619" lon="8.97964">
        <ele>307.28</ele>
        <time>2022-04-28T10:02:58Z</time>
      </trkpt>
      <trkpt lat="41.71618" lon="8.97972">
        <ele>306.32</ele>
        <time>2022-04-28T10:03:04Z</time>
      </trkpt>
      <trkpt lat="41.71618" lon="8.97974">
        <ele>305.84</ele>
        <time>2022-04-28T10:03:05Z</time>
      </trkpt>
      <trkpt lat="41.71617" lon="8.97976">
        <ele>305.84</ele>
        <time>2022-04-28T10:03:06Z</time>
      </trkpt>
      <trkpt lat="41.71617" lon="8.97979">
        <ele>305.36</ele>
        <time>2022-04-28T10:03:07Z</time>
      </trkpt>
      <trkpt lat="41.71617" lon="8.97981">
        <ele>305.36</ele>
        <time>2022-04-28T10:03:08Z</time>
      </trkpt>
      <trkpt lat="41.71618" lon="8.97983">
        <ele>304.39</ele>
        <time>2022-04-28T10:03:17Z</time>
      </trkpt>
      <trkpt lat="41.71619" lon="8.97977">
        <ele>305.84</ele>
        <time>2022-04-28T10:03:42Z</time>
      </trkpt>
      <trkpt lat="41.71619" lon="8.97981">
        <ele>305.36</ele>
        <time>2022-04-28T10:04:09Z</time>
      </trkpt>
      <trkpt lat="41.71618" lon="8.97979">
        <ele>305.36</ele>
        <time>2022-04-28T10:04:28Z</time>
      </trkpt>
      <trkpt lat="41.71626" lon="8.97984">
        <ele>304.39</ele>
        <time>2022-04-28T10:04:40Z</time>
      </trkpt>
      <trkpt lat="41.71627" lon="8.97987">
        <ele>303.91</ele>
        <time>2022-04-28T10:04:56Z</time>
      </trkpt>
      <trkpt lat="41.71641" lon="8.97973">
        <ele>300.55</ele>
        <time>2022-04-28T10:05:12Z</time>
      </trkpt>
      <trkpt lat="41.71645" lon="8.97975">
        <ele>300.07</ele>
        <time>2022-04-28T10:05:16Z</time>
      </trkpt>
      <trkpt lat="41.71646" lon="8.97976">
        <ele>300.07</ele>
        <time>2022-04-28T10:05:17Z</time>
      </trkpt>
      <trkpt lat="41.71655" lon="8.97978">
        <ele>296.7</ele>
        <time>2022-04-28T10:05:27Z</time>
      </trkpt>
      <trkpt lat="41.71657" lon="8.97982">
        <ele>295.26</ele>
        <time>2022-04-28T10:05:33Z</time>
      </trkpt>
      <trkpt lat="41.71664" lon="8.97985">
        <ele>293.82</ele>
        <time>2022-04-28T10:05:40Z</time>
      </trkpt>
      <trkpt lat="41.71669" lon="8.9799">
        <ele>290.94</ele>
        <time>2022-04-28T10:05:54Z</time>
      </trkpt>
      <trkpt lat="41.71663" lon="8.97997">
        <ele>289.49</ele>
        <time>2022-04-28T10:06:01Z</time>
      </trkpt>
      <trkpt lat="41.71655" lon="8.98009">
        <ele>286.13</ele>
        <time>2022-04-28T10:06:12Z</time>
      </trkpt>
      <trkpt lat="41.71654" lon="8.98022">
        <ele>282.77</ele>
        <time>2022-04-28T10:06:25Z</time>
      </trkpt>
      <trkpt lat="41.71658" lon="8.98021">
        <ele>282.28</ele>
        <time>2022-04-28T10:06:29Z</time>
      </trkpt>
      <trkpt lat="41.7166" lon="8.98019">
        <ele>281.32</ele>
        <time>2022-04-28T10:06:46Z</time>
      </trkpt>
      <trkpt lat="41.71672" lon="8.98022">
        <ele>278.92</ele>
        <time>2022-04-28T10:07:08Z</time>
      </trkpt>
      <trkpt lat="41.71667" lon="8.98028">
        <ele>276.52</ele>
        <time>2022-04-28T10:07:17Z</time>
      </trkpt>
      <trkpt lat="41.71664" lon="8.98036">
        <ele>274.59</ele>
        <time>2022-04-28T10:07:23Z</time>
      </trkpt>
      <trkpt lat="41.71659" lon="8.98052">
        <ele>271.23</ele>
        <time>2022-04-28T10:07:34Z</time>
      </trkpt>
      <trkpt lat="41.71654" lon="8.98068">
        <ele>268.35</ele>
        <time>2022-04-28T10:07:47Z</time>
      </trkpt>
      <trkpt lat="41.71655" lon="8.98069">
        <ele>267.86</ele>
        <time>2022-04-28T10:07:48Z</time>
      </trkpt>
      <trkpt lat="41.71649" lon="8.98091">
        <ele>264.5</ele>
        <time>2022-04-28T10:08:02Z</time>
      </trkpt>
      <trkpt lat="41.71644" lon="8.98103">
        <ele>263.54</ele>
        <time>2022-04-28T10:08:12Z</time>
      </trkpt>
      <trkpt lat="41.71644" lon="8.9811">
        <ele>262.58</ele>
        <time>2022-04-28T10:08:29Z</time>
      </trkpt>
      <trkpt lat="41.71639" lon="8.98115">
        <ele>261.62</ele>
        <time>2022-04-28T10:08:52Z</time>
      </trkpt>
      <trkpt lat="41.71634" lon="8.98121">
        <ele>258.25</ele>
        <time>2022-04-28T10:09:02Z</time>
      </trkpt>
      <trkpt lat="41.71632" lon="8.98127">
        <ele>257.77</ele>
        <time>2022-04-28T10:09:06Z</time>
      </trkpt>
      <trkpt lat="41.71631" lon="8.98142">
        <ele>254.41</ele>
        <time>2022-04-28T10:09:16Z</time>
      </trkpt>
      <trkpt lat="41.7163" lon="8.98149">
        <ele>253.44</ele>
        <time>2022-04-28T10:09:21Z</time>
      </trkpt>
      <trkpt lat="41.7163" lon="8.9815">
        <ele>253.44</ele>
        <time>2022-04-28T10:09:22Z</time>
      </trkpt>
      <trkpt lat="41.71628" lon="8.98159">
        <ele>252.48</ele>
        <time>2022-04-28T10:09:28Z</time>
      </trkpt>
      <trkpt lat="41.71628" lon="8.98162">
        <ele>251.52</ele>
        <time>2022-04-28T10:09:30Z</time>
      </trkpt>
      <trkpt lat="41.71629" lon="8.98172">
        <ele>249.12</ele>
        <time>2022-04-28T10:09:38Z</time>
      </trkpt>
      <trkpt lat="41.71628" lon="8.98174">
        <ele>247.68</ele>
        <time>2022-04-28T10:09:40Z</time>
      </trkpt>
      <trkpt lat="41.71628" lon="8.98175">
        <ele>247.68</ele>
        <time>2022-04-28T10:09:41Z</time>
      </trkpt>
      <trkpt lat="41.71627" lon="8.98177">
        <ele>247.2</ele>
        <time>2022-04-28T10:09:42Z</time>
      </trkpt>
      <trkpt lat="41.71628" lon="8.98178">
        <ele>246.72</ele>
        <time>2022-04-28T10:09:43Z</time>
      </trkpt>
      <trkpt lat="41.71628" lon="8.9818">
        <ele>246.23</ele>
        <time>2022-04-28T10:09:44Z</time>
      </trkpt>
      <trkpt lat="41.7163" lon="8.9818">
        <ele>246.23</ele>
        <time>2022-04-28T10:09:45Z</time>
      </trkpt>
      <trkpt lat="41.71631" lon="8.9818">
        <ele>246.23</ele>
        <time>2022-04-28T10:09:46Z</time>
      </trkpt>
      <trkpt lat="41.71632" lon="8.9818">
        <ele>245.75</ele>
        <time>2022-04-28T10:09:47Z</time>
      </trkpt>
      <trkpt lat="41.71633" lon="8.9818">
        <ele>246.23</ele>
        <time>2022-04-28T10:09:48Z</time>
      </trkpt>
      <trkpt lat="41.71636" lon="8.98185">
        <ele>242.87</ele>
        <time>2022-04-28T10:09:58Z</time>
      </trkpt>
      <trkpt lat="41.71636" lon="8.98186">
        <ele>242.87</ele>
        <time>2022-04-28T10:09:59Z</time>
      </trkpt>
      <trkpt lat="41.71635" lon="8.98188">
        <ele>242.39</ele>
        <time>2022-04-28T10:10:00Z</time>
      </trkpt>
      <trkpt lat="41.71635" lon="8.98189">
        <ele>241.91</ele>
        <time>2022-04-28T10:10:01Z</time>
      </trkpt>
      <trkpt lat="41.71631" lon="8.98194">
        <ele>240.47</ele>
        <time>2022-04-28T10:10:05Z</time>
      </trkpt>
      <trkpt lat="41.7163" lon="8.98194">
        <ele>240.47</ele>
        <time>2022-04-28T10:10:06Z</time>
      </trkpt>
      <trkpt lat="41.71627" lon="8.98194">
        <ele>240.47</ele>
        <time>2022-04-28T10:10:21Z</time>
      </trkpt>
      <trkpt lat="41.71625" lon="8.98192">
        <ele>239.51</ele>
        <time>2022-04-28T10:10:27Z</time>
      </trkpt>
      <trkpt lat="41.71623" lon="8.98191">
        <ele>239.02</ele>
        <time>2022-04-28T10:10:29Z</time>
      </trkpt>
      <trkpt lat="41.71609" lon="8.98184">
        <ele>237.1</ele>
        <time>2022-04-28T10:10:42Z</time>
      </trkpt>
      <trkpt lat="41.71606" lon="8.98181">
        <ele>236.62</ele>
        <time>2022-04-28T10:10:45Z</time>
      </trkpt>
      <trkpt lat="41.71606" lon="8.9818">
        <ele>236.62</ele>
        <time>2022-04-28T10:10:46Z</time>
      </trkpt>
      <trkpt lat="41.71602" lon="8.98173">
        <ele>234.7</ele>
        <time>2022-04-28T10:10:57Z</time>
      </trkpt>
      <trkpt lat="41.716" lon="8.98169">
        <ele>234.22</ele>
        <time>2022-04-28T10:11:00Z</time>
      </trkpt>
      <trkpt lat="41.71599" lon="8.98168">
        <ele>234.22</ele>
        <time>2022-04-28T10:11:01Z</time>
      </trkpt>
      <trkpt lat="41.71587" lon="8.98155">
        <ele>233.74</ele>
        <time>2022-04-28T10:11:14Z</time>
      </trkpt>
      <trkpt lat="41.71561" lon="8.98145">
        <ele>232.3</ele>
        <time>2022-04-28T10:11:35Z</time>
      </trkpt>
      <trkpt lat="41.71538" lon="8.98134">
        <ele>231.81</ele>
        <time>2022-04-28T10:11:52Z</time>
      </trkpt>
      <trkpt lat="41.71522" lon="8.98131">
        <ele>229.41</ele>
        <time>2022-04-28T10:12:06Z</time>
      </trkpt>
      <trkpt lat="41.7151" lon="8.98134">
        <ele>227.97</ele>
        <time>2022-04-28T10:12:19Z</time>
      </trkpt>
      <trkpt lat="41.71503" lon="8.98128">
        <ele>226.05</ele>
        <time>2022-04-28T10:12:31Z</time>
      </trkpt>
      <trkpt lat="41.71499" lon="8.98125">
        <ele>224.12</ele>
        <time>2022-04-28T10:12:40Z</time>
      </trkpt>
      <trkpt lat="41.7149" lon="8.98121">
        <ele>222.68</ele>
        <time>2022-04-28T10:12:45Z</time>
      </trkpt>
      <trkpt lat="41.71476" lon="8.98103">
        <ele>220.76</ele>
        <time>2022-04-28T10:12:56Z</time>
      </trkpt>
      <trkpt lat="41.7147" lon="8.98096">
        <ele>218.36</ele>
        <time>2022-04-28T10:13:08Z</time>
      </trkpt>
      <trkpt lat="41.71466" lon="8.9809">
        <ele>218.36</ele>
        <time>2022-04-28T10:13:13Z</time>
      </trkpt>
      <trkpt lat="41.71464" lon="8.98088">
        <ele>217.88</ele>
        <time>2022-04-28T10:13:14Z</time>
      </trkpt>
      <trkpt lat="41.71452" lon="8.98066">
        <ele>215.95</ele>
        <time>2022-04-28T10:13:26Z</time>
      </trkpt>
      <trkpt lat="41.71448" lon="8.98057">
        <ele>215.95</ele>
        <time>2022-04-28T10:13:31Z</time>
      </trkpt>
      <trkpt lat="41.71434" lon="8.9803">
        <ele>214.51</ele>
        <time>2022-04-28T10:13:50Z</time>
      </trkpt>
      <trkpt lat="41.7143" lon="8.98027">
        <ele>213.07</ele>
        <time>2022-04-28T10:13:53Z</time>
      </trkpt>
      <trkpt lat="41.71413" lon="8.98014">
        <ele>211.63</ele>
        <time>2022-04-28T10:14:08Z</time>
      </trkpt>
      <trkpt lat="41.71398" lon="8.98005">
        <ele>210.67</ele>
        <time>2022-04-28T10:14:19Z</time>
      </trkpt>
      <trkpt lat="41.71389" lon="8.97996">
        <ele>209.22</ele>
        <time>2022-04-28T10:14:26Z</time>
      </trkpt>
      <trkpt lat="41.71387" lon="8.97996">
        <ele>209.22</ele>
        <time>2022-04-28T10:14:27Z</time>
      </trkpt>
      <trkpt lat="41.71385" lon="8.97996">
        <ele>208.26</ele>
        <time>2022-04-28T10:14:28Z</time>
      </trkpt>
      <trkpt lat="41.71384" lon="8.98005">
        <ele>207.78</ele>
        <time>2022-04-28T10:14:35Z</time>
      </trkpt>
      <trkpt lat="41.71379" lon="8.9801">
        <ele>206.82</ele>
        <time>2022-04-28T10:14:40Z</time>
      </trkpt>
      <trkpt lat="41.71377" lon="8.98004">
        <ele>205.38</ele>
        <time>2022-04-28T10:14:54Z</time>
      </trkpt>
      <trkpt lat="41.71375" lon="8.98001">
        <ele>203.94</ele>
        <time>2022-04-28T10:15:01Z</time>
      </trkpt>
      <trkpt lat="41.71369" lon="8.98011">
        <ele>201.05</ele>
        <time>2022-04-28T10:15:11Z</time>
      </trkpt>
      <trkpt lat="41.7137" lon="8.98012">
        <ele>201.05</ele>
        <time>2022-04-28T10:15:12Z</time>
      </trkpt>
      <trkpt lat="41.71369" lon="8.98012">
        <ele>198.65</ele>
        <time>2022-04-28T10:15:21Z</time>
      </trkpt>
      <trkpt lat="41.71354" lon="8.98012">
        <ele>196.25</ele>
        <time>2022-04-28T10:15:33Z</time>
      </trkpt>
      <trkpt lat="41.71337" lon="8.9801">
        <ele>196.73</ele>
        <time>2022-04-28T10:15:44Z</time>
      </trkpt>
      <trkpt lat="41.71328" lon="8.98012">
        <ele>196.25</ele>
        <time>2022-04-28T10:15:50Z</time>
      </trkpt>
      <trkpt lat="41.71325" lon="8.98019">
        <ele>194.8</ele>
        <time>2022-04-28T10:16:03Z</time>
      </trkpt>
      <trkpt lat="41.71324" lon="8.9802">
        <ele>194.8</ele>
        <time>2022-04-28T10:16:04Z</time>
      </trkpt>
      <trkpt lat="41.71323" lon="8.98027">
        <ele>193.36</ele>
        <time>2022-04-28T10:16:13Z</time>
      </trkpt>
      <trkpt lat="41.7132" lon="8.98033">
        <ele>192.88</ele>
        <time>2022-04-28T10:16:16Z</time>
      </trkpt>
      <trkpt lat="41.71318" lon="8.98037">
        <ele>193.36</ele>
        <time>2022-04-28T10:16:17Z</time>
      </trkpt>
      <trkpt lat="41.71317" lon="8.98041">
        <ele>192.4</ele>
        <time>2022-04-28T10:16:25Z</time>
      </trkpt>
      <trkpt lat="41.71317" lon="8.98043">
        <ele>190.96</ele>
        <time>2022-04-28T10:16:40Z</time>
      </trkpt>
      <trkpt lat="41.71311" lon="8.9805">
        <ele>189.52</ele>
        <time>2022-04-28T10:16:48Z</time>
      </trkpt>
      <trkpt lat="41.71305" lon="8.98055">
        <ele>186.63</ele>
        <time>2022-04-28T10:16:55Z</time>
      </trkpt>
      <trkpt lat="41.71305" lon="8.98055">
        <ele>186.63</ele>
        <time>2022-04-28T10:17:01Z</time>
      </trkpt>
      <trkpt lat="41.71294" lon="8.98054">
        <ele>187.11</ele>
        <time>2022-04-28T10:17:24Z</time>
      </trkpt>
      <trkpt lat="41.71273" lon="8.98049">
        <ele>188.56</ele>
        <time>2022-04-28T10:17:43Z</time>
      </trkpt>
      <trkpt lat="41.71271" lon="8.98048">
        <ele>188.56</ele>
        <time>2022-04-28T10:17:44Z</time>
      </trkpt>
      <trkpt lat="41.71251" lon="8.98046">
        <ele>185.19</ele>
        <time>2022-04-28T10:18:00Z</time>
      </trkpt>
      <trkpt lat="41.71245" lon="8.98048">
        <ele>182.79</ele>
        <time>2022-04-28T10:18:05Z</time>
      </trkpt>
      <trkpt lat="41.71244" lon="8.9805">
        <ele>182.31</ele>
        <time>2022-04-28T10:18:06Z</time>
      </trkpt>
      <trkpt lat="41.71244" lon="8.98052">
        <ele>182.31</ele>
        <time>2022-04-28T10:18:07Z</time>
      </trkpt>
      <trkpt lat="41.71242" lon="8.98053">
        <ele>181.35</ele>
        <time>2022-04-28T10:18:08Z</time>
      </trkpt>
      <trkpt lat="41.71241" lon="8.98054">
        <ele>181.35</ele>
        <time>2022-04-28T10:18:09Z</time>
      </trkpt>
      <trkpt lat="41.71237" lon="8.98055">
        <ele>179.9</ele>
        <time>2022-04-28T10:18:12Z</time>
      </trkpt>
      <trkpt lat="41.71225" lon="8.98054">
        <ele>177.98</ele>
        <time>2022-04-28T10:18:23Z</time>
      </trkpt>
      <trkpt lat="41.71224" lon="8.98054">
        <ele>177.02</ele>
        <time>2022-04-28T10:18:24Z</time>
      </trkpt>
      <trkpt lat="41.71222" lon="8.98054">
        <ele>176.54</ele>
        <time>2022-04-28T10:18:25Z</time>
      </trkpt>
      <trkpt lat="41.7122" lon="8.98053">
        <ele>176.06</ele>
        <time>2022-04-28T10:18:26Z</time>
      </trkpt>
      <trkpt lat="41.71215" lon="8.98051">
        <ele>175.1</ele>
        <time>2022-04-28T10:18:31Z</time>
      </trkpt>
      <trkpt lat="41.71214" lon="8.9805">
        <ele>175.1</ele>
        <time>2022-04-28T10:18:32Z</time>
      </trkpt>
      <trkpt lat="41.71213" lon="8.98049">
        <ele>174.14</ele>
        <time>2022-04-28T10:18:33Z</time>
      </trkpt>
      <trkpt lat="41.71211" lon="8.98048">
        <ele>173.17</ele>
        <time>2022-04-28T10:18:36Z</time>
      </trkpt>
      <trkpt lat="41.7121" lon="8.98049">
        <ele>172.69</ele>
        <time>2022-04-28T10:18:37Z</time>
      </trkpt>
      <trkpt lat="41.71208" lon="8.9805">
        <ele>171.73</ele>
        <time>2022-04-28T10:18:38Z</time>
      </trkpt>
      <trkpt lat="41.71207" lon="8.9805">
        <ele>171.73</ele>
        <time>2022-04-28T10:18:39Z</time>
      </trkpt>
      <trkpt lat="41.71206" lon="8.98051">
        <ele>171.73</ele>
        <time>2022-04-28T10:18:40Z</time>
      </trkpt>
      <trkpt lat="41.71205" lon="8.98051">
        <ele>171.73</ele>
        <time>2022-04-28T10:18:41Z</time>
      </trkpt>
      <trkpt lat="41.71203" lon="8.98052">
        <ele>171.25</ele>
        <time>2022-04-28T10:18:42Z</time>
      </trkpt>
      <trkpt lat="41.71202" lon="8.98053">
        <ele>170.77</ele>
        <time>2022-04-28T10:18:43Z</time>
      </trkpt>
      <trkpt lat="41.71201" lon="8.98053">
        <ele>170.29</ele>
        <time>2022-04-28T10:18:44Z</time>
      </trkpt>
      <trkpt lat="41.71185" lon="8.98067">
        <ele>166.93</ele>
        <time>2022-04-28T10:18:58Z</time>
      </trkpt>
      <trkpt lat="41.71175" lon="8.98085">
        <ele>164.04</ele>
        <time>2022-04-28T10:19:10Z</time>
      </trkpt>
      <trkpt lat="41.71168" lon="8.98096">
        <ele>161.16</ele>
        <time>2022-04-28T10:19:20Z</time>
      </trkpt>
      <trkpt lat="41.71155" lon="8.98107">
        <ele>158.75</ele>
        <time>2022-04-28T10:19:32Z</time>
      </trkpt>
      <trkpt lat="41.7115" lon="8.9811">
        <ele>156.83</ele>
        <time>2022-04-28T10:19:36Z</time>
      </trkpt>
      <trkpt lat="41.71138" lon="8.98118">
        <ele>153.95</ele>
        <time>2022-04-28T10:19:46Z</time>
      </trkpt>
      <trkpt lat="41.71128" lon="8.98125">
        <ele>152.03</ele>
        <time>2022-04-28T10:20:04Z</time>
      </trkpt>
      <trkpt lat="41.71116" lon="8.98127">
        <ele>149.14</ele>
        <time>2022-04-28T10:20:15Z</time>
      </trkpt>
      <trkpt lat="41.71103" lon="8.98134">
        <ele>145.78</ele>
        <time>2022-04-28T10:20:27Z</time>
      </trkpt>
      <trkpt lat="41.71098" lon="8.98148">
        <ele>142.41</ele>
        <time>2022-04-28T10:20:43Z</time>
      </trkpt>
      <trkpt lat="41.71096" lon="8.98159">
        <ele>138.57</ele>
        <time>2022-04-28T10:20:58Z</time>
      </trkpt>
      <trkpt lat="41.71094" lon="8.98171">
        <ele>135.2</ele>
        <time>2022-04-28T10:21:10Z</time>
      </trkpt>
      <trkpt lat="41.71085" lon="8.9818">
        <ele>132.32</ele>
        <time>2022-04-28T10:21:21Z</time>
      </trkpt>
      <trkpt lat="41.71083" lon="8.9819">
        <ele>128.95</ele>
        <time>2022-04-28T10:21:34Z</time>
      </trkpt>
      <trkpt lat="41.71082" lon="8.98197">
        <ele>126.07</ele>
        <time>2022-04-28T10:21:42Z</time>
      </trkpt>
      <trkpt lat="41.71074" lon="8.98199">
        <ele>122.71</ele>
        <time>2022-04-28T10:21:52Z</time>
      </trkpt>
      <trkpt lat="41.71074" lon="8.98201">
        <ele>122.22</ele>
        <time>2022-04-28T10:21:53Z</time>
      </trkpt>
      <trkpt lat="41.71071" lon="8.98208">
        <ele>118.86</ele>
        <time>2022-04-28T10:22:02Z</time>
      </trkpt>
      <trkpt lat="41.71067" lon="8.98226">
        <ele>117.9</ele>
        <time>2022-04-28T10:22:29Z</time>
      </trkpt>
      <trkpt lat="41.71064" lon="8.9822">
        <ele>115.98</ele>
        <time>2022-04-28T10:22:48Z</time>
      </trkpt>
      <trkpt lat="41.7106" lon="8.98224">
        <ele>112.61</ele>
        <time>2022-04-28T10:23:00Z</time>
      </trkpt>
      <trkpt lat="41.71062" lon="8.98232">
        <ele>109.25</ele>
        <time>2022-04-28T10:23:15Z</time>
      </trkpt>
      <trkpt lat="41.71058" lon="8.98234">
        <ele>108.29</ele>
        <time>2022-04-28T10:23:19Z</time>
      </trkpt>
      <trkpt lat="41.71051" lon="8.98238">
        <ele>104.92</ele>
        <time>2022-04-28T10:23:28Z</time>
      </trkpt>
      <trkpt lat="41.71041" lon="8.98244">
        <ele>102.04</ele>
        <time>2022-04-28T10:23:39Z</time>
      </trkpt>
      <trkpt lat="41.71037" lon="8.98248">
        <ele>102.04</ele>
        <time>2022-04-28T10:23:58Z</time>
      </trkpt>
      <trkpt lat="41.71039" lon="8.98247">
        <ele>101.56</ele>
        <time>2022-04-28T10:24:27Z</time>
      </trkpt>
      <trkpt lat="41.71041" lon="8.98254">
        <ele>101.08</ele>
        <time>2022-04-28T10:24:45Z</time>
      </trkpt>
      <trkpt lat="41.71047" lon="8.9826">
        <ele>101.08</ele>
        <time>2022-04-28T10:25:04Z</time>
      </trkpt>
      <trkpt lat="41.7103" lon="8.98262">
        <ele>101.08</ele>
        <time>2022-04-28T10:25:21Z</time>
      </trkpt>
      <trkpt lat="41.71027" lon="8.98264">
        <ele>100.6</ele>
        <time>2022-04-28T10:25:40Z</time>
      </trkpt>
      <trkpt lat="41.71022" lon="8.98261">
        <ele>99.63</ele>
        <time>2022-04-28T10:25:55Z</time>
      </trkpt>
      <trkpt lat="41.71022" lon="8.98251">
        <ele>100.11</ele>
        <time>2022-04-28T10:26:12Z</time>
      </trkpt>
      <trkpt lat="41.71014" lon="8.98245">
        <ele>100.11</ele>
        <time>2022-04-28T10:26:27Z</time>
      </trkpt>
      <trkpt lat="41.71008" lon="8.98248">
        <ele>99.15</ele>
        <time>2022-04-28T10:26:43Z</time>
      </trkpt>
      <trkpt lat="41.71012" lon="8.98257">
        <ele>99.63</ele>
        <time>2022-04-28T10:27:05Z</time>
      </trkpt>
      <trkpt lat="41.71015" lon="8.98259">
        <ele>97.71</ele>
        <time>2022-04-28T10:27:11Z</time>
      </trkpt>
      <trkpt lat="41.71007" lon="8.9825">
        <ele>73.2</ele>
        <time>2022-04-28T11:07:10Z</time>
      </trkpt>
      <trkpt lat="41.71007" lon="8.98252">
        <ele>74.16</ele>
        <time>2022-04-28T11:07:11Z</time>
      </trkpt>
      <trkpt lat="41.71005" lon="8.98245">
        <ele>74.16</ele>
        <time>2022-04-28T11:07:32Z</time>
      </trkpt>
      <trkpt lat="41.70998" lon="8.98246">
        <ele>73.68</ele>
        <time>2022-04-28T11:07:46Z</time>
      </trkpt>
      <trkpt lat="41.70987" lon="8.98243">
        <ele>74.16</ele>
        <time>2022-04-28T11:08:02Z</time>
      </trkpt>
      <trkpt lat="41.7098" lon="8.98248">
        <ele>73.2</ele>
        <time>2022-04-28T11:08:19Z</time>
      </trkpt>
      <trkpt lat="41.7097" lon="8.98252">
        <ele>72.72</ele>
        <time>2022-04-28T11:08:43Z</time>
      </trkpt>
      <trkpt lat="41.70963" lon="8.98251">
        <ele>75.12</ele>
        <time>2022-04-28T11:09:04Z</time>
      </trkpt>
      <trkpt lat="41.70958" lon="8.98255">
        <ele>78</ele>
        <time>2022-04-28T11:09:20Z</time>
      </trkpt>
      <trkpt lat="41.70956" lon="8.98263">
        <ele>79.45</ele>
        <time>2022-04-28T11:09:33Z</time>
      </trkpt>
      <trkpt lat="41.70956" lon="8.98271">
        <ele>78.97</ele>
        <time>2022-04-28T11:09:38Z</time>
      </trkpt>
      <trkpt lat="41.70949" lon="8.9829">
        <ele>76.56</ele>
        <time>2022-04-28T11:09:52Z</time>
      </trkpt>
      <trkpt lat="41.70946" lon="8.98311">
        <ele>74.16</ele>
        <time>2022-04-28T11:10:09Z</time>
      </trkpt>
      <trkpt lat="41.7094" lon="8.98328">
        <ele>73.68</ele>
        <time>2022-04-28T11:10:25Z</time>
      </trkpt>
      <trkpt lat="41.7094" lon="8.98332">
        <ele>73.68</ele>
        <time>2022-04-28T11:10:28Z</time>
      </trkpt>
      <trkpt lat="41.7094" lon="8.9835">
        <ele>73.68</ele>
        <time>2022-04-28T11:10:47Z</time>
      </trkpt>
      <trkpt lat="41.70947" lon="8.98359">
        <ele>74.64</ele>
        <time>2022-04-28T11:11:03Z</time>
      </trkpt>
      <trkpt lat="41.70949" lon="8.98361">
        <ele>77.52</ele>
        <time>2022-04-28T11:11:14Z</time>
      </trkpt>
      <trkpt lat="41.70957" lon="8.98361">
        <ele>80.89</ele>
        <time>2022-04-28T11:11:34Z</time>
      </trkpt>
      <trkpt lat="41.70953" lon="8.9837">
        <ele>83.29</ele>
        <time>2022-04-28T11:11:50Z</time>
      </trkpt>
      <trkpt lat="41.7094" lon="8.98375">
        <ele>85.69</ele>
        <time>2022-04-28T11:12:06Z</time>
      </trkpt>
      <trkpt lat="41.70926" lon="8.98374">
        <ele>87.14</ele>
        <time>2022-04-28T11:12:24Z</time>
      </trkpt>
      <trkpt lat="41.70907" lon="8.9837">
        <ele>86.66</ele>
        <time>2022-04-28T11:12:45Z</time>
      </trkpt>
      <trkpt lat="41.70889" lon="8.98358">
        <ele>85.21</ele>
        <time>2022-04-28T11:13:04Z</time>
      </trkpt>
      <trkpt lat="41.70875" lon="8.98341">
        <ele>82.33</ele>
        <time>2022-04-28T11:13:22Z</time>
      </trkpt>
      <trkpt lat="41.70861" lon="8.98322">
        <ele>86.18</ele>
        <time>2022-04-28T11:13:39Z</time>
      </trkpt>
      <trkpt lat="41.70859" lon="8.9832">
        <ele>89.54</ele>
        <time>2022-04-28T11:13:41Z</time>
      </trkpt>
      <trkpt lat="41.70857" lon="8.98318">
        <ele>93.39</ele>
        <time>2022-04-28T11:13:44Z</time>
      </trkpt>
      <trkpt lat="41.70853" lon="8.98317">
        <ele>96.75</ele>
        <time>2022-04-28T11:13:47Z</time>
      </trkpt>
      <trkpt lat="41.70848" lon="8.98314">
        <ele>100.11</ele>
        <time>2022-04-28T11:13:50Z</time>
      </trkpt>
      <trkpt lat="41.70842" lon="8.98314">
        <ele>103.96</ele>
        <time>2022-04-28T11:13:54Z</time>
      </trkpt>
      <trkpt lat="41.70839" lon="8.98314">
        <ele>104.92</ele>
        <time>2022-04-28T11:13:56Z</time>
      </trkpt>
      <trkpt lat="41.70837" lon="8.98315">
        <ele>107.81</ele>
        <time>2022-04-28T11:13:58Z</time>
      </trkpt>
      <trkpt lat="41.70835" lon="8.98317">
        <ele>111.65</ele>
        <time>2022-04-28T11:14:02Z</time>
      </trkpt>
      <trkpt lat="41.70834" lon="8.98319">
        <ele>115.01</ele>
        <time>2022-04-28T11:14:06Z</time>
      </trkpt>
      <trkpt lat="41.70832" lon="8.98322">
        <ele>117.9</ele>
        <time>2022-04-28T11:14:11Z</time>
      </trkpt>
      <trkpt lat="41.70831" lon="8.98323">
        <ele>117.9</ele>
        <time>2022-04-28T11:14:12Z</time>
      </trkpt>
      <trkpt lat="41.70829" lon="8.98327">
        <ele>120.3</ele>
        <time>2022-04-28T11:14:16Z</time>
      </trkpt>
      <trkpt lat="41.70828" lon="8.98328">
        <ele>121.74</ele>
        <time>2022-04-28T11:14:18Z</time>
      </trkpt>
      <trkpt lat="41.70826" lon="8.98332">
        <ele>123.19</ele>
        <time>2022-04-28T11:14:22Z</time>
      </trkpt>
      <trkpt lat="41.70825" lon="8.98336">
        <ele>124.15</ele>
        <time>2022-04-28T11:14:25Z</time>
      </trkpt>
      <trkpt lat="41.70822" lon="8.9835">
        <ele>127.51</ele>
        <time>2022-04-28T11:14:37Z</time>
      </trkpt>
      <trkpt lat="41.70813" lon="8.9837">
        <ele>128.47</ele>
        <time>2022-04-28T11:14:54Z</time>
      </trkpt>
      <trkpt lat="41.70805" lon="8.98398">
        <ele>130.4</ele>
        <time>2022-04-28T11:15:15Z</time>
      </trkpt>
      <trkpt lat="41.70801" lon="8.98421">
        <ele>132.32</ele>
        <time>2022-04-28T11:15:34Z</time>
      </trkpt>
      <trkpt lat="41.70789" lon="8.9844">
        <ele>129.43</ele>
        <time>2022-04-28T11:15:53Z</time>
      </trkpt>
      <trkpt lat="41.70782" lon="8.98452">
        <ele>129.92</ele>
        <time>2022-04-28T11:16:07Z</time>
      </trkpt>
      <trkpt lat="41.70772" lon="8.98461">
        <ele>132.32</ele>
        <time>2022-04-28T11:16:23Z</time>
      </trkpt>
      <trkpt lat="41.70766" lon="8.9847">
        <ele>135.2</ele>
        <time>2022-04-28T11:16:40Z</time>
      </trkpt>
      <trkpt lat="41.70762" lon="8.98463">
        <ele>138.57</ele>
        <time>2022-04-28T11:16:58Z</time>
      </trkpt>
      <trkpt lat="41.70752" lon="8.98459">
        <ele>140.97</ele>
        <time>2022-04-28T11:17:15Z</time>
      </trkpt>
      <trkpt lat="41.70743" lon="8.9846">
        <ele>143.85</ele>
        <time>2022-04-28T11:17:28Z</time>
      </trkpt>
      <trkpt lat="41.70736" lon="8.98464">
        <ele>146.74</ele>
        <time>2022-04-28T11:17:43Z</time>
      </trkpt>
      <trkpt lat="41.70736" lon="8.98471">
        <ele>148.66</ele>
        <time>2022-04-28T11:18:00Z</time>
      </trkpt>
      <trkpt lat="41.7074" lon="8.98477">
        <ele>151.54</ele>
        <time>2022-04-28T11:18:15Z</time>
      </trkpt>
      <trkpt lat="41.70739" lon="8.98491">
        <ele>153.95</ele>
        <time>2022-04-28T11:18:29Z</time>
      </trkpt>
      <trkpt lat="41.70735" lon="8.98487">
        <ele>156.83</ele>
        <time>2022-04-28T11:18:44Z</time>
      </trkpt>
      <trkpt lat="41.70733" lon="8.98496">
        <ele>159.24</ele>
        <time>2022-04-28T11:19:02Z</time>
      </trkpt>
      <trkpt lat="41.70722" lon="8.98496">
        <ele>161.64</ele>
        <time>2022-04-28T11:19:20Z</time>
      </trkpt>
      <trkpt lat="41.7072" lon="8.98511">
        <ele>164.04</ele>
        <time>2022-04-28T11:19:37Z</time>
      </trkpt>
      <trkpt lat="41.70713" lon="8.98514">
        <ele>167.41</ele>
        <time>2022-04-28T11:19:55Z</time>
      </trkpt>
      <trkpt lat="41.70707" lon="8.98514">
        <ele>169.33</ele>
        <time>2022-04-28T11:20:11Z</time>
      </trkpt>
      <trkpt lat="41.70699" lon="8.98518">
        <ele>172.69</ele>
        <time>2022-04-28T11:20:28Z</time>
      </trkpt>
      <trkpt lat="41.70691" lon="8.98523">
        <ele>175.1</ele>
        <time>2022-04-28T11:20:44Z</time>
      </trkpt>
      <trkpt lat="41.70685" lon="8.98526">
        <ele>177.5</ele>
        <time>2022-04-28T11:20:59Z</time>
      </trkpt>
      <trkpt lat="41.70688" lon="8.98532">
        <ele>180.38</ele>
        <time>2022-04-28T11:21:18Z</time>
      </trkpt>
      <trkpt lat="41.70695" lon="8.9854">
        <ele>182.31</ele>
        <time>2022-04-28T11:21:37Z</time>
      </trkpt>
      <trkpt lat="41.707" lon="8.98551">
        <ele>185.19</ele>
        <time>2022-04-28T11:21:54Z</time>
      </trkpt>
      <trkpt lat="41.70699" lon="8.98559">
        <ele>187.59</ele>
        <time>2022-04-28T11:22:12Z</time>
      </trkpt>
      <trkpt lat="41.70698" lon="8.98566">
        <ele>189.52</ele>
        <time>2022-04-28T11:22:26Z</time>
      </trkpt>
      <trkpt lat="41.70698" lon="8.9858">
        <ele>192.88</ele>
        <time>2022-04-28T11:22:43Z</time>
      </trkpt>
      <trkpt lat="41.70695" lon="8.98589">
        <ele>195.28</ele>
        <time>2022-04-28T11:23:02Z</time>
      </trkpt>
      <trkpt lat="41.7069" lon="8.98585">
        <ele>198.17</ele>
        <time>2022-04-28T11:23:21Z</time>
      </trkpt>
      <trkpt lat="41.70686" lon="8.98587">
        <ele>200.57</ele>
        <time>2022-04-28T11:23:37Z</time>
      </trkpt>
      <trkpt lat="41.70683" lon="8.98597">
        <ele>202.98</ele>
        <time>2022-04-28T11:23:54Z</time>
      </trkpt>
      <trkpt lat="41.70678" lon="8.98604">
        <ele>205.38</ele>
        <time>2022-04-28T11:24:11Z</time>
      </trkpt>
      <trkpt lat="41.70675" lon="8.98614">
        <ele>208.26</ele>
        <time>2022-04-28T11:24:31Z</time>
      </trkpt>
      <trkpt lat="41.70672" lon="8.9861">
        <ele>210.67</ele>
        <time>2022-04-28T11:24:48Z</time>
      </trkpt>
      <trkpt lat="41.70666" lon="8.98601">
        <ele>212.59</ele>
        <time>2022-04-28T11:25:05Z</time>
      </trkpt>
      <trkpt lat="41.7066" lon="8.98605">
        <ele>214.99</ele>
        <time>2022-04-28T11:25:21Z</time>
      </trkpt>
      <trkpt lat="41.70655" lon="8.98606">
        <ele>217.88</ele>
        <time>2022-04-28T11:25:39Z</time>
      </trkpt>
      <trkpt lat="41.7065" lon="8.98609">
        <ele>220.28</ele>
        <time>2022-04-28T11:25:55Z</time>
      </trkpt>
      <trkpt lat="41.70646" lon="8.9861">
        <ele>222.68</ele>
        <time>2022-04-28T11:26:12Z</time>
      </trkpt>
      <trkpt lat="41.70636" lon="8.9861">
        <ele>225.57</ele>
        <time>2022-04-28T11:26:32Z</time>
      </trkpt>
      <trkpt lat="41.70626" lon="8.98609">
        <ele>228.45</ele>
        <time>2022-04-28T11:26:49Z</time>
      </trkpt>
      <trkpt lat="41.70627" lon="8.98618">
        <ele>230.85</ele>
        <time>2022-04-28T11:27:07Z</time>
      </trkpt>
      <trkpt lat="41.7063" lon="8.98627">
        <ele>234.7</ele>
        <time>2022-04-28T11:27:23Z</time>
      </trkpt>
      <trkpt lat="41.70633" lon="8.98632">
        <ele>235.18</ele>
        <time>2022-04-28T11:27:42Z</time>
      </trkpt>
      <trkpt lat="41.70634" lon="8.98644">
        <ele>235.18</ele>
        <time>2022-04-28T11:28:06Z</time>
      </trkpt>
      <trkpt lat="41.70632" lon="8.9866">
        <ele>237.1</ele>
        <time>2022-04-28T11:28:23Z</time>
      </trkpt>
      <trkpt lat="41.70626" lon="8.98655">
        <ele>239.99</ele>
        <time>2022-04-28T11:28:34Z</time>
      </trkpt>
      <trkpt lat="41.70621" lon="8.98646">
        <ele>241.91</ele>
        <time>2022-04-28T11:28:51Z</time>
      </trkpt>
      <trkpt lat="41.70618" lon="8.98656">
        <ele>244.79</ele>
        <time>2022-04-28T11:29:05Z</time>
      </trkpt>
      <trkpt lat="41.70612" lon="8.98657">
        <ele>247.68</ele>
        <time>2022-04-28T11:29:23Z</time>
      </trkpt>
      <trkpt lat="41.70607" lon="8.98645">
        <ele>248.64</ele>
        <time>2022-04-28T11:29:39Z</time>
      </trkpt>
      <trkpt lat="41.70601" lon="8.98647">
        <ele>251.04</ele>
        <time>2022-04-28T11:29:54Z</time>
      </trkpt>
      <trkpt lat="41.70586" lon="8.98645">
        <ele>252.48</ele>
        <time>2022-04-28T11:30:10Z</time>
      </trkpt>
      <trkpt lat="41.70569" lon="8.98647">
        <ele>253.44</ele>
        <time>2022-04-28T11:30:28Z</time>
      </trkpt>
      <trkpt lat="41.70553" lon="8.98648">
        <ele>256.81</ele>
        <time>2022-04-28T11:30:48Z</time>
      </trkpt>
      <trkpt lat="41.70542" lon="8.98642">
        <ele>256.33</ele>
        <time>2022-04-28T11:31:02Z</time>
      </trkpt>
      <trkpt lat="41.70537" lon="8.98637">
        <ele>257.77</ele>
        <time>2022-04-28T11:31:15Z</time>
      </trkpt>
      <trkpt lat="41.70536" lon="8.98626">
        <ele>260.17</ele>
        <time>2022-04-28T11:31:30Z</time>
      </trkpt>
      <trkpt lat="41.70528" lon="8.98633">
        <ele>262.1</ele>
        <time>2022-04-28T11:31:45Z</time>
      </trkpt>
      <trkpt lat="41.70525" lon="8.98625">
        <ele>264.98</ele>
        <time>2022-04-28T11:31:59Z</time>
      </trkpt>
      <trkpt lat="41.70522" lon="8.98621">
        <ele>267.38</ele>
        <time>2022-04-28T11:32:15Z</time>
      </trkpt>
      <trkpt lat="41.70519" lon="8.9862">
        <ele>269.31</ele>
        <time>2022-04-28T11:32:30Z</time>
      </trkpt>
      <trkpt lat="41.70508" lon="8.98628">
        <ele>271.71</ele>
        <time>2022-04-28T11:32:45Z</time>
      </trkpt>
      <trkpt lat="41.70499" lon="8.98627">
        <ele>273.63</ele>
        <time>2022-04-28T11:33:00Z</time>
      </trkpt>
      <trkpt lat="41.70493" lon="8.9863">
        <ele>274.11</ele>
        <time>2022-04-28T11:33:11Z</time>
      </trkpt>
      <trkpt lat="41.70477" lon="8.98629">
        <ele>275.56</ele>
        <time>2022-04-28T11:33:27Z</time>
      </trkpt>
      <trkpt lat="41.70466" lon="8.98626">
        <ele>275.56</ele>
        <time>2022-04-28T11:33:41Z</time>
      </trkpt>
      <trkpt lat="41.70456" lon="8.98621">
        <ele>278.92</ele>
        <time>2022-04-28T11:33:57Z</time>
      </trkpt>
      <trkpt lat="41.70448" lon="8.98608">
        <ele>279.88</ele>
        <time>2022-04-28T11:34:13Z</time>
      </trkpt>
      <trkpt lat="41.70434" lon="8.98609">
        <ele>282.77</ele>
        <time>2022-04-28T11:34:28Z</time>
      </trkpt>
      <trkpt lat="41.70419" lon="8.98599">
        <ele>283.73</ele>
        <time>2022-04-28T11:34:44Z</time>
      </trkpt>
      <trkpt lat="41.70407" lon="8.98588">
        <ele>286.13</ele>
        <time>2022-04-28T11:35:00Z</time>
      </trkpt>
      <trkpt lat="41.70398" lon="8.98578">
        <ele>288.05</ele>
        <time>2022-04-28T11:35:15Z</time>
      </trkpt>
      <trkpt lat="41.70387" lon="8.98571">
        <ele>290.94</ele>
        <time>2022-04-28T11:35:31Z</time>
      </trkpt>
      <trkpt lat="41.70375" lon="8.98563">
        <ele>293.34</ele>
        <time>2022-04-28T11:35:47Z</time>
      </trkpt>
      <trkpt lat="41.70365" lon="8.9855">
        <ele>295.74</ele>
        <time>2022-04-28T11:36:05Z</time>
      </trkpt>
      <trkpt lat="41.70354" lon="8.98545">
        <ele>297.67</ele>
        <time>2022-04-28T11:36:20Z</time>
      </trkpt>
      <trkpt lat="41.70343" lon="8.98554">
        <ele>299.11</ele>
        <time>2022-04-28T11:36:37Z</time>
      </trkpt>
      <trkpt lat="41.70337" lon="8.98567">
        <ele>301.51</ele>
        <time>2022-04-28T11:36:53Z</time>
      </trkpt>
      <trkpt lat="41.70332" lon="8.98574">
        <ele>304.39</ele>
        <time>2022-04-28T11:37:08Z</time>
      </trkpt>
      <trkpt lat="41.70324" lon="8.98582">
        <ele>307.76</ele>
        <time>2022-04-28T11:37:24Z</time>
      </trkpt>
      <trkpt lat="41.70318" lon="8.98573">
        <ele>307.76</ele>
        <time>2022-04-28T11:37:46Z</time>
      </trkpt>
      <trkpt lat="41.70316" lon="8.98589">
        <ele>309.68</ele>
        <time>2022-04-28T11:38:07Z</time>
      </trkpt>
      <trkpt lat="41.70314" lon="8.98598">
        <ele>312.09</ele>
        <time>2022-04-28T11:38:23Z</time>
      </trkpt>
      <trkpt lat="41.70306" lon="8.98606">
        <ele>314.49</ele>
        <time>2022-04-28T11:38:39Z</time>
      </trkpt>
      <trkpt lat="41.70298" lon="8.98615">
        <ele>316.41</ele>
        <time>2022-04-28T11:38:55Z</time>
      </trkpt>
      <trkpt lat="41.70291" lon="8.98624">
        <ele>318.81</ele>
        <time>2022-04-28T11:39:11Z</time>
      </trkpt>
      <trkpt lat="41.70285" lon="8.98635">
        <ele>321.22</ele>
        <time>2022-04-28T11:39:29Z</time>
      </trkpt>
      <trkpt lat="41.70279" lon="8.98647">
        <ele>323.62</ele>
        <time>2022-04-28T11:39:48Z</time>
      </trkpt>
      <trkpt lat="41.70274" lon="8.98659">
        <ele>326.02</ele>
        <time>2022-04-28T11:40:04Z</time>
      </trkpt>
      <trkpt lat="41.70269" lon="8.9867">
        <ele>328.91</ele>
        <time>2022-04-28T11:40:21Z</time>
      </trkpt>
      <trkpt lat="41.70263" lon="8.98681">
        <ele>330.35</ele>
        <time>2022-04-28T11:40:39Z</time>
      </trkpt>
      <trkpt lat="41.70257" lon="8.98696">
        <ele>332.75</ele>
        <time>2022-04-28T11:40:55Z</time>
      </trkpt>
      <trkpt lat="41.70247" lon="8.98707">
        <ele>335.16</ele>
        <time>2022-04-28T11:41:12Z</time>
      </trkpt>
      <trkpt lat="41.70239" lon="8.98718">
        <ele>337.08</ele>
        <time>2022-04-28T11:41:26Z</time>
      </trkpt>
      <trkpt lat="41.70238" lon="8.98723">
        <ele>337.56</ele>
        <time>2022-04-28T11:41:42Z</time>
      </trkpt>
      <trkpt lat="41.70238" lon="8.98722">
        <ele>338.04</ele>
        <time>2022-04-28T11:42:02Z</time>
      </trkpt>
      <trkpt lat="41.7024" lon="8.98723">
        <ele>337.56</ele>
        <time>2022-04-28T11:42:38Z</time>
      </trkpt>
      <trkpt lat="41.70238" lon="8.98724">
        <ele>337.08</ele>
        <time>2022-04-28T11:43:12Z</time>
      </trkpt>
      <trkpt lat="41.70231" lon="8.98734">
        <ele>339</ele>
        <time>2022-04-28T11:43:27Z</time>
      </trkpt>
      <trkpt lat="41.70225" lon="8.98745">
        <ele>340.92</ele>
        <time>2022-04-28T11:43:44Z</time>
      </trkpt>
      <trkpt lat="41.70222" lon="8.98757">
        <ele>344.29</ele>
        <time>2022-04-28T11:44:00Z</time>
      </trkpt>
      <trkpt lat="41.70218" lon="8.98766">
        <ele>345.73</ele>
        <time>2022-04-28T11:44:14Z</time>
      </trkpt>
      <trkpt lat="41.70214" lon="8.98777">
        <ele>348.13</ele>
        <time>2022-04-28T11:44:28Z</time>
      </trkpt>
      <trkpt lat="41.70212" lon="8.9879">
        <ele>351.02</ele>
        <time>2022-04-28T11:44:42Z</time>
      </trkpt>
      <trkpt lat="41.70211" lon="8.98808">
        <ele>353.42</ele>
        <time>2022-04-28T11:45:00Z</time>
      </trkpt>
      <trkpt lat="41.70209" lon="8.98826">
        <ele>354.86</ele>
        <time>2022-04-28T11:45:18Z</time>
      </trkpt>
      <trkpt lat="41.70205" lon="8.98847">
        <ele>355.83</ele>
        <time>2022-04-28T11:45:33Z</time>
      </trkpt>
      <trkpt lat="41.70203" lon="8.98865">
        <ele>357.27</ele>
        <time>2022-04-28T11:45:48Z</time>
      </trkpt>
      <trkpt lat="41.70198" lon="8.98881">
        <ele>359.67</ele>
        <time>2022-04-28T11:46:05Z</time>
      </trkpt>
      <trkpt lat="41.70193" lon="8.98897">
        <ele>363.04</ele>
        <time>2022-04-28T11:46:24Z</time>
      </trkpt>
      <trkpt lat="41.70196" lon="8.98909">
        <ele>364.96</ele>
        <time>2022-04-28T11:46:39Z</time>
      </trkpt>
      <trkpt lat="41.70193" lon="8.98914">
        <ele>365.44</ele>
        <time>2022-04-28T11:46:55Z</time>
      </trkpt>
      <trkpt lat="41.70194" lon="8.98923">
        <ele>366.4</ele>
        <time>2022-04-28T11:47:21Z</time>
      </trkpt>
      <trkpt lat="41.70194" lon="8.98939">
        <ele>367.84</ele>
        <time>2022-04-28T11:47:37Z</time>
      </trkpt>
      <trkpt lat="41.70199" lon="8.98956">
        <ele>369.76</ele>
        <time>2022-04-28T11:47:56Z</time>
      </trkpt>
      <trkpt lat="41.70206" lon="8.98971">
        <ele>372.17</ele>
        <time>2022-04-28T11:48:12Z</time>
      </trkpt>
      <trkpt lat="41.70212" lon="8.98984">
        <ele>375.05</ele>
        <time>2022-04-28T11:48:29Z</time>
      </trkpt>
      <trkpt lat="41.70219" lon="8.98998">
        <ele>377.45</ele>
        <time>2022-04-28T11:48:45Z</time>
      </trkpt>
      <trkpt lat="41.70225" lon="8.9901">
        <ele>379.38</ele>
        <time>2022-04-28T11:49:02Z</time>
      </trkpt>
      <trkpt lat="41.70227" lon="8.99025">
        <ele>380.34</ele>
        <time>2022-04-28T11:49:17Z</time>
      </trkpt>
      <trkpt lat="41.70237" lon="8.99044">
        <ele>381.78</ele>
        <time>2022-04-28T11:49:34Z</time>
      </trkpt>
      <trkpt lat="41.70249" lon="8.99057">
        <ele>383.22</ele>
        <time>2022-04-28T11:49:50Z</time>
      </trkpt>
      <trkpt lat="41.70248" lon="8.9907">
        <ele>384.18</ele>
        <time>2022-04-28T11:50:05Z</time>
      </trkpt>
      <trkpt lat="41.70248" lon="8.99074">
        <ele>383.7</ele>
        <time>2022-04-28T11:50:26Z</time>
      </trkpt>
      <trkpt lat="41.70245" lon="8.99094">
        <ele>382.74</ele>
        <time>2022-04-28T11:50:43Z</time>
      </trkpt>
      <trkpt lat="41.7024" lon="8.99104">
        <ele>381.78</ele>
        <time>2022-04-28T11:50:59Z</time>
      </trkpt>
      <trkpt lat="41.70234" lon="8.99112">
        <ele>380.34</ele>
        <time>2022-04-28T11:51:07Z</time>
      </trkpt>
      <trkpt lat="41.70235" lon="8.9912">
        <ele>380.34</ele>
        <time>2022-04-28T11:51:12Z</time>
      </trkpt>
      <trkpt lat="41.70246" lon="8.9914">
        <ele>378.9</ele>
        <time>2022-04-28T11:51:27Z</time>
      </trkpt>
      <trkpt lat="41.70252" lon="8.99165">
        <ele>378.42</ele>
        <time>2022-04-28T11:51:43Z</time>
      </trkpt>
      <trkpt lat="41.70253" lon="8.99192">
        <ele>378.9</ele>
        <time>2022-04-28T11:51:59Z</time>
      </trkpt>
      <trkpt lat="41.70257" lon="8.99202">
        <ele>379.38</ele>
        <time>2022-04-28T11:52:14Z</time>
      </trkpt>
      <trkpt lat="41.70257" lon="8.9922">
        <ele>379.86</ele>
        <time>2022-04-28T11:52:31Z</time>
      </trkpt>
      <trkpt lat="41.70258" lon="8.99243">
        <ele>380.34</ele>
        <time>2022-04-28T11:52:48Z</time>
      </trkpt>
      <trkpt lat="41.70269" lon="8.99267">
        <ele>382.26</ele>
        <time>2022-04-28T11:53:07Z</time>
      </trkpt>
      <trkpt lat="41.70277" lon="8.99292">
        <ele>383.7</ele>
        <time>2022-04-28T11:53:25Z</time>
      </trkpt>
      <trkpt lat="41.70284" lon="8.99313">
        <ele>387.07</ele>
        <time>2022-04-28T11:53:41Z</time>
      </trkpt>
      <trkpt lat="41.70283" lon="8.99319">
        <ele>383.7</ele>
        <time>2022-04-28T11:53:46Z</time>
      </trkpt>
      <trkpt lat="41.70291" lon="8.99348">
        <ele>384.18</ele>
        <time>2022-04-28T11:54:04Z</time>
      </trkpt>
      <trkpt lat="41.70294" lon="8.99359">
        <ele>384.18</ele>
        <time>2022-04-28T11:54:18Z</time>
      </trkpt>
      <trkpt lat="41.703" lon="8.99377">
        <ele>384.18</ele>
        <time>2022-04-28T11:54:32Z</time>
      </trkpt>
      <trkpt lat="41.703" lon="8.99404">
        <ele>383.7</ele>
        <time>2022-04-28T11:54:50Z</time>
      </trkpt>
      <trkpt lat="41.70297" lon="8.9941">
        <ele>382.74</ele>
        <time>2022-04-28T11:54:55Z</time>
      </trkpt>
      <trkpt lat="41.70289" lon="8.99434">
        <ele>382.26</ele>
        <time>2022-04-28T11:55:10Z</time>
      </trkpt>
      <trkpt lat="41.70281" lon="8.99455">
        <ele>381.78</ele>
        <time>2022-04-28T11:55:26Z</time>
      </trkpt>
      <trkpt lat="41.70279" lon="8.99482">
        <ele>379.86</ele>
        <time>2022-04-28T11:55:45Z</time>
      </trkpt>
      <trkpt lat="41.7028" lon="8.99493">
        <ele>379.86</ele>
        <time>2022-04-28T11:56:02Z</time>
      </trkpt>
      <trkpt lat="41.70281" lon="8.99504">
        <ele>378.9</ele>
        <time>2022-04-28T11:56:22Z</time>
      </trkpt>
      <trkpt lat="41.70282" lon="8.99513">
        <ele>377.94</ele>
        <time>2022-04-28T11:56:28Z</time>
      </trkpt>
      <trkpt lat="41.70285" lon="8.99548">
        <ele>376.01</ele>
        <time>2022-04-28T11:56:49Z</time>
      </trkpt>
      <trkpt lat="41.70285" lon="8.99579">
        <ele>376.49</ele>
        <time>2022-04-28T11:57:08Z</time>
      </trkpt>
      <trkpt lat="41.70285" lon="8.99587">
        <ele>376.49</ele>
        <time>2022-04-28T11:57:13Z</time>
      </trkpt>
      <trkpt lat="41.70282" lon="8.99612">
        <ele>378.9</ele>
        <time>2022-04-28T11:57:32Z</time>
      </trkpt>
      <trkpt lat="41.70289" lon="8.9963">
        <ele>381.3</ele>
        <time>2022-04-28T11:57:47Z</time>
      </trkpt>
      <trkpt lat="41.70293" lon="8.99647">
        <ele>384.66</ele>
        <time>2022-04-28T11:58:03Z</time>
      </trkpt>
      <trkpt lat="41.70299" lon="8.99669">
        <ele>386.11</ele>
        <time>2022-04-28T11:58:20Z</time>
      </trkpt>
      <trkpt lat="41.70302" lon="8.99685">
        <ele>388.51</ele>
        <time>2022-04-28T11:58:35Z</time>
      </trkpt>
      <trkpt lat="41.70308" lon="8.99692">
        <ele>391.87</ele>
        <time>2022-04-28T11:58:49Z</time>
      </trkpt>
      <trkpt lat="41.70316" lon="8.99709">
        <ele>394.76</ele>
        <time>2022-04-28T11:59:06Z</time>
      </trkpt>
      <trkpt lat="41.7032" lon="8.99734">
        <ele>395.24</ele>
        <time>2022-04-28T11:59:25Z</time>
      </trkpt>
      <trkpt lat="41.70321" lon="8.9976">
        <ele>393.8</ele>
        <time>2022-04-28T11:59:41Z</time>
      </trkpt>
      <trkpt lat="41.70315" lon="8.99782">
        <ele>394.28</ele>
        <time>2022-04-28T11:59:56Z</time>
      </trkpt>
      <trkpt lat="41.70315" lon="8.99785">
        <ele>393.8</ele>
        <time>2022-04-28T11:59:58Z</time>
      </trkpt>
      <trkpt lat="41.70316" lon="8.99792">
        <ele>393.8</ele>
        <time>2022-04-28T12:00:02Z</time>
      </trkpt>
      <trkpt lat="41.70325" lon="8.99816">
        <ele>392.36</ele>
        <time>2022-04-28T12:00:19Z</time>
      </trkpt>
      <trkpt lat="41.7033" lon="8.99848">
        <ele>391.39</ele>
        <time>2022-04-28T12:00:40Z</time>
      </trkpt>
      <trkpt lat="41.70334" lon="8.99875">
        <ele>388.99</ele>
        <time>2022-04-28T12:00:57Z</time>
      </trkpt>
      <trkpt lat="41.7034" lon="8.99903">
        <ele>387.07</ele>
        <time>2022-04-28T12:01:16Z</time>
      </trkpt>
      <trkpt lat="41.70345" lon="8.99912">
        <ele>387.07</ele>
        <time>2022-04-28T12:01:23Z</time>
      </trkpt>
      <trkpt lat="41.70357" lon="8.99939">
        <ele>386.11</ele>
        <time>2022-04-28T12:01:42Z</time>
      </trkpt>
      <trkpt lat="41.70357" lon="8.99941">
        <ele>386.11</ele>
        <time>2022-04-28T12:01:43Z</time>
      </trkpt>
      <trkpt lat="41.70362" lon="8.99975">
        <ele>386.11</ele>
        <time>2022-04-28T12:02:04Z</time>
      </trkpt>
      <trkpt lat="41.70364" lon="9.00001">
        <ele>387.55</ele>
        <time>2022-04-28T12:02:21Z</time>
      </trkpt>
      <trkpt lat="41.70365" lon="9.00024">
        <ele>384.66</ele>
        <time>2022-04-28T12:02:37Z</time>
      </trkpt>
      <trkpt lat="41.70361" lon="9.00041">
        <ele>381.3</ele>
        <time>2022-04-28T12:02:51Z</time>
      </trkpt>
      <trkpt lat="41.70361" lon="9.00057">
        <ele>378.42</ele>
        <time>2022-04-28T12:03:03Z</time>
      </trkpt>
      <trkpt lat="41.70366" lon="9.0008">
        <ele>376.01</ele>
        <time>2022-04-28T12:03:20Z</time>
      </trkpt>
      <trkpt lat="41.70365" lon="9.00086">
        <ele>375.53</ele>
        <time>2022-04-28T12:03:36Z</time>
      </trkpt>
      <trkpt lat="41.70367" lon="9.00102">
        <ele>374.57</ele>
        <time>2022-04-28T12:03:51Z</time>
      </trkpt>
      <trkpt lat="41.70356" lon="9.00106">
        <ele>376.97</ele>
        <time>2022-04-28T12:04:05Z</time>
      </trkpt>
      <trkpt lat="41.70348" lon="9.00117">
        <ele>379.86</ele>
        <time>2022-04-28T12:04:21Z</time>
      </trkpt>
      <trkpt lat="41.70337" lon="9.00118">
        <ele>382.26</ele>
        <time>2022-04-28T12:04:36Z</time>
      </trkpt>
      <trkpt lat="41.70321" lon="9.00113">
        <ele>384.18</ele>
        <time>2022-04-28T12:04:52Z</time>
      </trkpt>
      <trkpt lat="41.70299" lon="9.00102">
        <ele>385.15</ele>
        <time>2022-04-28T12:05:10Z</time>
      </trkpt>
      <trkpt lat="41.70286" lon="9.00093">
        <ele>386.59</ele>
        <time>2022-04-28T12:05:22Z</time>
      </trkpt>
      <trkpt lat="41.70271" lon="9.00092">
        <ele>387.07</ele>
        <time>2022-04-28T12:05:36Z</time>
      </trkpt>
      <trkpt lat="41.70274" lon="9.00105">
        <ele>388.03</ele>
        <time>2022-04-28T12:05:49Z</time>
      </trkpt>
      <trkpt lat="41.70278" lon="9.00124">
        <ele>390.43</ele>
        <time>2022-04-28T12:06:05Z</time>
      </trkpt>
      <trkpt lat="41.7027" lon="9.0013">
        <ele>390.91</ele>
        <time>2022-04-28T12:06:20Z</time>
      </trkpt>
      <trkpt lat="41.70267" lon="9.00136">
        <ele>390.91</ele>
        <time>2022-04-28T12:06:40Z</time>
      </trkpt>
      <trkpt lat="41.70248" lon="9.00148">
        <ele>391.39</ele>
        <time>2022-04-28T12:06:58Z</time>
      </trkpt>
      <trkpt lat="41.70223" lon="9.00153">
        <ele>392.84</ele>
        <time>2022-04-28T12:07:17Z</time>
      </trkpt>
      <trkpt lat="41.702" lon="9.00152">
        <ele>392.36</ele>
        <time>2022-04-28T12:07:35Z</time>
      </trkpt>
      <trkpt lat="41.70177" lon="9.00145">
        <ele>391.39</ele>
        <time>2022-04-28T12:07:53Z</time>
      </trkpt>
      <trkpt lat="41.70151" lon="9.00136">
        <ele>390.91</ele>
        <time>2022-04-28T12:08:12Z</time>
      </trkpt>
      <trkpt lat="41.70129" lon="9.00127">
        <ele>389.95</ele>
        <time>2022-04-28T12:08:28Z</time>
      </trkpt>
      <trkpt lat="41.70128" lon="9.00127">
        <ele>389.47</ele>
        <time>2022-04-28T12:08:29Z</time>
      </trkpt>
      <trkpt lat="41.70102" lon="9.00124">
        <ele>389.47</ele>
        <time>2022-04-28T12:08:48Z</time>
      </trkpt>
      <trkpt lat="41.70081" lon="9.00127">
        <ele>389.47</ele>
        <time>2022-04-28T12:09:04Z</time>
      </trkpt>
      <trkpt lat="41.70068" lon="9.0015">
        <ele>388.99</ele>
        <time>2022-04-28T12:09:17Z</time>
      </trkpt>
      <trkpt lat="41.70066" lon="9.00152">
        <ele>389.95</ele>
        <time>2022-04-28T12:09:19Z</time>
      </trkpt>
      <trkpt lat="41.70063" lon="9.00174">
        <ele>388.51</ele>
        <time>2022-04-28T12:09:33Z</time>
      </trkpt>
      <trkpt lat="41.70054" lon="9.00202">
        <ele>389.47</ele>
        <time>2022-04-28T12:09:50Z</time>
      </trkpt>
      <trkpt lat="41.70053" lon="9.00217">
        <ele>388.99</ele>
        <time>2022-04-28T12:10:00Z</time>
      </trkpt>
      <trkpt lat="41.70047" lon="9.00235">
        <ele>388.51</ele>
        <time>2022-04-28T12:10:11Z</time>
      </trkpt>
      <trkpt lat="41.70036" lon="9.00235">
        <ele>388.99</ele>
        <time>2022-04-28T12:10:26Z</time>
      </trkpt>
      <trkpt lat="41.70027" lon="9.0023">
        <ele>388.99</ele>
        <time>2022-04-28T12:10:41Z</time>
      </trkpt>
      <trkpt lat="41.70026" lon="9.00228">
        <ele>388.99</ele>
        <time>2022-04-28T12:10:42Z</time>
      </trkpt>
      <trkpt lat="41.70014" lon="9.00213">
        <ele>389.47</ele>
        <time>2022-04-28T12:10:57Z</time>
      </trkpt>
      <trkpt lat="41.69997" lon="9.00191">
        <ele>389.47</ele>
        <time>2022-04-28T12:11:15Z</time>
      </trkpt>
      <trkpt lat="41.69993" lon="9.00184">
        <ele>389.47</ele>
        <time>2022-04-28T12:11:21Z</time>
      </trkpt>
      <trkpt lat="41.69983" lon="9.00163">
        <ele>388.99</ele>
        <time>2022-04-28T12:11:35Z</time>
      </trkpt>
      <trkpt lat="41.69979" lon="9.00153">
        <ele>389.47</ele>
        <time>2022-04-28T12:11:41Z</time>
      </trkpt>
      <trkpt lat="41.69979" lon="9.00151">
        <ele>389.47</ele>
        <time>2022-04-28T12:11:42Z</time>
      </trkpt>
      <trkpt lat="41.69979" lon="9.0015">
        <ele>389.47</ele>
        <time>2022-04-28T12:11:43Z</time>
      </trkpt>
      <trkpt lat="41.69975" lon="9.00126">
        <ele>388.99</ele>
        <time>2022-04-28T12:11:57Z</time>
      </trkpt>
      <trkpt lat="41.69974" lon="9.00102">
        <ele>388.51</ele>
        <time>2022-04-28T12:12:11Z</time>
      </trkpt>
      <trkpt lat="41.69973" lon="9.00098">
        <ele>388.51</ele>
        <time>2022-04-28T12:12:14Z</time>
      </trkpt>
      <trkpt lat="41.69953" lon="9.00077">
        <ele>389.47</ele>
        <time>2022-04-28T12:12:29Z</time>
      </trkpt>
      <trkpt lat="41.6994" lon="9.0007">
        <ele>389.47</ele>
        <time>2022-04-28T12:12:43Z</time>
      </trkpt>
      <trkpt lat="41.69933" lon="9.00071">
        <ele>389.95</ele>
        <time>2022-04-28T12:12:48Z</time>
      </trkpt>
      <trkpt lat="41.69931" lon="9.00071">
        <ele>389.47</ele>
        <time>2022-04-28T12:12:49Z</time>
      </trkpt>
      <trkpt lat="41.69929" lon="9.00071">
        <ele>389.47</ele>
        <time>2022-04-28T12:12:50Z</time>
      </trkpt>
      <trkpt lat="41.69927" lon="9.0007">
        <ele>389.95</ele>
        <time>2022-04-28T12:12:51Z</time>
      </trkpt>
      <trkpt lat="41.69926" lon="9.0007">
        <ele>389.47</ele>
        <time>2022-04-28T12:12:52Z</time>
      </trkpt>
      <trkpt lat="41.69924" lon="9.0007">
        <ele>389.47</ele>
        <time>2022-04-28T12:12:53Z</time>
      </trkpt>
      <trkpt lat="41.69914" lon="9.00076">
        <ele>389.95</ele>
        <time>2022-04-28T12:13:06Z</time>
      </trkpt>
      <trkpt lat="41.69914" lon="9.00078">
        <ele>388.51</ele>
        <time>2022-04-28T12:13:12Z</time>
      </trkpt>
      <trkpt lat="41.69914" lon="9.00078">
        <ele>389.95</ele>
        <time>2022-04-28T12:13:27Z</time>
      </trkpt>
      <trkpt lat="41.69913" lon="9.00079">
        <ele>389.95</ele>
        <time>2022-04-28T12:13:28Z</time>
      </trkpt>
      <trkpt lat="41.69912" lon="9.00081">
        <ele>389.47</ele>
        <time>2022-04-28T12:13:29Z</time>
      </trkpt>
      <trkpt lat="41.69901" lon="9.00091">
        <ele>390.43</ele>
        <time>2022-04-28T12:13:45Z</time>
      </trkpt>
      <trkpt lat="41.69897" lon="9.00106">
        <ele>390.43</ele>
        <time>2022-04-28T12:13:58Z</time>
      </trkpt>
      <trkpt lat="41.69888" lon="9.00126">
        <ele>390.43</ele>
        <time>2022-04-28T12:14:14Z</time>
      </trkpt>
      <trkpt lat="41.69884" lon="9.00135">
        <ele>390.91</ele>
        <time>2022-04-28T12:14:26Z</time>
      </trkpt>
      <trkpt lat="41.69883" lon="9.00136">
        <ele>390.43</ele>
        <time>2022-04-28T12:14:47Z</time>
      </trkpt>
      <trkpt lat="41.69882" lon="9.00135">
        <ele>389.95</ele>
        <time>2022-04-28T12:15:01Z</time>
      </trkpt>
      <trkpt lat="41.6987" lon="9.00157">
        <ele>390.91</ele>
        <time>2022-04-28T12:15:18Z</time>
      </trkpt>
      <trkpt lat="41.69865" lon="9.00155">
        <ele>390.91</ele>
        <time>2022-04-28T12:15:34Z</time>
      </trkpt>
      <trkpt lat="41.69846" lon="9.00154">
        <ele>391.87</ele>
        <time>2022-04-28T12:15:49Z</time>
      </trkpt>
      <trkpt lat="41.69834" lon="9.00156">
        <ele>392.36</ele>
        <time>2022-04-28T12:16:04Z</time>
      </trkpt>
      <trkpt lat="41.69827" lon="9.00149">
        <ele>394.28</ele>
        <time>2022-04-28T12:16:19Z</time>
      </trkpt>
      <trkpt lat="41.69822" lon="9.00144">
        <ele>393.8</ele>
        <time>2022-04-28T12:16:26Z</time>
      </trkpt>
      <trkpt lat="41.69818" lon="9.00143">
        <ele>395.72</ele>
        <time>2022-04-28T12:16:34Z</time>
      </trkpt>
      <trkpt lat="41.6981" lon="9.00141">
        <ele>397.64</ele>
        <time>2022-04-28T12:16:45Z</time>
      </trkpt>
      <trkpt lat="41.69808" lon="9.00142">
        <ele>402.45</ele>
        <time>2022-04-28T12:16:52Z</time>
      </trkpt>
      <trkpt lat="41.69808" lon="9.00142">
        <ele>399.57</ele>
        <time>2022-04-28T12:16:53Z</time>
      </trkpt>
      <trkpt lat="41.69803" lon="9.00143">
        <ele>401.01</ele>
        <time>2022-04-28T12:17:05Z</time>
      </trkpt>
      <trkpt lat="41.698" lon="9.00147">
        <ele>402.93</ele>
        <time>2022-04-28T12:17:17Z</time>
      </trkpt>
      <trkpt lat="41.69802" lon="9.00152">
        <ele>404.37</ele>
        <time>2022-04-28T12:17:29Z</time>
      </trkpt>
      <trkpt lat="41.698" lon="9.00158">
        <ele>404.85</ele>
        <time>2022-04-28T12:17:39Z</time>
      </trkpt>
      <trkpt lat="41.69801" lon="9.00159">
        <ele>404.85</ele>
        <time>2022-04-28T12:17:40Z</time>
      </trkpt>
      <trkpt lat="41.69802" lon="9.0016">
        <ele>405.33</ele>
        <time>2022-04-28T12:17:41Z</time>
      </trkpt>
      <trkpt lat="41.698" lon="9.00155">
        <ele>404.85</ele>
        <time>2022-04-28T12:17:54Z</time>
      </trkpt>
      <trkpt lat="41.69799" lon="9.00154">
        <ele>405.33</ele>
        <time>2022-04-28T12:18:11Z</time>
      </trkpt>
      <trkpt lat="41.69797" lon="9.00149">
        <ele>404.85</ele>
        <time>2022-04-28T12:18:42Z</time>
      </trkpt>
      <trkpt lat="41.69797" lon="9.00145">
        <ele>405.33</ele>
        <time>2022-04-28T12:19:14Z</time>
      </trkpt>
      <trkpt lat="41.69796" lon="9.00151">
        <ele>405.33</ele>
        <time>2022-04-28T12:19:49Z</time>
      </trkpt>
      <trkpt lat="41.69799" lon="9.00155">
        <ele>405.81</ele>
        <time>2022-04-28T12:20:26Z</time>
      </trkpt>
      <trkpt lat="41.69796" lon="9.00149">
        <ele>406.29</ele>
        <time>2022-04-28T12:20:43Z</time>
      </trkpt>
      <trkpt lat="41.69794" lon="9.00144">
        <ele>405.81</ele>
        <time>2022-04-28T12:20:53Z</time>
      </trkpt>
      <trkpt lat="41.69793" lon="9.00144">
        <ele>405.81</ele>
        <time>2022-04-28T12:20:54Z</time>
      </trkpt>
      <trkpt lat="41.69773" lon="9.00151">
        <ele>404.85</ele>
        <time>2022-04-28T12:21:13Z</time>
      </trkpt>
      <trkpt lat="41.6977" lon="9.00158">
        <ele>405.33</ele>
        <time>2022-04-28T12:21:33Z</time>
      </trkpt>
      <trkpt lat="41.69772" lon="9.00152">
        <ele>406.77</ele>
        <time>2022-04-28T12:21:41Z</time>
      </trkpt>
      <trkpt lat="41.69773" lon="9.00148">
        <ele>404.85</ele>
        <time>2022-04-28T12:21:44Z</time>
      </trkpt>
      <trkpt lat="41.69769" lon="9.00139">
        <ele>401.97</ele>
        <time>2022-04-28T12:22:00Z</time>
      </trkpt>
      <trkpt lat="41.6977" lon="9.00139">
        <ele>401.49</ele>
        <time>2022-04-28T12:22:19Z</time>
      </trkpt>
      <trkpt lat="41.69764" lon="9.00138">
        <ele>401.49</ele>
        <time>2022-04-28T12:22:53Z</time>
      </trkpt>
      <trkpt lat="41.69761" lon="9.0013">
        <ele>402.45</ele>
        <time>2022-04-28T12:23:37Z</time>
      </trkpt>
      <trkpt lat="41.69766" lon="9.00133">
        <ele>401.97</ele>
        <time>2022-04-28T12:24:05Z</time>
      </trkpt>
      <trkpt lat="41.69756" lon="9.00127">
        <ele>402.45</ele>
        <time>2022-04-28T12:24:45Z</time>
      </trkpt>
      <trkpt lat="41.69763" lon="9.00131">
        <ele>402.93</ele>
        <time>2022-04-28T12:25:21Z</time>
      </trkpt>
      <trkpt lat="41.69763" lon="9.00129">
        <ele>403.41</ele>
        <time>2022-04-28T12:25:52Z</time>
      </trkpt>
      <trkpt lat="41.69758" lon="9.00126">
        <ele>403.41</ele>
        <time>2022-04-28T12:26:29Z</time>
      </trkpt>
      <trkpt lat="41.69757" lon="9.00126">
        <ele>403.89</ele>
        <time>2022-04-28T12:27:01Z</time>
      </trkpt>
      <trkpt lat="41.69765" lon="9.00128">
        <ele>403.89</ele>
        <time>2022-04-28T12:27:32Z</time>
      </trkpt>
      <trkpt lat="41.69766" lon="9.00136">
        <ele>404.37</ele>
        <time>2022-04-28T12:28:07Z</time>
      </trkpt>
      <trkpt lat="41.69765" lon="9.00135">
        <ele>404.37</ele>
        <time>2022-04-28T12:28:31Z</time>
      </trkpt>
      <trkpt lat="41.69776" lon="9.0014">
        <ele>403.89</ele>
        <time>2022-04-28T12:29:00Z</time>
      </trkpt>
      <trkpt lat="41.6978" lon="9.00141">
        <ele>404.37</ele>
        <time>2022-04-28T12:29:29Z</time>
      </trkpt>
      <trkpt lat="41.69767" lon="9.0014">
        <ele>405.33</ele>
        <time>2022-04-28T12:29:57Z</time>
      </trkpt>
      <trkpt lat="41.69767" lon="9.00139">
        <ele>404.85</ele>
        <time>2022-04-28T12:30:10Z</time>
      </trkpt>
      <trkpt lat="41.69763" lon="9.00135">
        <ele>405.81</ele>
        <time>2022-04-28T12:30:34Z</time>
      </trkpt>
      <trkpt lat="41.69762" lon="9.00132">
        <ele>405.81</ele>
        <time>2022-04-28T12:31:05Z</time>
      </trkpt>
      <trkpt lat="41.69758" lon="9.00141">
        <ele>405.81</ele>
        <time>2022-04-28T12:31:33Z</time>
      </trkpt>
      <trkpt lat="41.69766" lon="9.00142">
        <ele>407.74</ele>
        <time>2022-04-28T12:31:50Z</time>
      </trkpt>
      <trkpt lat="41.69765" lon="9.00155">
        <ele>409.66</ele>
        <time>2022-04-28T12:32:03Z</time>
      </trkpt>
      <trkpt lat="41.69763" lon="9.00157">
        <ele>409.66</ele>
        <time>2022-04-28T12:32:05Z</time>
      </trkpt>
      <trkpt lat="41.69762" lon="9.00158">
        <ele>409.18</ele>
        <time>2022-04-28T12:32:06Z</time>
      </trkpt>
      <trkpt lat="41.69759" lon="9.00162">
        <ele>408.7</ele>
        <time>2022-04-28T12:32:11Z</time>
      </trkpt>
      <trkpt lat="41.69746" lon="9.00176">
        <ele>408.7</ele>
        <time>2022-04-28T12:32:26Z</time>
      </trkpt>
      <trkpt lat="41.69745" lon="9.00177">
        <ele>409.18</ele>
        <time>2022-04-28T12:32:27Z</time>
      </trkpt>
      <trkpt lat="41.69743" lon="9.00178">
        <ele>408.22</ele>
        <time>2022-04-28T12:32:28Z</time>
      </trkpt>
      <trkpt lat="41.69737" lon="9.00189">
        <ele>408.22</ele>
        <time>2022-04-28T12:32:42Z</time>
      </trkpt>
      <trkpt lat="41.69734" lon="9.00188">
        <ele>408.7</ele>
        <time>2022-04-28T12:32:50Z</time>
      </trkpt>
      <trkpt lat="41.69732" lon="9.00188">
        <ele>408.7</ele>
        <time>2022-04-28T12:32:51Z</time>
      </trkpt>
      <trkpt lat="41.69731" lon="9.00187">
        <ele>408.7</ele>
        <time>2022-04-28T12:32:52Z</time>
      </trkpt>
      <trkpt lat="41.69713" lon="9.00185">
        <ele>407.74</ele>
        <time>2022-04-28T12:33:05Z</time>
      </trkpt>
      <trkpt lat="41.69687" lon="9.0018">
        <ele>408.22</ele>
        <time>2022-04-28T12:33:25Z</time>
      </trkpt>
      <trkpt lat="41.69667" lon="9.00181">
        <ele>407.26</ele>
        <time>2022-04-28T12:33:44Z</time>
      </trkpt>
      <trkpt lat="41.69647" lon="9.0019">
        <ele>409.18</ele>
        <time>2022-04-28T12:34:01Z</time>
      </trkpt>
      <trkpt lat="41.69646" lon="9.00189">
        <ele>409.18</ele>
        <time>2022-04-28T12:34:02Z</time>
      </trkpt>
      <trkpt lat="41.69642" lon="9.0019">
        <ele>409.66</ele>
        <time>2022-04-28T12:34:07Z</time>
      </trkpt>
      <trkpt lat="41.6964" lon="9.0019">
        <ele>410.14</ele>
        <time>2022-04-28T12:34:08Z</time>
      </trkpt>
      <trkpt lat="41.69639" lon="9.00191">
        <ele>410.62</ele>
        <time>2022-04-28T12:34:09Z</time>
      </trkpt>
      <trkpt lat="41.69623" lon="9.00197">
        <ele>412.54</ele>
        <time>2022-04-28T12:34:24Z</time>
      </trkpt>
      <trkpt lat="41.69621" lon="9.002">
        <ele>413.98</ele>
        <time>2022-04-28T12:34:29Z</time>
      </trkpt>
      <trkpt lat="41.69626" lon="9.00208">
        <ele>415.43</ele>
        <time>2022-04-28T12:34:41Z</time>
      </trkpt>
      <trkpt lat="41.69627" lon="9.00209">
        <ele>415.91</ele>
        <time>2022-04-28T12:34:42Z</time>
      </trkpt>
      <trkpt lat="41.69628" lon="9.00211">
        <ele>415.91</ele>
        <time>2022-04-28T12:34:43Z</time>
      </trkpt>
      <trkpt lat="41.69639" lon="9.00217">
        <ele>418.31</ele>
        <time>2022-04-28T12:34:57Z</time>
      </trkpt>
      <trkpt lat="41.69656" lon="9.00226">
        <ele>422.16</ele>
        <time>2022-04-28T12:35:14Z</time>
      </trkpt>
      <trkpt lat="41.69662" lon="9.00229">
        <ele>421.68</ele>
        <time>2022-04-28T12:35:20Z</time>
      </trkpt>
      <trkpt lat="41.69669" lon="9.0023">
        <ele>423.12</ele>
        <time>2022-04-28T12:35:26Z</time>
      </trkpt>
      <trkpt lat="41.69684" lon="9.00237">
        <ele>424.08</ele>
        <time>2022-04-28T12:35:41Z</time>
      </trkpt>
      <trkpt lat="41.69693" lon="9.0024">
        <ele>424.08</ele>
        <time>2022-04-28T12:35:53Z</time>
      </trkpt>
      <trkpt lat="41.69706" lon="9.00247">
        <ele>424.08</ele>
        <time>2022-04-28T12:36:06Z</time>
      </trkpt>
      <trkpt lat="41.69707" lon="9.00251">
        <ele>425.52</ele>
        <time>2022-04-28T12:36:17Z</time>
      </trkpt>
      <trkpt lat="41.69706" lon="9.00252">
        <ele>425.52</ele>
        <time>2022-04-28T12:36:18Z</time>
      </trkpt>
      <trkpt lat="41.69705" lon="9.00252">
        <ele>426</ele>
        <time>2022-04-28T12:36:19Z</time>
      </trkpt>
      <trkpt lat="41.69703" lon="9.00253">
        <ele>426.48</ele>
        <time>2022-04-28T12:36:22Z</time>
      </trkpt>
      <trkpt lat="41.69702" lon="9.0026">
        <ele>427.92</ele>
        <time>2022-04-28T12:36:30Z</time>
      </trkpt>
      <trkpt lat="41.69702" lon="9.00261">
        <ele>428.89</ele>
        <time>2022-04-28T12:36:32Z</time>
      </trkpt>
      <trkpt lat="41.69701" lon="9.00263">
        <ele>428.4</ele>
        <time>2022-04-28T12:36:33Z</time>
      </trkpt>
      <trkpt lat="41.69697" lon="9.00262">
        <ele>430.81</ele>
        <time>2022-04-28T12:36:44Z</time>
      </trkpt>
      <trkpt lat="41.69692" lon="9.00261">
        <ele>433.69</ele>
        <time>2022-04-28T12:36:53Z</time>
      </trkpt>
      <trkpt lat="41.69687" lon="9.0026">
        <ele>433.69</ele>
        <time>2022-04-28T12:37:01Z</time>
      </trkpt>
      <trkpt lat="41.69673" lon="9.00259">
        <ele>436.1</ele>
        <time>2022-04-28T12:37:15Z</time>
      </trkpt>
      <trkpt lat="41.69668" lon="9.0026">
        <ele>437.06</ele>
        <time>2022-04-28T12:37:21Z</time>
      </trkpt>
      <trkpt lat="41.6966" lon="9.00262">
        <ele>437.06</ele>
        <time>2022-04-28T12:37:29Z</time>
      </trkpt>
      <trkpt lat="41.69649" lon="9.00258">
        <ele>438.5</ele>
        <time>2022-04-28T12:37:42Z</time>
      </trkpt>
      <trkpt lat="41.69647" lon="9.00254">
        <ele>438.98</ele>
        <time>2022-04-28T12:38:00Z</time>
      </trkpt>
      <trkpt lat="41.69626" lon="9.00251">
        <ele>439.46</ele>
        <time>2022-04-28T12:38:19Z</time>
      </trkpt>
      <trkpt lat="41.69605" lon="9.00254">
        <ele>439.46</ele>
        <time>2022-04-28T12:38:37Z</time>
      </trkpt>
      <trkpt lat="41.69595" lon="9.00253">
        <ele>439.46</ele>
        <time>2022-04-28T12:38:49Z</time>
      </trkpt>
      <trkpt lat="41.69584" lon="9.00251">
        <ele>442.34</ele>
        <time>2022-04-28T12:39:03Z</time>
      </trkpt>
      <trkpt lat="41.69569" lon="9.00245">
        <ele>445.71</ele>
        <time>2022-04-28T12:39:21Z</time>
      </trkpt>
      <trkpt lat="41.6956" lon="9.00236">
        <ele>448.59</ele>
        <time>2022-04-28T12:39:38Z</time>
      </trkpt>
      <trkpt lat="41.69555" lon="9.00236">
        <ele>451.96</ele>
        <time>2022-04-28T12:39:57Z</time>
      </trkpt>
      <trkpt lat="41.69545" lon="9.00228">
        <ele>454.36</ele>
        <time>2022-04-28T12:40:12Z</time>
      </trkpt>
      <trkpt lat="41.69535" lon="9.00221">
        <ele>456.76</ele>
        <time>2022-04-28T12:40:28Z</time>
      </trkpt>
      <trkpt lat="41.69522" lon="9.00214">
        <ele>459.17</ele>
        <time>2022-04-28T12:40:48Z</time>
      </trkpt>
      <trkpt lat="41.69512" lon="9.00201">
        <ele>462.53</ele>
        <time>2022-04-28T12:41:05Z</time>
      </trkpt>
      <trkpt lat="41.69501" lon="9.00192">
        <ele>463.97</ele>
        <time>2022-04-28T12:41:23Z</time>
      </trkpt>
      <trkpt lat="41.69493" lon="9.00185">
        <ele>466.86</ele>
        <time>2022-04-28T12:41:40Z</time>
      </trkpt>
      <trkpt lat="41.69484" lon="9.00181">
        <ele>468.78</ele>
        <time>2022-04-28T12:41:54Z</time>
      </trkpt>
      <trkpt lat="41.69483" lon="9.0018">
        <ele>469.26</ele>
        <time>2022-04-28T12:41:55Z</time>
      </trkpt>
      <trkpt lat="41.69471" lon="9.00181">
        <ele>470.22</ele>
        <time>2022-04-28T12:42:08Z</time>
      </trkpt>
      <trkpt lat="41.69465" lon="9.00183">
        <ele>470.7</ele>
        <time>2022-04-28T12:42:14Z</time>
      </trkpt>
      <trkpt lat="41.69451" lon="9.0019">
        <ele>471.18</ele>
        <time>2022-04-28T12:42:28Z</time>
      </trkpt>
      <trkpt lat="41.69444" lon="9.00193">
        <ele>472.14</ele>
        <time>2022-04-28T12:42:43Z</time>
      </trkpt>
      <trkpt lat="41.69444" lon="9.00191">
        <ele>472.14</ele>
        <time>2022-04-28T12:43:16Z</time>
      </trkpt>
      <trkpt lat="41.69441" lon="9.00187">
        <ele>472.14</ele>
        <time>2022-04-28T12:43:39Z</time>
      </trkpt>
      <trkpt lat="41.69434" lon="9.00188">
        <ele>472.14</ele>
        <time>2022-04-28T12:44:12Z</time>
      </trkpt>
      <trkpt lat="41.69432" lon="9.00188">
        <ele>472.63</ele>
        <time>2022-04-28T12:44:13Z</time>
      </trkpt>
      <trkpt lat="41.69415" lon="9.00185">
        <ele>474.07</ele>
        <time>2022-04-28T12:44:29Z</time>
      </trkpt>
      <trkpt lat="41.69403" lon="9.00195">
        <ele>476.47</ele>
        <time>2022-04-28T12:44:46Z</time>
      </trkpt>
      <trkpt lat="41.69395" lon="9.00199">
        <ele>479.35</ele>
        <time>2022-04-28T12:44:59Z</time>
      </trkpt>
      <trkpt lat="41.69386" lon="9.00214">
        <ele>480.32</ele>
        <time>2022-04-28T12:45:13Z</time>
      </trkpt>
      <trkpt lat="41.69375" lon="9.00225">
        <ele>482.72</ele>
        <time>2022-04-28T12:45:29Z</time>
      </trkpt>
      <trkpt lat="41.6936" lon="9.00231">
        <ele>485.12</ele>
        <time>2022-04-28T12:45:44Z</time>
      </trkpt>
      <trkpt lat="41.69344" lon="9.00236">
        <ele>488.01</ele>
        <time>2022-04-28T12:46:02Z</time>
      </trkpt>
      <trkpt lat="41.69331" lon="9.00239">
        <ele>490.41</ele>
        <time>2022-04-28T12:46:18Z</time>
      </trkpt>
      <trkpt lat="41.69316" lon="9.0024">
        <ele>493.77</ele>
        <time>2022-04-28T12:46:36Z</time>
      </trkpt>
      <trkpt lat="41.69303" lon="9.00243">
        <ele>496.66</ele>
        <time>2022-04-28T12:46:54Z</time>
      </trkpt>
      <trkpt lat="41.69292" lon="9.00253">
        <ele>500.02</ele>
        <time>2022-04-28T12:47:10Z</time>
      </trkpt>
      <trkpt lat="41.6928" lon="9.00262">
        <ele>501.95</ele>
        <time>2022-04-28T12:47:28Z</time>
      </trkpt>
      <trkpt lat="41.69271" lon="9.00274">
        <ele>504.35</ele>
        <time>2022-04-28T12:47:45Z</time>
      </trkpt>
      <trkpt lat="41.69261" lon="9.00282">
        <ele>506.75</ele>
        <time>2022-04-28T12:48:03Z</time>
      </trkpt>
      <trkpt lat="41.6926" lon="9.00283">
        <ele>507.23</ele>
        <time>2022-04-28T12:48:05Z</time>
      </trkpt>
      <trkpt lat="41.69258" lon="9.00285">
        <ele>507.23</ele>
        <time>2022-04-28T12:48:06Z</time>
      </trkpt>
      <trkpt lat="41.6924" lon="9.00297">
        <ele>507.71</ele>
        <time>2022-04-28T12:48:24Z</time>
      </trkpt>
      <trkpt lat="41.69216" lon="9.00295">
        <ele>508.19</ele>
        <time>2022-04-28T12:48:44Z</time>
      </trkpt>
      <trkpt lat="41.69196" lon="9.00296">
        <ele>510.12</ele>
        <time>2022-04-28T12:49:02Z</time>
      </trkpt>
      <trkpt lat="41.69175" lon="9.00289">
        <ele>511.56</ele>
        <time>2022-04-28T12:49:21Z</time>
      </trkpt>
      <trkpt lat="41.69158" lon="9.0028">
        <ele>514.44</ele>
        <time>2022-04-28T12:49:38Z</time>
      </trkpt>
      <trkpt lat="41.69154" lon="9.00279">
        <ele>514.92</ele>
        <time>2022-04-28T12:49:42Z</time>
      </trkpt>
      <trkpt lat="41.69134" lon="9.00281">
        <ele>515.4</ele>
        <time>2022-04-28T12:50:00Z</time>
      </trkpt>
      <trkpt lat="41.69132" lon="9.00282">
        <ele>514.92</ele>
        <time>2022-04-28T12:50:01Z</time>
      </trkpt>
      <trkpt lat="41.6911" lon="9.00292">
        <ele>515.4</ele>
        <time>2022-04-28T12:50:19Z</time>
      </trkpt>
      <trkpt lat="41.69105" lon="9.00292">
        <ele>515.88</ele>
        <time>2022-04-28T12:50:34Z</time>
      </trkpt>
      <trkpt lat="41.69104" lon="9.00292">
        <ele>515.88</ele>
        <time>2022-04-28T12:50:42Z</time>
      </trkpt>
      <trkpt lat="41.69099" lon="9.00297">
        <ele>515.4</ele>
        <time>2022-04-28T12:50:48Z</time>
      </trkpt>
      <trkpt lat="41.69076" lon="9.00304">
        <ele>516.85</ele>
        <time>2022-04-28T12:51:07Z</time>
      </trkpt>
      <trkpt lat="41.69071" lon="9.00306">
        <ele>516.85</ele>
        <time>2022-04-28T12:51:12Z</time>
      </trkpt>
      <trkpt lat="41.69069" lon="9.00306">
        <ele>517.33</ele>
        <time>2022-04-28T12:51:13Z</time>
      </trkpt>
      <trkpt lat="41.69068" lon="9.00305">
        <ele>517.33</ele>
        <time>2022-04-28T12:51:14Z</time>
      </trkpt>
      <trkpt lat="41.69062" lon="9.00304">
        <ele>517.81</ele>
        <time>2022-04-28T12:51:26Z</time>
      </trkpt>
      <trkpt lat="41.69059" lon="9.00302">
        <ele>517.81</ele>
        <time>2022-04-28T12:51:42Z</time>
      </trkpt>
      <trkpt lat="41.69056" lon="9.00302">
        <ele>517.81</ele>
        <time>2022-04-28T12:51:50Z</time>
      </trkpt>
      <trkpt lat="41.69039" lon="9.00312">
        <ele>518.77</ele>
        <time>2022-04-28T12:52:08Z</time>
      </trkpt>
      <trkpt lat="41.69038" lon="9.00312">
        <ele>519.25</ele>
        <time>2022-04-28T12:52:09Z</time>
      </trkpt>
      <trkpt lat="41.69038" lon="9.00313">
        <ele>518.77</ele>
        <time>2022-04-28T12:52:10Z</time>
      </trkpt>
      <trkpt lat="41.69025" lon="9.0032">
        <ele>520.21</ele>
        <time>2022-04-28T12:52:25Z</time>
      </trkpt>
      <trkpt lat="41.69022" lon="9.00323">
        <ele>522.13</ele>
        <time>2022-04-28T12:52:38Z</time>
      </trkpt>
      <trkpt lat="41.6902" lon="9.00324">
        <ele>521.17</ele>
        <time>2022-04-28T12:52:48Z</time>
      </trkpt>
      <trkpt lat="41.69014" lon="9.00336">
        <ele>523.09</ele>
        <time>2022-04-28T12:53:02Z</time>
      </trkpt>
      <trkpt lat="41.69011" lon="9.00346">
        <ele>525.5</ele>
        <time>2022-04-28T12:53:16Z</time>
      </trkpt>
      <trkpt lat="41.6901" lon="9.00347">
        <ele>526.46</ele>
        <time>2022-04-28T12:53:18Z</time>
      </trkpt>
      <trkpt lat="41.69002" lon="9.00356">
        <ele>529.34</ele>
        <time>2022-04-28T12:53:35Z</time>
      </trkpt>
      <trkpt lat="41.68996" lon="9.00361">
        <ele>531.75</ele>
        <time>2022-04-28T12:53:48Z</time>
      </trkpt>
      <trkpt lat="41.68989" lon="9.00369">
        <ele>533.19</ele>
        <time>2022-04-28T12:54:02Z</time>
      </trkpt>
      <trkpt lat="41.68984" lon="9.00378">
        <ele>534.63</ele>
        <time>2022-04-28T12:54:16Z</time>
      </trkpt>
      <trkpt lat="41.68978" lon="9.00388">
        <ele>537.03</ele>
        <time>2022-04-28T12:54:30Z</time>
      </trkpt>
      <trkpt lat="41.68972" lon="9.00398">
        <ele>537.99</ele>
        <time>2022-04-28T12:54:41Z</time>
      </trkpt>
      <trkpt lat="41.68971" lon="9.00399">
        <ele>538.48</ele>
        <time>2022-04-28T12:54:42Z</time>
      </trkpt>
      <trkpt lat="41.68957" lon="9.00414">
        <ele>538.48</ele>
        <time>2022-04-28T12:54:58Z</time>
      </trkpt>
      <trkpt lat="41.68949" lon="9.00424">
        <ele>538.96</ele>
        <time>2022-04-28T12:55:10Z</time>
      </trkpt>
      <trkpt lat="41.68945" lon="9.00434">
        <ele>537.99</ele>
        <time>2022-04-28T12:55:24Z</time>
      </trkpt>
      <trkpt lat="41.68942" lon="9.00441">
        <ele>537.51</ele>
        <time>2022-04-28T12:55:46Z</time>
      </trkpt>
      <trkpt lat="41.6894" lon="9.00446">
        <ele>537.03</ele>
        <time>2022-04-28T12:55:49Z</time>
      </trkpt>
      <trkpt lat="41.6894" lon="9.00447">
        <ele>537.51</ele>
        <time>2022-04-28T12:55:50Z</time>
      </trkpt>
      <trkpt lat="41.68939" lon="9.00449">
        <ele>537.03</ele>
        <time>2022-04-28T12:55:51Z</time>
      </trkpt>
      <trkpt lat="41.68939" lon="9.0045">
        <ele>536.55</ele>
        <time>2022-04-28T12:55:52Z</time>
      </trkpt>
      <trkpt lat="41.68938" lon="9.00452">
        <ele>536.55</ele>
        <time>2022-04-28T12:55:53Z</time>
      </trkpt>
      <trkpt lat="41.68937" lon="9.00453">
        <ele>536.55</ele>
        <time>2022-04-28T12:55:54Z</time>
      </trkpt>
      <trkpt lat="41.68935" lon="9.00454">
        <ele>536.55</ele>
        <time>2022-04-28T12:55:55Z</time>
      </trkpt>
      <trkpt lat="41.68931" lon="9.00464">
        <ele>535.59</ele>
        <time>2022-04-28T12:56:02Z</time>
      </trkpt>
      <trkpt lat="41.68929" lon="9.00491">
        <ele>534.63</ele>
        <time>2022-04-28T12:56:19Z</time>
      </trkpt>
      <trkpt lat="41.68928" lon="9.0051">
        <ele>534.15</ele>
        <time>2022-04-28T12:56:35Z</time>
      </trkpt>
      <trkpt lat="41.68927" lon="9.00514">
        <ele>534.15</ele>
        <time>2022-04-28T12:56:38Z</time>
      </trkpt>
      <trkpt lat="41.68926" lon="9.00515">
        <ele>533.67</ele>
        <time>2022-04-28T12:56:39Z</time>
      </trkpt>
      <trkpt lat="41.68924" lon="9.00521">
        <ele>533.67</ele>
        <time>2022-04-28T12:56:45Z</time>
      </trkpt>
      <trkpt lat="41.68924" lon="9.00522">
        <ele>533.19</ele>
        <time>2022-04-28T12:56:46Z</time>
      </trkpt>
      <trkpt lat="41.68913" lon="9.0054">
        <ele>532.71</ele>
        <time>2022-04-28T12:57:00Z</time>
      </trkpt>
      <trkpt lat="41.68892" lon="9.00556">
        <ele>531.75</ele>
        <time>2022-04-28T12:57:18Z</time>
      </trkpt>
      <trkpt lat="41.6889" lon="9.00556">
        <ele>532.23</ele>
        <time>2022-04-28T12:57:20Z</time>
      </trkpt>
      <trkpt lat="41.68888" lon="9.00556">
        <ele>532.23</ele>
        <time>2022-04-28T12:57:21Z</time>
      </trkpt>
      <trkpt lat="41.68887" lon="9.00557">
        <ele>532.23</ele>
        <time>2022-04-28T12:57:22Z</time>
      </trkpt>
      <trkpt lat="41.68885" lon="9.00558">
        <ele>532.23</ele>
        <time>2022-04-28T12:57:23Z</time>
      </trkpt>
      <trkpt lat="41.68884" lon="9.00559">
        <ele>532.71</ele>
        <time>2022-04-28T12:57:24Z</time>
      </trkpt>
      <trkpt lat="41.68864" lon="9.00565">
        <ele>532.23</ele>
        <time>2022-04-28T12:57:40Z</time>
      </trkpt>
      <trkpt lat="41.68843" lon="9.00569">
        <ele>532.71</ele>
        <time>2022-04-28T12:57:57Z</time>
      </trkpt>
      <trkpt lat="41.68831" lon="9.0057">
        <ele>532.23</ele>
        <time>2022-04-28T12:58:12Z</time>
      </trkpt>
      <trkpt lat="41.68824" lon="9.00571">
        <ele>532.23</ele>
        <time>2022-04-28T12:58:21Z</time>
      </trkpt>
      <trkpt lat="41.68816" lon="9.00582">
        <ele>533.19</ele>
        <time>2022-04-28T12:58:32Z</time>
      </trkpt>
      <trkpt lat="41.68815" lon="9.00583">
        <ele>533.19</ele>
        <time>2022-04-28T12:58:33Z</time>
      </trkpt>
      <trkpt lat="41.688" lon="9.00602">
        <ele>534.15</ele>
        <time>2022-04-28T12:58:51Z</time>
      </trkpt>
      <trkpt lat="41.6879" lon="9.0062">
        <ele>532.71</ele>
        <time>2022-04-28T12:59:06Z</time>
      </trkpt>
      <trkpt lat="41.68772" lon="9.00631">
        <ele>531.27</ele>
        <time>2022-04-28T12:59:25Z</time>
      </trkpt>
      <trkpt lat="41.68771" lon="9.00634">
        <ele>531.27</ele>
        <time>2022-04-28T12:59:37Z</time>
      </trkpt>
      <trkpt lat="41.6877" lon="9.00638">
        <ele>531.27</ele>
        <time>2022-04-28T12:59:48Z</time>
      </trkpt>
      <trkpt lat="41.68764" lon="9.00672">
        <ele>531.27</ele>
        <time>2022-04-28T13:00:07Z</time>
      </trkpt>
      <trkpt lat="41.6876" lon="9.00694">
        <ele>532.23</ele>
        <time>2022-04-28T13:00:20Z</time>
      </trkpt>
      <trkpt lat="41.68755" lon="9.00723">
        <ele>533.19</ele>
        <time>2022-04-28T13:00:37Z</time>
      </trkpt>
      <trkpt lat="41.68754" lon="9.00728">
        <ele>532.71</ele>
        <time>2022-04-28T13:00:40Z</time>
      </trkpt>
      <trkpt lat="41.68753" lon="9.0075">
        <ele>534.15</ele>
        <time>2022-04-28T13:00:55Z</time>
      </trkpt>
      <trkpt lat="41.68749" lon="9.00769">
        <ele>535.59</ele>
        <time>2022-04-28T13:01:09Z</time>
      </trkpt>
      <trkpt lat="41.68748" lon="9.00788">
        <ele>537.99</ele>
        <time>2022-04-28T13:01:25Z</time>
      </trkpt>
      <trkpt lat="41.6875" lon="9.00806">
        <ele>539.92</ele>
        <time>2022-04-28T13:01:39Z</time>
      </trkpt>
      <trkpt lat="41.68754" lon="9.00824">
        <ele>541.84</ele>
        <time>2022-04-28T13:01:55Z</time>
      </trkpt>
      <trkpt lat="41.68757" lon="9.00842">
        <ele>543.28</ele>
        <time>2022-04-28T13:02:10Z</time>
      </trkpt>
      <trkpt lat="41.6876" lon="9.00863">
        <ele>544.72</ele>
        <time>2022-04-28T13:02:26Z</time>
      </trkpt>
      <trkpt lat="41.6876" lon="9.00872">
        <ele>545.69</ele>
        <time>2022-04-28T13:02:33Z</time>
      </trkpt>
      <trkpt lat="41.68764" lon="9.00898">
        <ele>544.72</ele>
        <time>2022-04-28T13:02:50Z</time>
      </trkpt>
      <trkpt lat="41.68769" lon="9.0092">
        <ele>544.24</ele>
        <time>2022-04-28T13:03:06Z</time>
      </trkpt>
      <trkpt lat="41.68773" lon="9.00938">
        <ele>544.24</ele>
        <time>2022-04-28T13:03:17Z</time>
      </trkpt>
      <trkpt lat="41.68782" lon="9.00963">
        <ele>543.28</ele>
        <time>2022-04-28T13:03:34Z</time>
      </trkpt>
      <trkpt lat="41.68786" lon="9.00973">
        <ele>542.8</ele>
        <time>2022-04-28T13:03:41Z</time>
      </trkpt>
      <trkpt lat="41.68783" lon="9.00981">
        <ele>542.8</ele>
        <time>2022-04-28T13:03:47Z</time>
      </trkpt>
      <trkpt lat="41.6878" lon="9.00987">
        <ele>543.76</ele>
        <time>2022-04-28T13:03:53Z</time>
      </trkpt>
      <trkpt lat="41.68774" lon="9.01015">
        <ele>544.24</ele>
        <time>2022-04-28T13:04:10Z</time>
      </trkpt>
      <trkpt lat="41.68769" lon="9.01034">
        <ele>544.24</ele>
        <time>2022-04-28T13:04:23Z</time>
      </trkpt>
      <trkpt lat="41.68767" lon="9.01052">
        <ele>546.17</ele>
        <time>2022-04-28T13:04:38Z</time>
      </trkpt>
      <trkpt lat="41.68765" lon="9.01073">
        <ele>547.13</ele>
        <time>2022-04-28T13:04:53Z</time>
      </trkpt>
      <trkpt lat="41.68759" lon="9.01082">
        <ele>545.69</ele>
        <time>2022-04-28T13:05:05Z</time>
      </trkpt>
      <trkpt lat="41.68758" lon="9.01078">
        <ele>546.17</ele>
        <time>2022-04-28T13:05:18Z</time>
      </trkpt>
      <trkpt lat="41.68758" lon="9.01085">
        <ele>545.69</ele>
        <time>2022-04-28T13:05:29Z</time>
      </trkpt>
      <trkpt lat="41.68757" lon="9.01086">
        <ele>545.2</ele>
        <time>2022-04-28T13:05:30Z</time>
      </trkpt>
      <trkpt lat="41.68753" lon="9.01093">
        <ele>543.76</ele>
        <time>2022-04-28T13:05:36Z</time>
      </trkpt>
      <trkpt lat="41.68753" lon="9.01095">
        <ele>543.76</ele>
        <time>2022-04-28T13:05:37Z</time>
      </trkpt>
      <trkpt lat="41.68753" lon="9.01096">
        <ele>543.28</ele>
        <time>2022-04-28T13:05:38Z</time>
      </trkpt>
      <trkpt lat="41.68751" lon="9.01109">
        <ele>543.76</ele>
        <time>2022-04-28T13:05:46Z</time>
      </trkpt>
      <trkpt lat="41.68753" lon="9.01128">
        <ele>545.2</ele>
        <time>2022-04-28T13:06:00Z</time>
      </trkpt>
      <trkpt lat="41.68754" lon="9.01152">
        <ele>546.65</ele>
        <time>2022-04-28T13:06:18Z</time>
      </trkpt>
      <trkpt lat="41.68757" lon="9.01169">
        <ele>548.09</ele>
        <time>2022-04-28T13:06:32Z</time>
      </trkpt>
      <trkpt lat="41.68761" lon="9.01189">
        <ele>549.53</ele>
        <time>2022-04-28T13:06:48Z</time>
      </trkpt>
      <trkpt lat="41.68764" lon="9.01204">
        <ele>550.97</ele>
        <time>2022-04-28T13:07:03Z</time>
      </trkpt>
      <trkpt lat="41.68769" lon="9.01216">
        <ele>553.38</ele>
        <time>2022-04-28T13:07:18Z</time>
      </trkpt>
      <trkpt lat="41.6877" lon="9.0123">
        <ele>555.3</ele>
        <time>2022-04-28T13:07:31Z</time>
      </trkpt>
      <trkpt lat="41.6877" lon="9.01243">
        <ele>557.22</ele>
        <time>2022-04-28T13:07:45Z</time>
      </trkpt>
      <trkpt lat="41.68775" lon="9.01255">
        <ele>560.11</ele>
        <time>2022-04-28T13:08:01Z</time>
      </trkpt>
      <trkpt lat="41.68782" lon="9.0126">
        <ele>560.11</ele>
        <time>2022-04-28T13:08:09Z</time>
      </trkpt>
      <trkpt lat="41.68786" lon="9.01262">
        <ele>561.55</ele>
        <time>2022-04-28T13:08:13Z</time>
      </trkpt>
      <trkpt lat="41.68799" lon="9.01272">
        <ele>563.95</ele>
        <time>2022-04-28T13:08:30Z</time>
      </trkpt>
      <trkpt lat="41.68809" lon="9.01284">
        <ele>566.83</ele>
        <time>2022-04-28T13:08:47Z</time>
      </trkpt>
      <trkpt lat="41.6882" lon="9.01297">
        <ele>569.72</ele>
        <time>2022-04-28T13:09:03Z</time>
      </trkpt>
      <trkpt lat="41.68829" lon="9.01304">
        <ele>571.64</ele>
        <time>2022-04-28T13:09:17Z</time>
      </trkpt>
      <trkpt lat="41.68836" lon="9.01304">
        <ele>572.6</ele>
        <time>2022-04-28T13:09:35Z</time>
      </trkpt>
      <trkpt lat="41.68831" lon="9.01303">
        <ele>572.6</ele>
        <time>2022-04-28T13:09:57Z</time>
      </trkpt>
      <trkpt lat="41.68833" lon="9.01305">
        <ele>573.08</ele>
        <time>2022-04-28T13:10:25Z</time>
      </trkpt>
      <trkpt lat="41.68832" lon="9.01303">
        <ele>573.08</ele>
        <time>2022-04-28T13:10:51Z</time>
      </trkpt>
      <trkpt lat="41.68832" lon="9.01304">
        <ele>572.6</ele>
        <time>2022-04-28T13:11:19Z</time>
      </trkpt>
      <trkpt lat="41.68833" lon="9.01308">
        <ele>572.6</ele>
        <time>2022-04-28T13:11:42Z</time>
      </trkpt>
      <trkpt lat="41.68846" lon="9.01305">
        <ele>574.53</ele>
        <time>2022-04-28T13:12:00Z</time>
      </trkpt>
      <trkpt lat="41.68857" lon="9.01304">
        <ele>577.89</ele>
        <time>2022-04-28T13:12:13Z</time>
      </trkpt>
      <trkpt lat="41.6887" lon="9.01303">
        <ele>580.77</ele>
        <time>2022-04-28T13:12:28Z</time>
      </trkpt>
      <trkpt lat="41.68881" lon="9.013">
        <ele>584.14</ele>
        <time>2022-04-28T13:12:44Z</time>
      </trkpt>
      <trkpt lat="41.68893" lon="9.013">
        <ele>587.02</ele>
        <time>2022-04-28T13:12:58Z</time>
      </trkpt>
      <trkpt lat="41.68906" lon="9.01301">
        <ele>590.39</ele>
        <time>2022-04-28T13:13:15Z</time>
      </trkpt>
      <trkpt lat="41.68914" lon="9.01299">
        <ele>592.31</ele>
        <time>2022-04-28T13:13:31Z</time>
      </trkpt>
      <trkpt lat="41.68923" lon="9.01301">
        <ele>595.19</ele>
        <time>2022-04-28T13:13:46Z</time>
      </trkpt>
      <trkpt lat="41.68931" lon="9.01303">
        <ele>598.56</ele>
        <time>2022-04-28T13:13:56Z</time>
      </trkpt>
      <trkpt lat="41.68942" lon="9.01303">
        <ele>601.92</ele>
        <time>2022-04-28T13:14:16Z</time>
      </trkpt>
      <trkpt lat="41.68952" lon="9.01306">
        <ele>603.85</ele>
        <time>2022-04-28T13:14:33Z</time>
      </trkpt>
      <trkpt lat="41.68958" lon="9.01307">
        <ele>606.73</ele>
        <time>2022-04-28T13:14:45Z</time>
      </trkpt>
      <trkpt lat="41.68965" lon="9.01318">
        <ele>609.61</ele>
        <time>2022-04-28T13:15:02Z</time>
      </trkpt>
      <trkpt lat="41.68971" lon="9.01327">
        <ele>612.98</ele>
        <time>2022-04-28T13:15:17Z</time>
      </trkpt>
      <trkpt lat="41.6898" lon="9.01338">
        <ele>615.86</ele>
        <time>2022-04-28T13:15:34Z</time>
      </trkpt>
      <trkpt lat="41.68991" lon="9.01345">
        <ele>619.23</ele>
        <time>2022-04-28T13:15:51Z</time>
      </trkpt>
      <trkpt lat="41.68999" lon="9.01352">
        <ele>622.11</ele>
        <time>2022-04-28T13:16:07Z</time>
      </trkpt>
      <trkpt lat="41.69002" lon="9.01358">
        <ele>623.55</ele>
        <time>2022-04-28T13:16:16Z</time>
      </trkpt>
      <trkpt lat="41.69002" lon="9.0136">
        <ele>623.07</ele>
        <time>2022-04-28T13:16:17Z</time>
      </trkpt>
      <trkpt lat="41.69002" lon="9.01362">
        <ele>623.55</ele>
        <time>2022-04-28T13:16:18Z</time>
      </trkpt>
      <trkpt lat="41.69006" lon="9.01378">
        <ele>625.47</ele>
        <time>2022-04-28T13:16:34Z</time>
      </trkpt>
      <trkpt lat="41.69007" lon="9.01396">
        <ele>627.88</ele>
        <time>2022-04-28T13:16:49Z</time>
      </trkpt>
      <trkpt lat="41.69013" lon="9.01412">
        <ele>630.28</ele>
        <time>2022-04-28T13:17:04Z</time>
      </trkpt>
      <trkpt lat="41.69019" lon="9.01425">
        <ele>633.17</ele>
        <time>2022-04-28T13:17:21Z</time>
      </trkpt>
      <trkpt lat="41.69018" lon="9.01426">
        <ele>632.2</ele>
        <time>2022-04-28T13:17:51Z</time>
      </trkpt>
      <trkpt lat="41.69025" lon="9.01434">
        <ele>633.65</ele>
        <time>2022-04-28T13:18:17Z</time>
      </trkpt>
      <trkpt lat="41.69034" lon="9.0145">
        <ele>636.05</ele>
        <time>2022-04-28T13:18:34Z</time>
      </trkpt>
      <trkpt lat="41.69035" lon="9.01451">
        <ele>636.53</ele>
        <time>2022-04-28T13:18:35Z</time>
      </trkpt>
      <trkpt lat="41.69035" lon="9.01452">
        <ele>637.49</ele>
        <time>2022-04-28T13:18:36Z</time>
      </trkpt>
      <trkpt lat="41.69045" lon="9.01464">
        <ele>639.89</ele>
        <time>2022-04-28T13:18:50Z</time>
      </trkpt>
      <trkpt lat="41.69048" lon="9.01467">
        <ele>640.86</ele>
        <time>2022-04-28T13:18:54Z</time>
      </trkpt>
      <trkpt lat="41.6905" lon="9.01468">
        <ele>640.38</ele>
        <time>2022-04-28T13:18:56Z</time>
      </trkpt>
      <trkpt lat="41.69062" lon="9.01481">
        <ele>643.26</ele>
        <time>2022-04-28T13:19:12Z</time>
      </trkpt>
      <trkpt lat="41.69073" lon="9.015">
        <ele>645.18</ele>
        <time>2022-04-28T13:19:30Z</time>
      </trkpt>
      <trkpt lat="41.69078" lon="9.01515">
        <ele>643.74</ele>
        <time>2022-04-28T13:19:40Z</time>
      </trkpt>
      <trkpt lat="41.69079" lon="9.01524">
        <ele>644.22</ele>
        <time>2022-04-28T13:19:59Z</time>
      </trkpt>
      <trkpt lat="41.69082" lon="9.01526">
        <ele>643.74</ele>
        <time>2022-04-28T13:20:12Z</time>
      </trkpt>
      <trkpt lat="41.691" lon="9.0154">
        <ele>644.7</ele>
        <time>2022-04-28T13:20:29Z</time>
      </trkpt>
      <trkpt lat="41.69121" lon="9.01551">
        <ele>646.14</ele>
        <time>2022-04-28T13:20:47Z</time>
      </trkpt>
      <trkpt lat="41.69142" lon="9.01559">
        <ele>647.1</ele>
        <time>2022-04-28T13:21:05Z</time>
      </trkpt>
      <trkpt lat="41.69166" lon="9.01571">
        <ele>648.07</ele>
        <time>2022-04-28T13:21:24Z</time>
      </trkpt>
      <trkpt lat="41.69186" lon="9.0158">
        <ele>647.1</ele>
        <time>2022-04-28T13:21:40Z</time>
      </trkpt>
      <trkpt lat="41.69208" lon="9.01597">
        <ele>646.14</ele>
        <time>2022-04-28T13:21:58Z</time>
      </trkpt>
      <trkpt lat="41.69223" lon="9.01609">
        <ele>647.1</ele>
        <time>2022-04-28T13:22:12Z</time>
      </trkpt>
      <trkpt lat="41.69238" lon="9.01619">
        <ele>646.62</ele>
        <time>2022-04-28T13:22:24Z</time>
      </trkpt>
      <trkpt lat="41.69239" lon="9.0162">
        <ele>647.1</ele>
        <time>2022-04-28T13:22:25Z</time>
      </trkpt>
      <trkpt lat="41.69255" lon="9.01632">
        <ele>647.1</ele>
        <time>2022-04-28T13:22:40Z</time>
      </trkpt>
      <trkpt lat="41.69256" lon="9.01634">
        <ele>647.1</ele>
        <time>2022-04-28T13:22:41Z</time>
      </trkpt>
      <trkpt lat="41.6927" lon="9.01649">
        <ele>648.07</ele>
        <time>2022-04-28T13:22:57Z</time>
      </trkpt>
      <trkpt lat="41.69282" lon="9.01664">
        <ele>650.95</ele>
        <time>2022-04-28T13:23:13Z</time>
      </trkpt>
      <trkpt lat="41.69282" lon="9.01665">
        <ele>650.47</ele>
        <time>2022-04-28T13:23:14Z</time>
      </trkpt>
      <trkpt lat="41.69283" lon="9.01667">
        <ele>650.47</ele>
        <time>2022-04-28T13:23:15Z</time>
      </trkpt>
      <trkpt lat="41.69289" lon="9.01678">
        <ele>649.99</ele>
        <time>2022-04-28T13:23:23Z</time>
      </trkpt>
      <trkpt lat="41.69303" lon="9.01677">
        <ele>649.51</ele>
        <time>2022-04-28T13:23:38Z</time>
      </trkpt>
      <trkpt lat="41.6931" lon="9.01685">
        <ele>649.99</ele>
        <time>2022-04-28T13:23:49Z</time>
      </trkpt>
      <trkpt lat="41.69311" lon="9.017">
        <ele>650.95</ele>
        <time>2022-04-28T13:24:05Z</time>
      </trkpt>
      <trkpt lat="41.69316" lon="9.01717">
        <ele>651.91</ele>
        <time>2022-04-28T13:24:20Z</time>
      </trkpt>
      <trkpt lat="41.69319" lon="9.01732">
        <ele>654.8</ele>
        <time>2022-04-28T13:24:34Z</time>
      </trkpt>
      <trkpt lat="41.69323" lon="9.01757">
        <ele>655.76</ele>
        <time>2022-04-28T13:24:51Z</time>
      </trkpt>
      <trkpt lat="41.69327" lon="9.01775">
        <ele>656.72</ele>
        <time>2022-04-28T13:25:05Z</time>
      </trkpt>
      <trkpt lat="41.69331" lon="9.01801">
        <ele>659.12</ele>
        <time>2022-04-28T13:25:23Z</time>
      </trkpt>
      <trkpt lat="41.69331" lon="9.01816">
        <ele>658.64</ele>
        <time>2022-04-28T13:25:34Z</time>
      </trkpt>
      <trkpt lat="41.69331" lon="9.01818">
        <ele>658.64</ele>
        <time>2022-04-28T13:25:35Z</time>
      </trkpt>
      <trkpt lat="41.69331" lon="9.0182">
        <ele>658.64</ele>
        <time>2022-04-28T13:25:36Z</time>
      </trkpt>
      <trkpt lat="41.69332" lon="9.01821">
        <ele>659.12</ele>
        <time>2022-04-28T13:25:37Z</time>
      </trkpt>
      <trkpt lat="41.69333" lon="9.01831">
        <ele>659.6</ele>
        <time>2022-04-28T13:25:44Z</time>
      </trkpt>
      <trkpt lat="41.69334" lon="9.01833">
        <ele>659.6</ele>
        <time>2022-04-28T13:25:46Z</time>
      </trkpt>
      <trkpt lat="41.69335" lon="9.01839">
        <ele>659.6</ele>
        <time>2022-04-28T13:25:50Z</time>
      </trkpt>
      <trkpt lat="41.69335" lon="9.01841">
        <ele>659.6</ele>
        <time>2022-04-28T13:25:51Z</time>
      </trkpt>
      <trkpt lat="41.69335" lon="9.01842">
        <ele>659.6</ele>
        <time>2022-04-28T13:25:52Z</time>
      </trkpt>
      <trkpt lat="41.69336" lon="9.01854">
        <ele>659.12</ele>
        <time>2022-04-28T13:25:59Z</time>
      </trkpt>
      <trkpt lat="41.69336" lon="9.01856">
        <ele>659.6</ele>
        <time>2022-04-28T13:26:00Z</time>
      </trkpt>
      <trkpt lat="41.69337" lon="9.01857">
        <ele>659.12</ele>
        <time>2022-04-28T13:26:01Z</time>
      </trkpt>
      <trkpt lat="41.69337" lon="9.01859">
        <ele>659.12</ele>
        <time>2022-04-28T13:26:02Z</time>
      </trkpt>
      <trkpt lat="41.69337" lon="9.0186">
        <ele>658.64</ele>
        <time>2022-04-28T13:26:03Z</time>
      </trkpt>
      <trkpt lat="41.69338" lon="9.01862">
        <ele>659.12</ele>
        <time>2022-04-28T13:26:04Z</time>
      </trkpt>
      <trkpt lat="41.69338" lon="9.01863">
        <ele>658.64</ele>
        <time>2022-04-28T13:26:05Z</time>
      </trkpt>
      <trkpt lat="41.69338" lon="9.01865">
        <ele>658.64</ele>
        <time>2022-04-28T13:26:06Z</time>
      </trkpt>
      <trkpt lat="41.69342" lon="9.01892">
        <ele>658.64</ele>
        <time>2022-04-28T13:26:23Z</time>
      </trkpt>
      <trkpt lat="41.69352" lon="9.01912">
        <ele>658.16</ele>
        <time>2022-04-28T13:26:40Z</time>
      </trkpt>
      <trkpt lat="41.69355" lon="9.01916">
        <ele>659.12</ele>
        <time>2022-04-28T13:26:44Z</time>
      </trkpt>
      <trkpt lat="41.69356" lon="9.01917">
        <ele>659.12</ele>
        <time>2022-04-28T13:26:45Z</time>
      </trkpt>
      <trkpt lat="41.69356" lon="9.01919">
        <ele>659.12</ele>
        <time>2022-04-28T13:26:46Z</time>
      </trkpt>
      <trkpt lat="41.69366" lon="9.01927">
        <ele>659.6</ele>
        <time>2022-04-28T13:26:57Z</time>
      </trkpt>
      <trkpt lat="41.69367" lon="9.01928">
        <ele>658.64</ele>
        <time>2022-04-28T13:26:58Z</time>
      </trkpt>
      <trkpt lat="41.69368" lon="9.01929">
        <ele>658.64</ele>
        <time>2022-04-28T13:26:59Z</time>
      </trkpt>
      <trkpt lat="41.69382" lon="9.01945">
        <ele>657.2</ele>
        <time>2022-04-28T13:27:16Z</time>
      </trkpt>
      <trkpt lat="41.6939" lon="9.01959">
        <ele>659.6</ele>
        <time>2022-04-28T13:27:27Z</time>
      </trkpt>
      <trkpt lat="41.6939" lon="9.01961">
        <ele>659.12</ele>
        <time>2022-04-28T13:27:28Z</time>
      </trkpt>
      <trkpt lat="41.69402" lon="9.01983">
        <ele>659.6</ele>
        <time>2022-04-28T13:27:45Z</time>
      </trkpt>
      <trkpt lat="41.69414" lon="9.02003">
        <ele>660.56</ele>
        <time>2022-04-28T13:28:02Z</time>
      </trkpt>
      <trkpt lat="41.69423" lon="9.02021">
        <ele>662.01</ele>
        <time>2022-04-28T13:28:18Z</time>
      </trkpt>
      <trkpt lat="41.69425" lon="9.02024">
        <ele>662.97</ele>
        <time>2022-04-28T13:28:21Z</time>
      </trkpt>
      <trkpt lat="41.69437" lon="9.02041">
        <ele>665.37</ele>
        <time>2022-04-28T13:28:40Z</time>
      </trkpt>
      <trkpt lat="41.69441" lon="9.02052">
        <ele>666.81</ele>
        <time>2022-04-28T13:28:56Z</time>
      </trkpt>
      <trkpt lat="41.6945" lon="9.02066">
        <ele>669.22</ele>
        <time>2022-04-28T13:29:13Z</time>
      </trkpt>
      <trkpt lat="41.69458" lon="9.02082">
        <ele>671.14</ele>
        <time>2022-04-28T13:29:29Z</time>
      </trkpt>
      <trkpt lat="41.69467" lon="9.02094">
        <ele>673.54</ele>
        <time>2022-04-28T13:29:43Z</time>
      </trkpt>
      <trkpt lat="41.69473" lon="9.02102">
        <ele>674.5</ele>
        <time>2022-04-28T13:29:52Z</time>
      </trkpt>
      <trkpt lat="41.69484" lon="9.02116">
        <ele>676.42</ele>
        <time>2022-04-28T13:30:09Z</time>
      </trkpt>
      <trkpt lat="41.69491" lon="9.0212">
        <ele>678.83</ele>
        <time>2022-04-28T13:30:24Z</time>
      </trkpt>
      <trkpt lat="41.69493" lon="9.02124">
        <ele>678.83</ele>
        <time>2022-04-28T13:30:53Z</time>
      </trkpt>
      <trkpt lat="41.69501" lon="9.02122">
        <ele>680.75</ele>
        <time>2022-04-28T13:31:08Z</time>
      </trkpt>
      <trkpt lat="41.69513" lon="9.02119">
        <ele>682.19</ele>
        <time>2022-04-28T13:31:24Z</time>
      </trkpt>
      <trkpt lat="41.69525" lon="9.0212">
        <ele>684.6</ele>
        <time>2022-04-28T13:31:41Z</time>
      </trkpt>
      <trkpt lat="41.69531" lon="9.02117">
        <ele>686.04</ele>
        <time>2022-04-28T13:31:54Z</time>
      </trkpt>
      <trkpt lat="41.69542" lon="9.02116">
        <ele>689.4</ele>
        <time>2022-04-28T13:32:10Z</time>
      </trkpt>
      <trkpt lat="41.69548" lon="9.02118">
        <ele>691.33</ele>
        <time>2022-04-28T13:32:25Z</time>
      </trkpt>
      <trkpt lat="41.69555" lon="9.02115">
        <ele>692.29</ele>
        <time>2022-04-28T13:32:39Z</time>
      </trkpt>
      <trkpt lat="41.69561" lon="9.02117">
        <ele>694.21</ele>
        <time>2022-04-28T13:32:52Z</time>
      </trkpt>
      <trkpt lat="41.69567" lon="9.02121">
        <ele>694.69</ele>
        <time>2022-04-28T13:33:06Z</time>
      </trkpt>
      <trkpt lat="41.6957" lon="9.02129">
        <ele>696.13</ele>
        <time>2022-04-28T13:33:20Z</time>
      </trkpt>
      <trkpt lat="41.69571" lon="9.0214">
        <ele>697.09</ele>
        <time>2022-04-28T13:33:35Z</time>
      </trkpt>
      <trkpt lat="41.69576" lon="9.0216">
        <ele>699.02</ele>
        <time>2022-04-28T13:33:54Z</time>
      </trkpt>
      <trkpt lat="41.69583" lon="9.02176">
        <ele>700.46</ele>
        <time>2022-04-28T13:34:11Z</time>
      </trkpt>
      <trkpt lat="41.69589" lon="9.02188">
        <ele>701.42</ele>
        <time>2022-04-28T13:34:27Z</time>
      </trkpt>
      <trkpt lat="41.69589" lon="9.02188">
        <ele>701.42</ele>
        <time>2022-04-28T13:34:46Z</time>
      </trkpt>
      <trkpt lat="41.69588" lon="9.02189">
        <ele>701.42</ele>
        <time>2022-04-28T13:35:13Z</time>
      </trkpt>
      <trkpt lat="41.69589" lon="9.02189">
        <ele>701.9</ele>
        <time>2022-04-28T13:35:43Z</time>
      </trkpt>
      <trkpt lat="41.69591" lon="9.02193">
        <ele>702.38</ele>
        <time>2022-04-28T13:36:08Z</time>
      </trkpt>
      <trkpt lat="41.69598" lon="9.02207">
        <ele>703.34</ele>
        <time>2022-04-28T13:36:24Z</time>
      </trkpt>
      <trkpt lat="41.69605" lon="9.02222">
        <ele>704.78</ele>
        <time>2022-04-28T13:36:40Z</time>
      </trkpt>
      <trkpt lat="41.69611" lon="9.02229">
        <ele>705.75</ele>
        <time>2022-04-28T13:36:54Z</time>
      </trkpt>
      <trkpt lat="41.69619" lon="9.02238">
        <ele>706.71</ele>
        <time>2022-04-28T13:37:07Z</time>
      </trkpt>
      <trkpt lat="41.6963" lon="9.02251">
        <ele>707.19</ele>
        <time>2022-04-28T13:37:22Z</time>
      </trkpt>
      <trkpt lat="41.6964" lon="9.02265">
        <ele>707.19</ele>
        <time>2022-04-28T13:37:36Z</time>
      </trkpt>
      <trkpt lat="41.69643" lon="9.02272">
        <ele>707.67</ele>
        <time>2022-04-28T13:37:53Z</time>
      </trkpt>
      <trkpt lat="41.69651" lon="9.02282">
        <ele>707.19</ele>
        <time>2022-04-28T13:38:21Z</time>
      </trkpt>
      <trkpt lat="41.69652" lon="9.02283">
        <ele>707.19</ele>
        <time>2022-04-28T13:38:22Z</time>
      </trkpt>
      <trkpt lat="41.6967" lon="9.02294">
        <ele>706.71</ele>
        <time>2022-04-28T13:38:41Z</time>
      </trkpt>
      <trkpt lat="41.69674" lon="9.02296">
        <ele>706.23</ele>
        <time>2022-04-28T13:39:04Z</time>
      </trkpt>
      <trkpt lat="41.6969" lon="9.02304">
        <ele>704.78</ele>
        <time>2022-04-28T13:39:21Z</time>
      </trkpt>
      <trkpt lat="41.69704" lon="9.02311">
        <ele>703.34</ele>
        <time>2022-04-28T13:39:37Z</time>
      </trkpt>
      <trkpt lat="41.69709" lon="9.02314">
        <ele>702.86</ele>
        <time>2022-04-28T13:39:42Z</time>
      </trkpt>
      <trkpt lat="41.6971" lon="9.02315">
        <ele>702.86</ele>
        <time>2022-04-28T13:39:43Z</time>
      </trkpt>
      <trkpt lat="41.69723" lon="9.02321">
        <ele>701.9</ele>
        <time>2022-04-28T13:39:58Z</time>
      </trkpt>
      <trkpt lat="41.69738" lon="9.02329">
        <ele>700.94</ele>
        <time>2022-04-28T13:40:13Z</time>
      </trkpt>
      <trkpt lat="41.69755" lon="9.02339">
        <ele>699.5</ele>
        <time>2022-04-28T13:40:30Z</time>
      </trkpt>
      <trkpt lat="41.69774" lon="9.02347">
        <ele>699.02</ele>
        <time>2022-04-28T13:40:49Z</time>
      </trkpt>
      <trkpt lat="41.69777" lon="9.02355">
        <ele>697.57</ele>
        <time>2022-04-28T13:41:04Z</time>
      </trkpt>
      <trkpt lat="41.69788" lon="9.02357">
        <ele>696.61</ele>
        <time>2022-04-28T13:41:26Z</time>
      </trkpt>
      <trkpt lat="41.69796" lon="9.02363">
        <ele>696.13</ele>
        <time>2022-04-28T13:41:34Z</time>
      </trkpt>
      <trkpt lat="41.69798" lon="9.02364">
        <ele>695.65</ele>
        <time>2022-04-28T13:41:35Z</time>
      </trkpt>
      <trkpt lat="41.69799" lon="9.02364">
        <ele>695.65</ele>
        <time>2022-04-28T13:41:36Z</time>
      </trkpt>
      <trkpt lat="41.698" lon="9.02365">
        <ele>695.65</ele>
        <time>2022-04-28T13:41:37Z</time>
      </trkpt>
      <trkpt lat="41.69812" lon="9.02375">
        <ele>694.69</ele>
        <time>2022-04-28T13:41:50Z</time>
      </trkpt>
      <trkpt lat="41.69813" lon="9.02375">
        <ele>694.21</ele>
        <time>2022-04-28T13:41:51Z</time>
      </trkpt>
      <trkpt lat="41.69814" lon="9.02376">
        <ele>694.69</ele>
        <time>2022-04-28T13:41:52Z</time>
      </trkpt>
      <trkpt lat="41.69816" lon="9.02377">
        <ele>693.73</ele>
        <time>2022-04-28T13:41:53Z</time>
      </trkpt>
      <trkpt lat="41.69817" lon="9.02378">
        <ele>693.73</ele>
        <time>2022-04-28T13:41:54Z</time>
      </trkpt>
      <trkpt lat="41.69818" lon="9.02379">
        <ele>693.73</ele>
        <time>2022-04-28T13:41:55Z</time>
      </trkpt>
      <trkpt lat="41.69819" lon="9.0238">
        <ele>693.25</ele>
        <time>2022-04-28T13:41:56Z</time>
      </trkpt>
      <trkpt lat="41.6982" lon="9.02381">
        <ele>693.73</ele>
        <time>2022-04-28T13:41:57Z</time>
      </trkpt>
      <trkpt lat="41.69821" lon="9.02382">
        <ele>693.25</ele>
        <time>2022-04-28T13:41:58Z</time>
      </trkpt>
      <trkpt lat="41.69822" lon="9.02383">
        <ele>693.25</ele>
        <time>2022-04-28T13:41:59Z</time>
      </trkpt>
      <trkpt lat="41.6983" lon="9.02389">
        <ele>692.29</ele>
        <time>2022-04-28T13:42:08Z</time>
      </trkpt>
      <trkpt lat="41.69832" lon="9.02393">
        <ele>691.81</ele>
        <time>2022-04-28T13:42:12Z</time>
      </trkpt>
      <trkpt lat="41.69836" lon="9.02397">
        <ele>691.33</ele>
        <time>2022-04-28T13:42:16Z</time>
      </trkpt>
      <trkpt lat="41.69836" lon="9.02398">
        <ele>691.33</ele>
        <time>2022-04-28T13:42:17Z</time>
      </trkpt>
      <trkpt lat="41.69837" lon="9.024">
        <ele>691.33</ele>
        <time>2022-04-28T13:42:18Z</time>
      </trkpt>
      <trkpt lat="41.69843" lon="9.02413">
        <ele>690.36</ele>
        <time>2022-04-28T13:42:29Z</time>
      </trkpt>
      <trkpt lat="41.69844" lon="9.02414">
        <ele>690.36</ele>
        <time>2022-04-28T13:42:30Z</time>
      </trkpt>
      <trkpt lat="41.69855" lon="9.02437">
        <ele>689.4</ele>
        <time>2022-04-28T13:42:47Z</time>
      </trkpt>
      <trkpt lat="41.6986" lon="9.02453">
        <ele>688.92</ele>
        <time>2022-04-28T13:43:04Z</time>
      </trkpt>
      <trkpt lat="41.69861" lon="9.02454">
        <ele>688.92</ele>
        <time>2022-04-28T13:43:23Z</time>
      </trkpt>
      <trkpt lat="41.69862" lon="9.02456">
        <ele>688.92</ele>
        <time>2022-04-28T13:43:41Z</time>
      </trkpt>
      <trkpt lat="41.69865" lon="9.02462">
        <ele>689.4</ele>
        <time>2022-04-28T13:43:57Z</time>
      </trkpt>
      <trkpt lat="41.69865" lon="9.02461">
        <ele>690.36</ele>
        <time>2022-04-28T13:44:13Z</time>
      </trkpt>
      <trkpt lat="41.69872" lon="9.02474">
        <ele>690.36</ele>
        <time>2022-04-28T13:44:33Z</time>
      </trkpt>
      <trkpt lat="41.69874" lon="9.02479">
        <ele>689.88</ele>
        <time>2022-04-28T13:44:37Z</time>
      </trkpt>
      <trkpt lat="41.69875" lon="9.02481">
        <ele>689.88</ele>
        <time>2022-04-28T13:44:38Z</time>
      </trkpt>
      <trkpt lat="41.69882" lon="9.02487">
        <ele>691.81</ele>
        <time>2022-04-28T13:44:47Z</time>
      </trkpt>
      <trkpt lat="41.69899" lon="9.0251">
        <ele>692.29</ele>
        <time>2022-04-28T13:45:07Z</time>
      </trkpt>
      <trkpt lat="41.69914" lon="9.02511">
        <ele>692.29</ele>
        <time>2022-04-28T13:45:21Z</time>
      </trkpt>
      <trkpt lat="41.69922" lon="9.02512">
        <ele>690.84</ele>
        <time>2022-04-28T13:45:33Z</time>
      </trkpt>
      <trkpt lat="41.69924" lon="9.02513">
        <ele>690.36</ele>
        <time>2022-04-28T13:45:36Z</time>
      </trkpt>
      <trkpt lat="41.69926" lon="9.02514">
        <ele>689.88</ele>
        <time>2022-04-28T13:45:37Z</time>
      </trkpt>
      <trkpt lat="41.69927" lon="9.02514">
        <ele>690.36</ele>
        <time>2022-04-28T13:45:38Z</time>
      </trkpt>
      <trkpt lat="41.69934" lon="9.02516">
        <ele>689.4</ele>
        <time>2022-04-28T13:45:53Z</time>
      </trkpt>
      <trkpt lat="41.69938" lon="9.02518">
        <ele>688.92</ele>
        <time>2022-04-28T13:46:05Z</time>
      </trkpt>
      <trkpt lat="41.69939" lon="9.02519">
        <ele>688.44</ele>
        <time>2022-04-28T13:46:06Z</time>
      </trkpt>
      <trkpt lat="41.69956" lon="9.02529">
        <ele>685.56</ele>
        <time>2022-04-28T13:46:20Z</time>
      </trkpt>
      <trkpt lat="41.69978" lon="9.0254">
        <ele>683.63</ele>
        <time>2022-04-28T13:46:37Z</time>
      </trkpt>
      <trkpt lat="41.69979" lon="9.02541">
        <ele>683.63</ele>
        <time>2022-04-28T13:46:38Z</time>
      </trkpt>
      <trkpt lat="41.6998" lon="9.02542">
        <ele>683.63</ele>
        <time>2022-04-28T13:46:39Z</time>
      </trkpt>
      <trkpt lat="41.6999" lon="9.02552">
        <ele>680.27</ele>
        <time>2022-04-28T13:46:51Z</time>
      </trkpt>
      <trkpt lat="41.69995" lon="9.02554">
        <ele>679.79</ele>
        <time>2022-04-28T13:46:55Z</time>
      </trkpt>
      <trkpt lat="41.70004" lon="9.02558">
        <ele>676.42</ele>
        <time>2022-04-28T13:47:05Z</time>
      </trkpt>
      <trkpt lat="41.70009" lon="9.0256">
        <ele>675.94</ele>
        <time>2022-04-28T13:47:10Z</time>
      </trkpt>
      <trkpt lat="41.70019" lon="9.02571">
        <ele>674.02</ele>
        <time>2022-04-28T13:47:22Z</time>
      </trkpt>
      <trkpt lat="41.70019" lon="9.02572">
        <ele>673.54</ele>
        <time>2022-04-28T13:47:23Z</time>
      </trkpt>
      <trkpt lat="41.70021" lon="9.02576">
        <ele>673.54</ele>
        <time>2022-04-28T13:47:27Z</time>
      </trkpt>
      <trkpt lat="41.70022" lon="9.02577">
        <ele>673.06</ele>
        <time>2022-04-28T13:47:28Z</time>
      </trkpt>
      <trkpt lat="41.70023" lon="9.02577">
        <ele>673.06</ele>
        <time>2022-04-28T13:47:29Z</time>
      </trkpt>
      <trkpt lat="41.70024" lon="9.02578">
        <ele>673.06</ele>
        <time>2022-04-28T13:47:30Z</time>
      </trkpt>
      <trkpt lat="41.70025" lon="9.0258">
        <ele>673.06</ele>
        <time>2022-04-28T13:47:31Z</time>
      </trkpt>
      <trkpt lat="41.70026" lon="9.02581">
        <ele>672.58</ele>
        <time>2022-04-28T13:47:32Z</time>
      </trkpt>
      <trkpt lat="41.70029" lon="9.02585">
        <ele>671.62</ele>
        <time>2022-04-28T13:47:37Z</time>
      </trkpt>
      <trkpt lat="41.70036" lon="9.02583">
        <ele>670.18</ele>
        <time>2022-04-28T13:47:44Z</time>
      </trkpt>
      <trkpt lat="41.70038" lon="9.02589">
        <ele>669.22</ele>
        <time>2022-04-28T13:47:49Z</time>
      </trkpt>
      <trkpt lat="41.70037" lon="9.02592">
        <ele>669.22</ele>
        <time>2022-04-28T13:47:51Z</time>
      </trkpt>
      <trkpt lat="41.70038" lon="9.02595">
        <ele>668.73</ele>
        <time>2022-04-28T13:47:53Z</time>
      </trkpt>
      <trkpt lat="41.70039" lon="9.02597">
        <ele>668.73</ele>
        <time>2022-04-28T13:47:54Z</time>
      </trkpt>
      <trkpt lat="41.7004" lon="9.02598">
        <ele>668.25</ele>
        <time>2022-04-28T13:47:55Z</time>
      </trkpt>
      <trkpt lat="41.70042" lon="9.02599">
        <ele>668.25</ele>
        <time>2022-04-28T13:47:56Z</time>
      </trkpt>
      <trkpt lat="41.70042" lon="9.026">
        <ele>667.77</ele>
        <time>2022-04-28T13:47:57Z</time>
      </trkpt>
      <trkpt lat="41.70044" lon="9.02602">
        <ele>666.81</ele>
        <time>2022-04-28T13:47:59Z</time>
      </trkpt>
      <trkpt lat="41.70045" lon="9.02603">
        <ele>667.77</ele>
        <time>2022-04-28T13:48:00Z</time>
      </trkpt>
      <trkpt lat="41.70047" lon="9.02603">
        <ele>667.77</ele>
        <time>2022-04-28T13:48:01Z</time>
      </trkpt>
      <trkpt lat="41.70047" lon="9.02604">
        <ele>667.77</ele>
        <time>2022-04-28T13:48:02Z</time>
      </trkpt>
      <trkpt lat="41.70054" lon="9.02611">
        <ele>665.85</ele>
        <time>2022-04-28T13:48:14Z</time>
      </trkpt>
      <trkpt lat="41.70052" lon="9.02613">
        <ele>664.41</ele>
        <time>2022-04-28T13:48:17Z</time>
      </trkpt>
      <trkpt lat="41.70052" lon="9.02612">
        <ele>663.93</ele>
        <time>2022-04-28T13:48:30Z</time>
      </trkpt>
      <trkpt lat="41.70054" lon="9.02607">
        <ele>664.89</ele>
        <time>2022-04-28T13:48:48Z</time>
      </trkpt>
      <trkpt lat="41.70054" lon="9.02609">
        <ele>664.41</ele>
        <time>2022-04-28T13:49:13Z</time>
      </trkpt>
      <trkpt lat="41.70055" lon="9.0261">
        <ele>665.37</ele>
        <time>2022-04-28T13:49:34Z</time>
      </trkpt>
      <trkpt lat="41.70055" lon="9.02604">
        <ele>662.97</ele>
        <time>2022-04-28T13:49:40Z</time>
      </trkpt>
      <trkpt lat="41.70058" lon="9.02608">
        <ele>662.97</ele>
        <time>2022-04-28T13:49:56Z</time>
      </trkpt>
      <trkpt lat="41.70064" lon="9.02614">
        <ele>661.04</ele>
        <time>2022-04-28T13:50:08Z</time>
      </trkpt>
      <trkpt lat="41.70072" lon="9.02615">
        <ele>658.16</ele>
        <time>2022-04-28T13:50:21Z</time>
      </trkpt>
      <trkpt lat="41.70072" lon="9.02616">
        <ele>657.68</ele>
        <time>2022-04-28T13:50:22Z</time>
      </trkpt>
      <trkpt lat="41.70075" lon="9.02624">
        <ele>656.24</ele>
        <time>2022-04-28T13:50:29Z</time>
      </trkpt>
      <trkpt lat="41.70073" lon="9.02634">
        <ele>653.83</ele>
        <time>2022-04-28T13:50:45Z</time>
      </trkpt>
      <trkpt lat="41.70074" lon="9.02641">
        <ele>651.91</ele>
        <time>2022-04-28T13:50:56Z</time>
      </trkpt>
      <trkpt lat="41.70085" lon="9.0265">
        <ele>649.03</ele>
        <time>2022-04-28T13:51:10Z</time>
      </trkpt>
      <trkpt lat="41.70087" lon="9.02651">
        <ele>648.07</ele>
        <time>2022-04-28T13:51:13Z</time>
      </trkpt>
      <trkpt lat="41.70092" lon="9.02664">
        <ele>646.14</ele>
        <time>2022-04-28T13:51:27Z</time>
      </trkpt>
      <trkpt lat="41.70093" lon="9.02666">
        <ele>645.66</ele>
        <time>2022-04-28T13:51:29Z</time>
      </trkpt>
      <trkpt lat="41.70094" lon="9.02667">
        <ele>645.18</ele>
        <time>2022-04-28T13:51:30Z</time>
      </trkpt>
      <trkpt lat="41.70104" lon="9.02677">
        <ele>641.82</ele>
        <time>2022-04-28T13:51:43Z</time>
      </trkpt>
      <trkpt lat="41.70107" lon="9.02684">
        <ele>640.38</ele>
        <time>2022-04-28T13:51:50Z</time>
      </trkpt>
      <trkpt lat="41.70118" lon="9.02687">
        <ele>637.97</ele>
        <time>2022-04-28T13:52:03Z</time>
      </trkpt>
      <trkpt lat="41.70124" lon="9.02683">
        <ele>635.57</ele>
        <time>2022-04-28T13:52:15Z</time>
      </trkpt>
      <trkpt lat="41.70121" lon="9.0268">
        <ele>637.01</ele>
        <time>2022-04-28T13:52:26Z</time>
      </trkpt>
      <trkpt lat="41.70124" lon="9.02683">
        <ele>636.05</ele>
        <time>2022-04-28T13:52:54Z</time>
      </trkpt>
      <trkpt lat="41.70127" lon="9.02692">
        <ele>634.61</ele>
        <time>2022-04-28T13:53:15Z</time>
      </trkpt>
      <trkpt lat="41.70126" lon="9.02701">
        <ele>633.17</ele>
        <time>2022-04-28T13:53:22Z</time>
      </trkpt>
      <trkpt lat="41.70126" lon="9.02703">
        <ele>633.17</ele>
        <time>2022-04-28T13:53:23Z</time>
      </trkpt>
      <trkpt lat="41.70126" lon="9.02705">
        <ele>633.17</ele>
        <time>2022-04-28T13:53:24Z</time>
      </trkpt>
      <trkpt lat="41.70123" lon="9.02711">
        <ele>631.72</ele>
        <time>2022-04-28T13:53:29Z</time>
      </trkpt>
      <trkpt lat="41.70122" lon="9.02716">
        <ele>630.28</ele>
        <time>2022-04-28T13:53:32Z</time>
      </trkpt>
      <trkpt lat="41.70122" lon="9.02718">
        <ele>629.8</ele>
        <time>2022-04-28T13:53:33Z</time>
      </trkpt>
      <trkpt lat="41.70122" lon="9.02721">
        <ele>629.32</ele>
        <time>2022-04-28T13:53:34Z</time>
      </trkpt>
      <trkpt lat="41.70122" lon="9.02722">
        <ele>629.32</ele>
        <time>2022-04-28T13:53:35Z</time>
      </trkpt>
      <trkpt lat="41.7012" lon="9.0273">
        <ele>627.4</ele>
        <time>2022-04-28T13:53:41Z</time>
      </trkpt>
      <trkpt lat="41.70121" lon="9.02731">
        <ele>627.4</ele>
        <time>2022-04-28T13:53:42Z</time>
      </trkpt>
      <trkpt lat="41.70121" lon="9.02733">
        <ele>627.4</ele>
        <time>2022-04-28T13:53:43Z</time>
      </trkpt>
      <trkpt lat="41.70119" lon="9.02739">
        <ele>625.96</ele>
        <time>2022-04-28T13:53:50Z</time>
      </trkpt>
      <trkpt lat="41.70118" lon="9.02747">
        <ele>624.51</ele>
        <time>2022-04-28T13:53:56Z</time>
      </trkpt>
      <trkpt lat="41.70119" lon="9.02749">
        <ele>624.03</ele>
        <time>2022-04-28T13:53:57Z</time>
      </trkpt>
      <trkpt lat="41.70119" lon="9.0275">
        <ele>624.03</ele>
        <time>2022-04-28T13:53:58Z</time>
      </trkpt>
      <trkpt lat="41.70123" lon="9.02756">
        <ele>622.11</ele>
        <time>2022-04-28T13:54:04Z</time>
      </trkpt>
      <trkpt lat="41.70132" lon="9.02766">
        <ele>619.23</ele>
        <time>2022-04-28T13:54:16Z</time>
      </trkpt>
      <trkpt lat="41.70141" lon="9.02772">
        <ele>616.34</ele>
        <time>2022-04-28T13:54:26Z</time>
      </trkpt>
      <trkpt lat="41.70151" lon="9.02777">
        <ele>612.98</ele>
        <time>2022-04-28T13:54:40Z</time>
      </trkpt>
      <trkpt lat="41.70154" lon="9.02765">
        <ele>611.54</ele>
        <time>2022-04-28T13:54:49Z</time>
      </trkpt>
      <trkpt lat="41.70159" lon="9.02746">
        <ele>610.09</ele>
        <time>2022-04-28T13:55:04Z</time>
      </trkpt>
      <trkpt lat="41.70162" lon="9.02727">
        <ele>609.13</ele>
        <time>2022-04-28T13:55:19Z</time>
      </trkpt>
      <trkpt lat="41.70164" lon="9.02723">
        <ele>610.57</ele>
        <time>2022-04-28T13:55:22Z</time>
      </trkpt>
      <trkpt lat="41.70169" lon="9.02706">
        <ele>610.09</ele>
        <time>2022-04-28T13:55:36Z</time>
      </trkpt>
      <trkpt lat="41.70174" lon="9.02691">
        <ele>606.73</ele>
        <time>2022-04-28T13:55:49Z</time>
      </trkpt>
      <trkpt lat="41.70175" lon="9.02676">
        <ele>605.29</ele>
        <time>2022-04-28T13:55:59Z</time>
      </trkpt>
      <trkpt lat="41.70175" lon="9.02674">
        <ele>605.29</ele>
        <time>2022-04-28T13:56:00Z</time>
      </trkpt>
      <trkpt lat="41.70176" lon="9.02672">
        <ele>605.29</ele>
        <time>2022-04-28T13:56:01Z</time>
      </trkpt>
      <trkpt lat="41.70178" lon="9.02657">
        <ele>603.36</ele>
        <time>2022-04-28T13:56:12Z</time>
      </trkpt>
      <trkpt lat="41.70177" lon="9.02656">
        <ele>603.85</ele>
        <time>2022-04-28T13:56:14Z</time>
      </trkpt>
      <trkpt lat="41.70175" lon="9.02652">
        <ele>603.85</ele>
        <time>2022-04-28T13:56:18Z</time>
      </trkpt>
      <trkpt lat="41.70174" lon="9.02651">
        <ele>604.33</ele>
        <time>2022-04-28T13:56:19Z</time>
      </trkpt>
      <trkpt lat="41.70174" lon="9.02648">
        <ele>602.88</ele>
        <time>2022-04-28T13:56:22Z</time>
      </trkpt>
      <trkpt lat="41.70175" lon="9.02639">
        <ele>600.48</ele>
        <time>2022-04-28T13:56:33Z</time>
      </trkpt>
      <trkpt lat="41.70177" lon="9.02637">
        <ele>598.56</ele>
        <time>2022-04-28T13:56:46Z</time>
      </trkpt>
      <trkpt lat="41.70173" lon="9.0263">
        <ele>597.6</ele>
        <time>2022-04-28T13:57:04Z</time>
      </trkpt>
      <trkpt lat="41.7017" lon="9.02614">
        <ele>595.19</ele>
        <time>2022-04-28T13:57:19Z</time>
      </trkpt>
      <trkpt lat="41.70173" lon="9.02608">
        <ele>591.83</ele>
        <time>2022-04-28T13:57:35Z</time>
      </trkpt>
      <trkpt lat="41.70173" lon="9.02605">
        <ele>591.35</ele>
        <time>2022-04-28T13:57:37Z</time>
      </trkpt>
      <trkpt lat="41.70175" lon="9.0259">
        <ele>588.46</ele>
        <time>2022-04-28T13:57:53Z</time>
      </trkpt>
      <trkpt lat="41.70178" lon="9.02574">
        <ele>585.1</ele>
        <time>2022-04-28T13:58:10Z</time>
      </trkpt>
      <trkpt lat="41.70178" lon="9.02561">
        <ele>581.73</ele>
        <time>2022-04-28T13:58:24Z</time>
      </trkpt>
      <trkpt lat="41.70179" lon="9.02545">
        <ele>578.85</ele>
        <time>2022-04-28T13:58:40Z</time>
      </trkpt>
      <trkpt lat="41.70185" lon="9.02549">
        <ele>576.93</ele>
        <time>2022-04-28T13:58:54Z</time>
      </trkpt>
      <trkpt lat="41.70192" lon="9.02549">
        <ele>573.56</ele>
        <time>2022-04-28T13:59:06Z</time>
      </trkpt>
      <trkpt lat="41.70195" lon="9.02547">
        <ele>570.68</ele>
        <time>2022-04-28T13:59:22Z</time>
      </trkpt>
      <trkpt lat="41.70202" lon="9.02555">
        <ele>567.32</ele>
        <time>2022-04-28T13:59:35Z</time>
      </trkpt>
      <trkpt lat="41.70208" lon="9.02562">
        <ele>565.87</ele>
        <time>2022-04-28T13:59:50Z</time>
      </trkpt>
      <trkpt lat="41.70214" lon="9.02572">
        <ele>562.51</ele>
        <time>2022-04-28T14:00:02Z</time>
      </trkpt>
      <trkpt lat="41.7022" lon="9.02576">
        <ele>559.62</ele>
        <time>2022-04-28T14:00:17Z</time>
      </trkpt>
      <trkpt lat="41.70223" lon="9.02583">
        <ele>556.74</ele>
        <time>2022-04-28T14:00:31Z</time>
      </trkpt>
      <trkpt lat="41.70231" lon="9.02583">
        <ele>553.86</ele>
        <time>2022-04-28T14:00:47Z</time>
      </trkpt>
      <trkpt lat="41.70233" lon="9.02576">
        <ele>551.93</ele>
        <time>2022-04-28T14:01:02Z</time>
      </trkpt>
      <trkpt lat="41.70241" lon="9.02587">
        <ele>549.05</ele>
        <time>2022-04-28T14:01:20Z</time>
      </trkpt>
      <trkpt lat="41.70244" lon="9.02581">
        <ele>548.09</ele>
        <time>2022-04-28T14:01:33Z</time>
      </trkpt>
      <trkpt lat="41.70244" lon="9.02573">
        <ele>546.17</ele>
        <time>2022-04-28T14:01:51Z</time>
      </trkpt>
      <trkpt lat="41.70249" lon="9.02575">
        <ele>543.28</ele>
        <time>2022-04-28T14:02:03Z</time>
      </trkpt>
      <trkpt lat="41.70253" lon="9.02583">
        <ele>540.88</ele>
        <time>2022-04-28T14:02:11Z</time>
      </trkpt>
      <trkpt lat="41.7026" lon="9.02591">
        <ele>538.48</ele>
        <time>2022-04-28T14:02:24Z</time>
      </trkpt>
      <trkpt lat="41.70265" lon="9.02597">
        <ele>535.11</ele>
        <time>2022-04-28T14:02:37Z</time>
      </trkpt>
      <trkpt lat="41.70269" lon="9.02607">
        <ele>533.67</ele>
        <time>2022-04-28T14:02:51Z</time>
      </trkpt>
      <trkpt lat="41.70273" lon="9.02605">
        <ele>531.27</ele>
        <time>2022-04-28T14:03:03Z</time>
      </trkpt>
      <trkpt lat="41.70279" lon="9.02604">
        <ele>528.38</ele>
        <time>2022-04-28T14:03:17Z</time>
      </trkpt>
      <trkpt lat="41.70285" lon="9.02613">
        <ele>525.02</ele>
        <time>2022-04-28T14:03:31Z</time>
      </trkpt>
      <trkpt lat="41.70292" lon="9.02621">
        <ele>522.13</ele>
        <time>2022-04-28T14:03:43Z</time>
      </trkpt>
      <trkpt lat="41.70296" lon="9.0263">
        <ele>519.25</ele>
        <time>2022-04-28T14:04:02Z</time>
      </trkpt>
      <trkpt lat="41.70302" lon="9.02629">
        <ele>517.33</ele>
        <time>2022-04-28T14:04:19Z</time>
      </trkpt>
      <trkpt lat="41.70309" lon="9.02628">
        <ele>515.4</ele>
        <time>2022-04-28T14:04:34Z</time>
      </trkpt>
      <trkpt lat="41.70313" lon="9.02627">
        <ele>513</ele>
        <time>2022-04-28T14:04:47Z</time>
      </trkpt>
      <trkpt lat="41.70324" lon="9.02627">
        <ele>510.12</ele>
        <time>2022-04-28T14:05:03Z</time>
      </trkpt>
      <trkpt lat="41.7033" lon="9.02632">
        <ele>509.64</ele>
        <time>2022-04-28T14:05:22Z</time>
      </trkpt>
      <trkpt lat="41.70327" lon="9.02629">
        <ele>509.64</ele>
        <time>2022-04-28T14:05:47Z</time>
      </trkpt>
      <trkpt lat="41.70339" lon="9.02612">
        <ele>508.19</ele>
        <time>2022-04-28T14:06:04Z</time>
      </trkpt>
      <trkpt lat="41.70352" lon="9.02612">
        <ele>506.27</ele>
        <time>2022-04-28T14:06:20Z</time>
      </trkpt>
      <trkpt lat="41.70363" lon="9.02618">
        <ele>502.91</ele>
        <time>2022-04-28T14:06:37Z</time>
      </trkpt>
      <trkpt lat="41.70353" lon="9.02627">
        <ele>500.02</ele>
        <time>2022-04-28T14:06:50Z</time>
      </trkpt>
      <trkpt lat="41.70356" lon="9.0264">
        <ele>496.66</ele>
        <time>2022-04-28T14:07:04Z</time>
      </trkpt>
      <trkpt lat="41.70365" lon="9.02643">
        <ele>493.29</ele>
        <time>2022-04-28T14:07:18Z</time>
      </trkpt>
      <trkpt lat="41.70371" lon="9.02651">
        <ele>490.41</ele>
        <time>2022-04-28T14:07:32Z</time>
      </trkpt>
      <trkpt lat="41.70372" lon="9.02651">
        <ele>490.41</ele>
        <time>2022-04-28T14:07:58Z</time>
      </trkpt>
      <trkpt lat="41.70379" lon="9.0266">
        <ele>487.53</ele>
        <time>2022-04-28T14:08:09Z</time>
      </trkpt>
      <trkpt lat="41.7039" lon="9.02661">
        <ele>485.12</ele>
        <time>2022-04-28T14:08:24Z</time>
      </trkpt>
      <trkpt lat="41.704" lon="9.02663">
        <ele>482.24</ele>
        <time>2022-04-28T14:08:39Z</time>
      </trkpt>
      <trkpt lat="41.70411" lon="9.02665">
        <ele>480.32</ele>
        <time>2022-04-28T14:08:53Z</time>
      </trkpt>
      <trkpt lat="41.70412" lon="9.02665">
        <ele>479.84</ele>
        <time>2022-04-28T14:09:07Z</time>
      </trkpt>
      <trkpt lat="41.70422" lon="9.02663">
        <ele>477.91</ele>
        <time>2022-04-28T14:09:28Z</time>
      </trkpt>
      <trkpt lat="41.70428" lon="9.02665">
        <ele>476.47</ele>
        <time>2022-04-28T14:09:41Z</time>
      </trkpt>
      <trkpt lat="41.7044" lon="9.02662">
        <ele>473.11</ele>
        <time>2022-04-28T14:09:57Z</time>
      </trkpt>
      <trkpt lat="41.70453" lon="9.02664">
        <ele>470.22</ele>
        <time>2022-04-28T14:10:12Z</time>
      </trkpt>
      <trkpt lat="41.70462" lon="9.02668">
        <ele>468.78</ele>
        <time>2022-04-28T14:10:31Z</time>
      </trkpt>
      <trkpt lat="41.7047" lon="9.0267">
        <ele>466.86</ele>
        <time>2022-04-28T14:10:43Z</time>
      </trkpt>
      <trkpt lat="41.70478" lon="9.02677">
        <ele>463.49</ele>
        <time>2022-04-28T14:10:55Z</time>
      </trkpt>
      <trkpt lat="41.70484" lon="9.02688">
        <ele>460.61</ele>
        <time>2022-04-28T14:11:07Z</time>
      </trkpt>
      <trkpt lat="41.70486" lon="9.0269">
        <ele>458.69</ele>
        <time>2022-04-28T14:11:22Z</time>
      </trkpt>
      <trkpt lat="41.70488" lon="9.02692">
        <ele>457.72</ele>
        <time>2022-04-28T14:11:24Z</time>
      </trkpt>
      <trkpt lat="41.70494" lon="9.027">
        <ele>455.32</ele>
        <time>2022-04-28T14:11:39Z</time>
      </trkpt>
      <trkpt lat="41.70497" lon="9.02711">
        <ele>452.92</ele>
        <time>2022-04-28T14:11:51Z</time>
      </trkpt>
      <trkpt lat="41.70487" lon="9.02718">
        <ele>450.52</ele>
        <time>2022-04-28T14:12:05Z</time>
      </trkpt>
      <trkpt lat="41.70483" lon="9.02726">
        <ele>448.59</ele>
        <time>2022-04-28T14:12:24Z</time>
      </trkpt>
      <trkpt lat="41.70477" lon="9.02737">
        <ele>446.19</ele>
        <time>2022-04-28T14:12:39Z</time>
      </trkpt>
      <trkpt lat="41.70484" lon="9.02745">
        <ele>442.82</ele>
        <time>2022-04-28T14:12:52Z</time>
      </trkpt>
      <trkpt lat="41.70493" lon="9.02749">
        <ele>439.94</ele>
        <time>2022-04-28T14:13:04Z</time>
      </trkpt>
      <trkpt lat="41.70502" lon="9.02758">
        <ele>436.58</ele>
        <time>2022-04-28T14:13:16Z</time>
      </trkpt>
      <trkpt lat="41.70512" lon="9.02767">
        <ele>433.69</ele>
        <time>2022-04-28T14:13:29Z</time>
      </trkpt>
      <trkpt lat="41.70522" lon="9.02773">
        <ele>430.33</ele>
        <time>2022-04-28T14:13:44Z</time>
      </trkpt>
      <trkpt lat="41.70536" lon="9.02779">
        <ele>428.4</ele>
        <time>2022-04-28T14:14:02Z</time>
      </trkpt>
      <trkpt lat="41.70539" lon="9.02788">
        <ele>425.52</ele>
        <time>2022-04-28T14:14:13Z</time>
      </trkpt>
      <trkpt lat="41.70545" lon="9.02794">
        <ele>422.16</ele>
        <time>2022-04-28T14:14:27Z</time>
      </trkpt>
      <trkpt lat="41.7055" lon="9.02802">
        <ele>420.23</ele>
        <time>2022-04-28T14:14:48Z</time>
      </trkpt>
      <trkpt lat="41.70549" lon="9.02809">
        <ele>418.31</ele>
        <time>2022-04-28T14:15:03Z</time>
      </trkpt>
      <trkpt lat="41.70552" lon="9.02817">
        <ele>415.43</ele>
        <time>2022-04-28T14:15:15Z</time>
      </trkpt>
      <trkpt lat="41.70559" lon="9.0283">
        <ele>412.54</ele>
        <time>2022-04-28T14:15:31Z</time>
      </trkpt>
      <trkpt lat="41.70563" lon="9.02834">
        <ele>411.58</ele>
        <time>2022-04-28T14:15:51Z</time>
      </trkpt>
      <trkpt lat="41.70573" lon="9.02837">
        <ele>408.22</ele>
        <time>2022-04-28T14:16:05Z</time>
      </trkpt>
      <trkpt lat="41.70575" lon="9.02851">
        <ele>406.77</ele>
        <time>2022-04-28T14:16:29Z</time>
      </trkpt>
      <trkpt lat="41.70583" lon="9.02847">
        <ele>404.85</ele>
        <time>2022-04-28T14:16:53Z</time>
      </trkpt>
      <trkpt lat="41.70589" lon="9.02853">
        <ele>401.97</ele>
        <time>2022-04-28T14:17:06Z</time>
      </trkpt>
      <trkpt lat="41.70593" lon="9.02865">
        <ele>398.6</ele>
        <time>2022-04-28T14:17:22Z</time>
      </trkpt>
      <trkpt lat="41.70598" lon="9.02877">
        <ele>395.72</ele>
        <time>2022-04-28T14:17:37Z</time>
      </trkpt>
      <trkpt lat="41.70599" lon="9.02882">
        <ele>393.32</ele>
        <time>2022-04-28T14:17:55Z</time>
      </trkpt>
      <trkpt lat="41.70599" lon="9.02883">
        <ele>393.32</ele>
        <time>2022-04-28T14:18:21Z</time>
      </trkpt>
      <trkpt lat="41.70612" lon="9.02888">
        <ele>389.95</ele>
        <time>2022-04-28T14:18:38Z</time>
      </trkpt>
      <trkpt lat="41.70626" lon="9.02892">
        <ele>388.03</ele>
        <time>2022-04-28T14:18:55Z</time>
      </trkpt>
      <trkpt lat="41.70634" lon="9.02896">
        <ele>384.66</ele>
        <time>2022-04-28T14:19:07Z</time>
      </trkpt>
      <trkpt lat="41.70648" lon="9.02907">
        <ele>382.74</ele>
        <time>2022-04-28T14:19:25Z</time>
      </trkpt>
      <trkpt lat="41.70657" lon="9.0292">
        <ele>379.38</ele>
        <time>2022-04-28T14:19:38Z</time>
      </trkpt>
      <trkpt lat="41.70661" lon="9.02925">
        <ele>377.94</ele>
        <time>2022-04-28T14:19:44Z</time>
      </trkpt>
      <trkpt lat="41.70668" lon="9.02932">
        <ele>374.57</ele>
        <time>2022-04-28T14:19:54Z</time>
      </trkpt>
      <trkpt lat="41.70667" lon="9.02932">
        <ele>376.01</ele>
        <time>2022-04-28T14:20:02Z</time>
      </trkpt>
      <trkpt lat="41.70667" lon="9.02932">
        <ele>374.09</ele>
        <time>2022-04-28T14:20:04Z</time>
      </trkpt>
      <trkpt lat="41.70665" lon="9.0294">
        <ele>371.69</ele>
        <time>2022-04-28T14:20:21Z</time>
      </trkpt>
      <trkpt lat="41.70666" lon="9.02953">
        <ele>368.32</ele>
        <time>2022-04-28T14:20:33Z</time>
      </trkpt>
      <trkpt lat="41.70674" lon="9.02963">
        <ele>366.4</ele>
        <time>2022-04-28T14:20:46Z</time>
      </trkpt>
      <trkpt lat="41.70666" lon="9.02957">
        <ele>366.88</ele>
        <time>2022-04-28T14:21:10Z</time>
      </trkpt>
      <trkpt lat="41.70675" lon="9.02962">
        <ele>365.44</ele>
        <time>2022-04-28T14:21:29Z</time>
      </trkpt>
      <trkpt lat="41.70673" lon="9.02963">
        <ele>365.92</ele>
        <time>2022-04-28T14:21:47Z</time>
      </trkpt>
      <trkpt lat="41.70666" lon="9.0296">
        <ele>365.44</ele>
        <time>2022-04-28T14:22:22Z</time>
      </trkpt>
      <trkpt lat="41.70666" lon="9.02955">
        <ele>364.96</ele>
        <time>2022-04-28T14:22:51Z</time>
      </trkpt>
      <trkpt lat="41.70679" lon="9.02965">
        <ele>364.96</ele>
        <time>2022-04-28T14:23:06Z</time>
      </trkpt>
      <trkpt lat="41.70677" lon="9.02962">
        <ele>365.44</ele>
        <time>2022-04-28T14:23:26Z</time>
      </trkpt>
      <trkpt lat="41.70679" lon="9.02962">
        <ele>364.96</ele>
        <time>2022-04-28T14:23:43Z</time>
      </trkpt>
      <trkpt lat="41.70678" lon="9.02964">
        <ele>364.96</ele>
        <time>2022-04-28T14:24:04Z</time>
      </trkpt>
      <trkpt lat="41.70674" lon="9.02971">
        <ele>364.48</ele>
        <time>2022-04-28T14:24:38Z</time>
      </trkpt>
      <trkpt lat="41.70677" lon="9.02969">
        <ele>364.96</ele>
        <time>2022-04-28T14:25:06Z</time>
      </trkpt>
      <trkpt lat="41.70679" lon="9.02972">
        <ele>364</ele>
        <time>2022-04-28T14:25:29Z</time>
      </trkpt>
      <trkpt lat="41.70677" lon="9.02972">
        <ele>364</ele>
        <time>2022-04-28T14:25:48Z</time>
      </trkpt>
      <trkpt lat="41.70685" lon="9.02969">
        <ele>364.48</ele>
        <time>2022-04-28T14:26:10Z</time>
      </trkpt>
      <trkpt lat="41.70687" lon="9.02969">
        <ele>364</ele>
        <time>2022-04-28T14:26:12Z</time>
      </trkpt>
      <trkpt lat="41.70705" lon="9.02977">
        <ele>362.55</ele>
        <time>2022-04-28T14:26:29Z</time>
      </trkpt>
      <trkpt lat="41.70717" lon="9.02976">
        <ele>363.52</ele>
        <time>2022-04-28T14:26:42Z</time>
      </trkpt>
      <trkpt lat="41.70732" lon="9.02982">
        <ele>363.04</ele>
        <time>2022-04-28T14:26:55Z</time>
      </trkpt>
      <trkpt lat="41.70739" lon="9.02984">
        <ele>362.07</ele>
        <time>2022-04-28T14:27:04Z</time>
      </trkpt>
      <trkpt lat="41.70743" lon="9.02988">
        <ele>360.15</ele>
        <time>2022-04-28T14:27:16Z</time>
      </trkpt>
      <trkpt lat="41.70744" lon="9.02995">
        <ele>356.79</ele>
        <time>2022-04-28T14:27:26Z</time>
      </trkpt>
      <trkpt lat="41.70755" lon="9.03004">
        <ele>353.42</ele>
        <time>2022-04-28T14:27:38Z</time>
      </trkpt>
      <trkpt lat="41.70773" lon="9.03019">
        <ele>350.54</ele>
        <time>2022-04-28T14:27:56Z</time>
      </trkpt>
      <trkpt lat="41.70779" lon="9.03033">
        <ele>348.62</ele>
        <time>2022-04-28T14:28:14Z</time>
      </trkpt>
      <trkpt lat="41.70784" lon="9.03042">
        <ele>345.25</ele>
        <time>2022-04-28T14:28:28Z</time>
      </trkpt>
      <trkpt lat="41.70787" lon="9.03051">
        <ele>341.89</ele>
        <time>2022-04-28T14:28:40Z</time>
      </trkpt>
      <trkpt lat="41.70792" lon="9.03062">
        <ele>339.48</ele>
        <time>2022-04-28T14:28:59Z</time>
      </trkpt>
      <trkpt lat="41.70805" lon="9.03067">
        <ele>337.08</ele>
        <time>2022-04-28T14:29:13Z</time>
      </trkpt>
      <trkpt lat="41.70817" lon="9.03066">
        <ele>335.16</ele>
        <time>2022-04-28T14:29:28Z</time>
      </trkpt>
      <trkpt lat="41.70829" lon="9.03072">
        <ele>334.2</ele>
        <time>2022-04-28T14:29:39Z</time>
      </trkpt>
      <trkpt lat="41.70847" lon="9.03082">
        <ele>331.31</ele>
        <time>2022-04-28T14:29:54Z</time>
      </trkpt>
      <trkpt lat="41.70848" lon="9.03083">
        <ele>330.83</ele>
        <time>2022-04-28T14:29:55Z</time>
      </trkpt>
      <trkpt lat="41.70862" lon="9.03091">
        <ele>328.91</ele>
        <time>2022-04-28T14:30:09Z</time>
      </trkpt>
      <trkpt lat="41.70879" lon="9.03099">
        <ele>326.02</ele>
        <time>2022-04-28T14:30:24Z</time>
      </trkpt>
      <trkpt lat="41.70894" lon="9.03104">
        <ele>326.5</ele>
        <time>2022-04-28T14:30:42Z</time>
      </trkpt>
      <trkpt lat="41.70903" lon="9.03118">
        <ele>324.58</ele>
        <time>2022-04-28T14:31:06Z</time>
      </trkpt>
      <trkpt lat="41.70918" lon="9.03122">
        <ele>323.14</ele>
        <time>2022-04-28T14:31:22Z</time>
      </trkpt>
      <trkpt lat="41.70936" lon="9.03129">
        <ele>319.78</ele>
        <time>2022-04-28T14:31:38Z</time>
      </trkpt>
      <trkpt lat="41.70936" lon="9.03132">
        <ele>319.3</ele>
        <time>2022-04-28T14:31:39Z</time>
      </trkpt>
      <trkpt lat="41.70935" lon="9.03147">
        <ele>315.93</ele>
        <time>2022-04-28T14:31:52Z</time>
      </trkpt>
      <trkpt lat="41.70937" lon="9.03154">
        <ele>313.05</ele>
        <time>2022-04-28T14:32:05Z</time>
      </trkpt>
      <trkpt lat="41.70932" lon="9.03165">
        <ele>310.64</ele>
        <time>2022-04-28T14:32:20Z</time>
      </trkpt>
      <trkpt lat="41.70931" lon="9.03173">
        <ele>308.72</ele>
        <time>2022-04-28T14:32:27Z</time>
      </trkpt>
      <trkpt lat="41.70921" lon="9.03184">
        <ele>306.8</ele>
        <time>2022-04-28T14:32:43Z</time>
      </trkpt>
      <trkpt lat="41.70916" lon="9.03185">
        <ele>306.32</ele>
        <time>2022-04-28T14:32:53Z</time>
      </trkpt>
      <trkpt lat="41.70917" lon="9.03186">
        <ele>306.32</ele>
        <time>2022-04-28T14:33:07Z</time>
      </trkpt>
      <trkpt lat="41.70921" lon="9.03185">
        <ele>306.32</ele>
        <time>2022-04-28T14:33:19Z</time>
      </trkpt>
      <trkpt lat="41.7092" lon="9.03185">
        <ele>306.8</ele>
        <time>2022-04-28T14:33:23Z</time>
      </trkpt>
      <trkpt lat="41.70918" lon="9.03181">
        <ele>304.88</ele>
        <time>2022-04-28T14:33:34Z</time>
      </trkpt>
      <trkpt lat="41.70921" lon="9.03185">
        <ele>306.32</ele>
        <time>2022-04-28T14:33:42Z</time>
      </trkpt>
      <trkpt lat="41.70927" lon="9.03187">
        <ele>307.28</ele>
        <time>2022-04-28T14:33:53Z</time>
      </trkpt>
      <trkpt lat="41.70932" lon="9.03194">
        <ele>307.76</ele>
        <time>2022-04-28T14:34:12Z</time>
      </trkpt>
      <trkpt lat="41.70934" lon="9.03206">
        <ele>305.36</ele>
        <time>2022-04-28T14:34:25Z</time>
      </trkpt>
      <trkpt lat="41.70937" lon="9.03215">
        <ele>302.95</ele>
        <time>2022-04-28T14:34:35Z</time>
      </trkpt>
      <trkpt lat="41.7094" lon="9.03227">
        <ele>301.03</ele>
        <time>2022-04-28T14:34:47Z</time>
      </trkpt>
      <trkpt lat="41.70938" lon="9.03232">
        <ele>301.51</ele>
        <time>2022-04-28T14:35:01Z</time>
      </trkpt>
      <trkpt lat="41.70938" lon="9.0323">
        <ele>301.03</ele>
        <time>2022-04-28T14:35:24Z</time>
      </trkpt>
      <trkpt lat="41.70939" lon="9.03227">
        <ele>300.55</ele>
        <time>2022-04-28T14:35:31Z</time>
      </trkpt>
      <trkpt lat="41.70932" lon="9.03222">
        <ele>300.55</ele>
        <time>2022-04-28T14:35:37Z</time>
      </trkpt>
      <trkpt lat="41.70928" lon="9.03213">
        <ele>300.55</ele>
        <time>2022-04-28T14:35:53Z</time>
      </trkpt>
      <trkpt lat="41.70926" lon="9.03211">
        <ele>301.99</ele>
        <time>2022-04-28T14:36:24Z</time>
      </trkpt>
      <trkpt lat="41.70927" lon="9.03217">
        <ele>301.51</ele>
        <time>2022-04-28T14:36:59Z</time>
      </trkpt>
      <trkpt lat="41.70928" lon="9.0321">
        <ele>301.51</ele>
        <time>2022-04-28T14:37:22Z</time>
      </trkpt>
      <trkpt lat="41.70926" lon="9.03212">
        <ele>302.95</ele>
        <time>2022-04-28T14:37:52Z</time>
      </trkpt>
      <trkpt lat="41.7093" lon="9.03211">
        <ele>301.51</ele>
        <time>2022-04-28T14:38:16Z</time>
      </trkpt>
      <trkpt lat="41.70933" lon="9.03213">
        <ele>301.03</ele>
        <time>2022-04-28T14:38:41Z</time>
      </trkpt>
      <trkpt lat="41.70931" lon="9.03212">
        <ele>301.51</ele>
        <time>2022-04-28T14:39:02Z</time>
      </trkpt>
      <trkpt lat="41.70924" lon="9.03214">
        <ele>301.51</ele>
        <time>2022-04-28T14:39:28Z</time>
      </trkpt>
      <trkpt lat="41.70924" lon="9.03203">
        <ele>301.03</ele>
        <time>2022-04-28T14:39:53Z</time>
      </trkpt>
      <trkpt lat="41.70922" lon="9.03221">
        <ele>301.51</ele>
        <time>2022-04-28T14:40:21Z</time>
      </trkpt>
      <trkpt lat="41.70927" lon="9.03211">
        <ele>301.03</ele>
        <time>2022-04-28T14:40:50Z</time>
      </trkpt>
      <trkpt lat="41.70928" lon="9.0321">
        <ele>300.55</ele>
        <time>2022-04-28T14:41:21Z</time>
      </trkpt>
      <trkpt lat="41.70929" lon="9.03213">
        <ele>301.51</ele>
        <time>2022-04-28T14:41:45Z</time>
      </trkpt>
      <trkpt lat="41.70927" lon="9.03218">
        <ele>301.51</ele>
        <time>2022-04-28T14:42:04Z</time>
      </trkpt>
      <trkpt lat="41.70925" lon="9.03207">
        <ele>301.99</ele>
        <time>2022-04-28T14:42:28Z</time>
      </trkpt>
      <trkpt lat="41.70928" lon="9.032">
        <ele>301.51</ele>
        <time>2022-04-28T14:42:57Z</time>
      </trkpt>
      <trkpt lat="41.70925" lon="9.03203">
        <ele>301.51</ele>
        <time>2022-04-28T14:43:22Z</time>
      </trkpt>
      <trkpt lat="41.70928" lon="9.0321">
        <ele>301.03</ele>
        <time>2022-04-28T14:43:43Z</time>
      </trkpt>
      <trkpt lat="41.70925" lon="9.03205">
        <ele>301.03</ele>
        <time>2022-04-28T14:44:12Z</time>
      </trkpt>
      <trkpt lat="41.70926" lon="9.032">
        <ele>301.03</ele>
        <time>2022-04-28T14:44:40Z</time>
      </trkpt>
      <trkpt lat="41.70923" lon="9.03199">
        <ele>301.03</ele>
        <time>2022-04-28T14:45:06Z</time>
      </trkpt>
      <trkpt lat="41.70931" lon="9.03205">
        <ele>301.03</ele>
        <time>2022-04-28T14:45:31Z</time>
      </trkpt>
      <trkpt lat="41.70927" lon="9.03219">
        <ele>300.55</ele>
        <time>2022-04-28T14:45:47Z</time>
      </trkpt>
      <trkpt lat="41.70924" lon="9.03225">
        <ele>300.55</ele>
        <time>2022-04-28T14:46:04Z</time>
      </trkpt>
      <trkpt lat="41.70933" lon="9.03227">
        <ele>299.59</ele>
        <time>2022-04-28T14:46:21Z</time>
      </trkpt>
      <trkpt lat="41.70947" lon="9.03233">
        <ele>298.63</ele>
        <time>2022-04-28T14:46:36Z</time>
      </trkpt>
      <trkpt lat="41.70953" lon="9.03234">
        <ele>296.7</ele>
        <time>2022-04-28T14:46:49Z</time>
      </trkpt>
      <trkpt lat="41.70945" lon="9.03229">
        <ele>298.63</ele>
        <time>2022-04-28T14:47:03Z</time>
      </trkpt>
      <trkpt lat="41.7094" lon="9.03229">
        <ele>299.59</ele>
        <time>2022-04-28T14:47:07Z</time>
      </trkpt>
      <trkpt lat="41.70931" lon="9.03225">
        <ele>300.07</ele>
        <time>2022-04-28T14:47:17Z</time>
      </trkpt>
      <trkpt lat="41.70926" lon="9.03218">
        <ele>300.07</ele>
        <time>2022-04-28T14:47:31Z</time>
      </trkpt>
      <trkpt lat="41.70926" lon="9.03214">
        <ele>300.07</ele>
        <time>2022-04-28T14:47:49Z</time>
      </trkpt>
      <trkpt lat="41.70928" lon="9.03222">
        <ele>299.59</ele>
        <time>2022-04-28T14:47:54Z</time>
      </trkpt>
      <trkpt lat="41.7094" lon="9.0323">
        <ele>298.63</ele>
        <time>2022-04-28T14:48:09Z</time>
      </trkpt>
      <trkpt lat="41.7095" lon="9.03232">
        <ele>296.7</ele>
        <time>2022-04-28T14:48:15Z</time>
      </trkpt>
      <trkpt lat="41.70954" lon="9.03238">
        <ele>295.26</ele>
        <time>2022-04-28T14:48:32Z</time>
      </trkpt>
      <trkpt lat="41.70957" lon="9.0324">
        <ele>293.82</ele>
        <time>2022-04-28T14:48:55Z</time>
      </trkpt>
      <trkpt lat="41.70961" lon="9.03249">
        <ele>291.42</ele>
        <time>2022-04-28T14:49:11Z</time>
      </trkpt>
      <trkpt lat="41.70967" lon="9.03257">
        <ele>289.97</ele>
        <time>2022-04-28T14:49:25Z</time>
      </trkpt>
      <trkpt lat="41.70975" lon="9.03264">
        <ele>287.09</ele>
        <time>2022-04-28T14:49:41Z</time>
      </trkpt>
      <trkpt lat="41.70984" lon="9.03275">
        <ele>283.73</ele>
        <time>2022-04-28T14:49:58Z</time>
      </trkpt>
      <trkpt lat="41.70989" lon="9.03283">
        <ele>281.8</ele>
        <time>2022-04-28T14:50:09Z</time>
      </trkpt>
      <trkpt lat="41.71" lon="9.03292">
        <ele>278.92</ele>
        <time>2022-04-28T14:50:22Z</time>
      </trkpt>
      <trkpt lat="41.7101" lon="9.03297">
        <ele>277.48</ele>
        <time>2022-04-28T14:50:32Z</time>
      </trkpt>
      <trkpt lat="41.71013" lon="9.03298">
        <ele>277</ele>
        <time>2022-04-28T14:50:35Z</time>
      </trkpt>
      <trkpt lat="41.71034" lon="9.03304">
        <ele>274.11</ele>
        <time>2022-04-28T14:50:49Z</time>
      </trkpt>
      <trkpt lat="41.7105" lon="9.03311">
        <ele>272.19</ele>
        <time>2022-04-28T14:51:02Z</time>
      </trkpt>
      <trkpt lat="41.71052" lon="9.03316">
        <ele>272.19</ele>
        <time>2022-04-28T14:51:10Z</time>
      </trkpt>
      <trkpt lat="41.71054" lon="9.03318">
        <ele>272.67</ele>
        <time>2022-04-28T14:51:13Z</time>
      </trkpt>
      <trkpt lat="41.71057" lon="9.03318">
        <ele>271.71</ele>
        <time>2022-04-28T14:51:16Z</time>
      </trkpt>
      <trkpt lat="41.71058" lon="9.03319">
        <ele>272.19</ele>
        <time>2022-04-28T14:51:17Z</time>
      </trkpt>
      <trkpt lat="41.71059" lon="9.0332">
        <ele>271.23</ele>
        <time>2022-04-28T14:51:18Z</time>
      </trkpt>
      <trkpt lat="41.7106" lon="9.0332">
        <ele>271.71</ele>
        <time>2022-04-28T14:51:19Z</time>
      </trkpt>
      <trkpt lat="41.71071" lon="9.03326">
        <ele>270.27</ele>
        <time>2022-04-28T14:51:31Z</time>
      </trkpt>
      <trkpt lat="41.71085" lon="9.03334">
        <ele>269.79</ele>
        <time>2022-04-28T14:51:44Z</time>
      </trkpt>
      <trkpt lat="41.71087" lon="9.03335">
        <ele>269.79</ele>
        <time>2022-04-28T14:51:45Z</time>
      </trkpt>
      <trkpt lat="41.71097" lon="9.03344">
        <ele>268.83</ele>
        <time>2022-04-28T14:51:57Z</time>
      </trkpt>
      <trkpt lat="41.71098" lon="9.03346">
        <ele>268.35</ele>
        <time>2022-04-28T14:51:58Z</time>
      </trkpt>
      <trkpt lat="41.71111" lon="9.0336">
        <ele>266.9</ele>
        <time>2022-04-28T14:52:10Z</time>
      </trkpt>
      <trkpt lat="41.71113" lon="9.03361">
        <ele>266.9</ele>
        <time>2022-04-28T14:52:13Z</time>
      </trkpt>
      <trkpt lat="41.71114" lon="9.0336">
        <ele>266.9</ele>
        <time>2022-04-28T14:52:14Z</time>
      </trkpt>
      <trkpt lat="41.71119" lon="9.03365">
        <ele>265.94</ele>
        <time>2022-04-28T14:52:20Z</time>
      </trkpt>
      <trkpt lat="41.71121" lon="9.03366">
        <ele>265.94</ele>
        <time>2022-04-28T14:52:21Z</time>
      </trkpt>
      <trkpt lat="41.71122" lon="9.03367">
        <ele>266.42</ele>
        <time>2022-04-28T14:52:22Z</time>
      </trkpt>
      <trkpt lat="41.71124" lon="9.03367">
        <ele>265.94</ele>
        <time>2022-04-28T14:52:23Z</time>
      </trkpt>
      <trkpt lat="41.71128" lon="9.0337">
        <ele>265.94</ele>
        <time>2022-04-28T14:52:26Z</time>
      </trkpt>
      <trkpt lat="41.71129" lon="9.03372">
        <ele>265.94</ele>
        <time>2022-04-28T14:52:27Z</time>
      </trkpt>
      <trkpt lat="41.71129" lon="9.03376">
        <ele>265.46</ele>
        <time>2022-04-28T14:52:29Z</time>
      </trkpt>
      <trkpt lat="41.71132" lon="9.03382">
        <ele>265.46</ele>
        <time>2022-04-28T14:52:33Z</time>
      </trkpt>
      <trkpt lat="41.71134" lon="9.03382">
        <ele>264.98</ele>
        <time>2022-04-28T14:52:34Z</time>
      </trkpt>
      <trkpt lat="41.71146" lon="9.03386">
        <ele>264.98</ele>
        <time>2022-04-28T14:52:43Z</time>
      </trkpt>
      <trkpt lat="41.71148" lon="9.03388">
        <ele>264.98</ele>
        <time>2022-04-28T14:52:44Z</time>
      </trkpt>
      <trkpt lat="41.71149" lon="9.03388">
        <ele>264.98</ele>
        <time>2022-04-28T14:52:45Z</time>
      </trkpt>
      <trkpt lat="41.71153" lon="9.0339">
        <ele>264.98</ele>
        <time>2022-04-28T14:52:48Z</time>
      </trkpt>
      <trkpt lat="41.71156" lon="9.03391">
        <ele>265.46</ele>
        <time>2022-04-28T14:52:50Z</time>
      </trkpt>
      <trkpt lat="41.71157" lon="9.03391">
        <ele>264.98</ele>
        <time>2022-04-28T14:52:51Z</time>
      </trkpt>
      <trkpt lat="41.71159" lon="9.03391">
        <ele>264.98</ele>
        <time>2022-04-28T14:52:52Z</time>
      </trkpt>
      <trkpt lat="41.7116" lon="9.03392">
        <ele>265.46</ele>
        <time>2022-04-28T14:52:53Z</time>
      </trkpt>
      <trkpt lat="41.71161" lon="9.03392">
        <ele>264.5</ele>
        <time>2022-04-28T14:52:54Z</time>
      </trkpt>
      <trkpt lat="41.71163" lon="9.03392">
        <ele>265.46</ele>
        <time>2022-04-28T14:52:55Z</time>
      </trkpt>
      <trkpt lat="41.71164" lon="9.03393">
        <ele>264.98</ele>
        <time>2022-04-28T14:52:56Z</time>
      </trkpt>
      <trkpt lat="41.71165" lon="9.03393">
        <ele>264.98</ele>
        <time>2022-04-28T14:52:57Z</time>
      </trkpt>
      <trkpt lat="41.7117" lon="9.03394">
        <ele>264.98</ele>
        <time>2022-04-28T14:53:01Z</time>
      </trkpt>
      <trkpt lat="41.71171" lon="9.03394">
        <ele>264.98</ele>
        <time>2022-04-28T14:53:02Z</time>
      </trkpt>
      <trkpt lat="41.71188" lon="9.03405">
        <ele>265.46</ele>
        <time>2022-04-28T14:53:18Z</time>
      </trkpt>
      <trkpt lat="41.71198" lon="9.03409">
        <ele>263.54</ele>
        <time>2022-04-28T14:53:28Z</time>
      </trkpt>
      <trkpt lat="41.71213" lon="9.03421">
        <ele>263.54</ele>
        <time>2022-04-28T14:53:41Z</time>
      </trkpt>
      <trkpt lat="41.71226" lon="9.03436">
        <ele>263.06</ele>
        <time>2022-04-28T14:53:53Z</time>
      </trkpt>
      <trkpt lat="41.71246" lon="9.03453">
        <ele>263.06</ele>
        <time>2022-04-28T14:54:09Z</time>
      </trkpt>
      <trkpt lat="41.71252" lon="9.03456">
        <ele>263.06</ele>
        <time>2022-04-28T14:54:15Z</time>
      </trkpt>
      <trkpt lat="41.71254" lon="9.03457">
        <ele>262.58</ele>
        <time>2022-04-28T14:54:16Z</time>
      </trkpt>
      <trkpt lat="41.71255" lon="9.03458">
        <ele>263.06</ele>
        <time>2022-04-28T14:54:17Z</time>
      </trkpt>
      <trkpt lat="41.71256" lon="9.03459">
        <ele>263.06</ele>
        <time>2022-04-28T14:54:18Z</time>
      </trkpt>
      <trkpt lat="41.71266" lon="9.03469">
        <ele>262.1</ele>
        <time>2022-04-28T14:54:28Z</time>
      </trkpt>
      <trkpt lat="41.71279" lon="9.03477">
        <ele>262.1</ele>
        <time>2022-04-28T14:54:40Z</time>
      </trkpt>
      <trkpt lat="41.71283" lon="9.03482">
        <ele>261.14</ele>
        <time>2022-04-28T14:54:44Z</time>
      </trkpt>
      <trkpt lat="41.71285" lon="9.03483">
        <ele>264.98</ele>
        <time>2022-04-28T14:54:45Z</time>
      </trkpt>
      <trkpt lat="41.71286" lon="9.03484">
        <ele>263.06</ele>
        <time>2022-04-28T14:54:46Z</time>
      </trkpt>
      <trkpt lat="41.71302" lon="9.03496">
        <ele>262.1</ele>
        <time>2022-04-28T14:55:01Z</time>
      </trkpt>
      <trkpt lat="41.71304" lon="9.03499">
        <ele>261.62</ele>
        <time>2022-04-28T14:55:03Z</time>
      </trkpt>
      <trkpt lat="41.71319" lon="9.03514">
        <ele>261.62</ele>
        <time>2022-04-28T14:55:17Z</time>
      </trkpt>
      <trkpt lat="41.71323" lon="9.03518">
        <ele>261.14</ele>
        <time>2022-04-28T14:55:20Z</time>
      </trkpt>
      <trkpt lat="41.71338" lon="9.0353">
        <ele>261.62</ele>
        <time>2022-04-28T14:55:32Z</time>
      </trkpt>
      <trkpt lat="41.71351" lon="9.03545">
        <ele>260.17</ele>
        <time>2022-04-28T14:55:46Z</time>
      </trkpt>
      <trkpt lat="41.71355" lon="9.0355">
        <ele>259.21</ele>
        <time>2022-04-28T14:55:50Z</time>
      </trkpt>
      <trkpt lat="41.71358" lon="9.03554">
        <ele>259.69</ele>
        <time>2022-04-28T14:55:53Z</time>
      </trkpt>
      <trkpt lat="41.71359" lon="9.03555">
        <ele>259.69</ele>
        <time>2022-04-28T14:55:54Z</time>
      </trkpt>
      <trkpt lat="41.7136" lon="9.03557">
        <ele>259.21</ele>
        <time>2022-04-28T14:55:55Z</time>
      </trkpt>
      <trkpt lat="41.71363" lon="9.03561">
        <ele>259.21</ele>
        <time>2022-04-28T14:55:57Z</time>
      </trkpt>
      <trkpt lat="41.71367" lon="9.03568">
        <ele>258.73</ele>
        <time>2022-04-28T14:56:02Z</time>
      </trkpt>
      <trkpt lat="41.71377" lon="9.03577">
        <ele>258.73</ele>
        <time>2022-04-28T14:56:13Z</time>
      </trkpt>
      <trkpt lat="41.71382" lon="9.03582">
        <ele>259.21</ele>
        <time>2022-04-28T14:56:19Z</time>
      </trkpt>
      <trkpt lat="41.71393" lon="9.03594">
        <ele>260.17</ele>
        <time>2022-04-28T14:56:29Z</time>
      </trkpt>
      <trkpt lat="41.71405" lon="9.03612">
        <ele>260.65</ele>
        <time>2022-04-28T14:56:42Z</time>
      </trkpt>
      <trkpt lat="41.71417" lon="9.03625">
        <ele>260.17</ele>
        <time>2022-04-28T14:56:55Z</time>
      </trkpt>
      <trkpt lat="41.71422" lon="9.03633">
        <ele>260.17</ele>
        <time>2022-04-28T14:57:01Z</time>
      </trkpt>
      <trkpt lat="41.71423" lon="9.03634">
        <ele>259.69</ele>
        <time>2022-04-28T14:57:02Z</time>
      </trkpt>
      <trkpt lat="41.71438" lon="9.03646">
        <ele>258.73</ele>
        <time>2022-04-28T14:57:16Z</time>
      </trkpt>
      <trkpt lat="41.71451" lon="9.03655">
        <ele>258.25</ele>
        <time>2022-04-28T14:57:26Z</time>
      </trkpt>
      <trkpt lat="41.7146" lon="9.03663">
        <ele>257.77</ele>
        <time>2022-04-28T14:57:32Z</time>
      </trkpt>
      <trkpt lat="41.71462" lon="9.03664">
        <ele>258.25</ele>
        <time>2022-04-28T14:57:33Z</time>
      </trkpt>
      <trkpt lat="41.71463" lon="9.03665">
        <ele>258.25</ele>
        <time>2022-04-28T14:57:34Z</time>
      </trkpt>
      <trkpt lat="41.71473" lon="9.0368">
        <ele>257.29</ele>
        <time>2022-04-28T14:57:47Z</time>
      </trkpt>
      <trkpt lat="41.71475" lon="9.03689">
        <ele>256.81</ele>
        <time>2022-04-28T14:57:58Z</time>
      </trkpt>
      <trkpt lat="41.71473" lon="9.03689">
        <ele>256.33</ele>
        <time>2022-04-28T14:57:59Z</time>
      </trkpt>
      <trkpt lat="41.71465" lon="9.03693">
        <ele>252.96</ele>
        <time>2022-04-28T14:58:04Z</time>
      </trkpt>
      <trkpt lat="41.71456" lon="9.03699">
        <ele>250.08</ele>
        <time>2022-04-28T14:58:08Z</time>
      </trkpt>
      <trkpt lat="41.71449" lon="9.03705">
        <ele>247.68</ele>
        <time>2022-04-28T14:58:13Z</time>
      </trkpt>
      <trkpt lat="41.71442" lon="9.03711">
        <ele>244.31</ele>
        <time>2022-04-28T14:58:17Z</time>
      </trkpt>
      <trkpt lat="41.71434" lon="9.03723">
        <ele>241.43</ele>
        <time>2022-04-28T14:58:27Z</time>
      </trkpt>
      <trkpt lat="41.71434" lon="9.03725">
        <ele>241.43</ele>
        <time>2022-04-28T14:58:51Z</time>
      </trkpt>
      <trkpt lat="41.71425" lon="9.0373">
        <ele>238.54</ele>
        <time>2022-04-28T14:59:02Z</time>
      </trkpt>
      <trkpt lat="41.71422" lon="9.03732">
        <ele>237.58</ele>
        <time>2022-04-28T14:59:07Z</time>
      </trkpt>
      <trkpt lat="41.7142" lon="9.03732">
        <ele>237.58</ele>
        <time>2022-04-28T14:59:12Z</time>
      </trkpt>
      <trkpt lat="41.71419" lon="9.03734">
        <ele>237.1</ele>
        <time>2022-04-28T14:59:13Z</time>
      </trkpt>
      <trkpt lat="41.71418" lon="9.03735">
        <ele>236.62</ele>
        <time>2022-04-28T14:59:14Z</time>
      </trkpt>
      <trkpt lat="41.71417" lon="9.03737">
        <ele>236.62</ele>
        <time>2022-04-28T14:59:15Z</time>
      </trkpt>
      <trkpt lat="41.71416" lon="9.03738">
        <ele>236.62</ele>
        <time>2022-04-28T14:59:16Z</time>
      </trkpt>
      <trkpt lat="41.71415" lon="9.03738">
        <ele>236.62</ele>
        <time>2022-04-28T14:59:17Z</time>
      </trkpt>
      <trkpt lat="41.71409" lon="9.03742">
        <ele>233.26</ele>
        <time>2022-04-28T14:59:27Z</time>
      </trkpt>
      <trkpt lat="41.71406" lon="9.03744">
        <ele>231.81</ele>
        <time>2022-04-28T14:59:31Z</time>
      </trkpt>
      <trkpt lat="41.71401" lon="9.03748">
        <ele>229.89</ele>
        <time>2022-04-28T14:59:38Z</time>
      </trkpt>
      <trkpt lat="41.71392" lon="9.03761">
        <ele>227.01</ele>
        <time>2022-04-28T14:59:49Z</time>
      </trkpt>
      <trkpt lat="41.7138" lon="9.03762">
        <ele>225.57</ele>
        <time>2022-04-28T15:00:03Z</time>
      </trkpt>
      <trkpt lat="41.71368" lon="9.03768">
        <ele>223.64</ele>
        <time>2022-04-28T15:00:17Z</time>
      </trkpt>
      <trkpt lat="41.71358" lon="9.03769">
        <ele>222.2</ele>
        <time>2022-04-28T15:00:25Z</time>
      </trkpt>
      <trkpt lat="41.71356" lon="9.0377">
        <ele>221.72</ele>
        <time>2022-04-28T15:00:26Z</time>
      </trkpt>
      <trkpt lat="41.71345" lon="9.0377">
        <ele>221.24</ele>
        <time>2022-04-28T15:00:38Z</time>
      </trkpt>
      <trkpt lat="41.71337" lon="9.03771">
        <ele>219.8</ele>
        <time>2022-04-28T15:00:50Z</time>
      </trkpt>
      <trkpt lat="41.71321" lon="9.03772">
        <ele>218.36</ele>
        <time>2022-04-28T15:01:05Z</time>
      </trkpt>
      <trkpt lat="41.71302" lon="9.03774">
        <ele>217.4</ele>
        <time>2022-04-28T15:01:22Z</time>
      </trkpt>
      <trkpt lat="41.71293" lon="9.03778">
        <ele>217.4</ele>
        <time>2022-04-28T15:01:49Z</time>
      </trkpt>
      <trkpt lat="41.71293" lon="9.03783">
        <ele>216.91</ele>
        <time>2022-04-28T15:02:10Z</time>
      </trkpt>
      <trkpt lat="41.71279" lon="9.03775">
        <ele>215.47</ele>
        <time>2022-04-28T15:02:28Z</time>
      </trkpt>
      <trkpt lat="41.71272" lon="9.03775">
        <ele>214.99</ele>
        <time>2022-04-28T15:02:43Z</time>
      </trkpt>
      <trkpt lat="41.71261" lon="9.0377">
        <ele>214.03</ele>
        <time>2022-04-28T15:03:00Z</time>
      </trkpt>
      <trkpt lat="41.71244" lon="9.03772">
        <ele>211.15</ele>
        <time>2022-04-28T15:03:16Z</time>
      </trkpt>
      <trkpt lat="41.71231" lon="9.03776">
        <ele>210.19</ele>
        <time>2022-04-28T15:03:31Z</time>
      </trkpt>
      <trkpt lat="41.71233" lon="9.03771">
        <ele>209.7</ele>
        <time>2022-04-28T15:03:57Z</time>
      </trkpt>
      <trkpt lat="41.7123" lon="9.03769">
        <ele>209.7</ele>
        <time>2022-04-28T15:04:26Z</time>
      </trkpt>
      <trkpt lat="41.71231" lon="9.03761">
        <ele>209.22</ele>
        <time>2022-04-28T15:04:53Z</time>
      </trkpt>
      <trkpt lat="41.71225" lon="9.03775">
        <ele>209.22</ele>
        <time>2022-04-28T15:05:09Z</time>
      </trkpt>
      <trkpt lat="41.7121" lon="9.0377">
        <ele>206.34</ele>
        <time>2022-04-28T15:05:26Z</time>
      </trkpt>
      <trkpt lat="41.71202" lon="9.03766">
        <ele>205.86</ele>
        <time>2022-04-28T15:05:36Z</time>
      </trkpt>
      <trkpt lat="41.71201" lon="9.03765">
        <ele>205.86</ele>
        <time>2022-04-28T15:05:37Z</time>
      </trkpt>
      <trkpt lat="41.712" lon="9.03764">
        <ele>205.38</ele>
        <time>2022-04-28T15:05:38Z</time>
      </trkpt>
      <trkpt lat="41.71198" lon="9.03763">
        <ele>205.86</ele>
        <time>2022-04-28T15:05:39Z</time>
      </trkpt>
      <trkpt lat="41.71197" lon="9.03762">
        <ele>205.38</ele>
        <time>2022-04-28T15:05:40Z</time>
      </trkpt>
      <trkpt lat="41.71196" lon="9.03761">
        <ele>205.38</ele>
        <time>2022-04-28T15:05:41Z</time>
      </trkpt>
      <trkpt lat="41.7118" lon="9.03768">
        <ele>202.98</ele>
        <time>2022-04-28T15:05:59Z</time>
      </trkpt>
      <trkpt lat="41.71178" lon="9.03768">
        <ele>202.98</ele>
        <time>2022-04-28T15:06:19Z</time>
      </trkpt>
      <trkpt lat="41.71166" lon="9.03756">
        <ele>202.49</ele>
        <time>2022-04-28T15:06:33Z</time>
      </trkpt>
      <trkpt lat="41.71165" lon="9.03755">
        <ele>202.49</ele>
        <time>2022-04-28T15:06:34Z</time>
      </trkpt>
      <trkpt lat="41.71144" lon="9.03755">
        <ele>200.09</ele>
        <time>2022-04-28T15:06:49Z</time>
      </trkpt>
      <trkpt lat="41.71137" lon="9.03754">
        <ele>200.57</ele>
        <time>2022-04-28T15:06:54Z</time>
      </trkpt>
      <trkpt lat="41.71136" lon="9.03755">
        <ele>200.57</ele>
        <time>2022-04-28T15:06:55Z</time>
      </trkpt>
      <trkpt lat="41.71135" lon="9.03755">
        <ele>200.09</ele>
        <time>2022-04-28T15:06:56Z</time>
      </trkpt>
      <trkpt lat="41.71128" lon="9.03756">
        <ele>199.61</ele>
        <time>2022-04-28T15:07:03Z</time>
      </trkpt>
      <trkpt lat="41.71121" lon="9.03758">
        <ele>199.61</ele>
        <time>2022-04-28T15:07:15Z</time>
      </trkpt>
      <trkpt lat="41.71118" lon="9.03758">
        <ele>199.13</ele>
        <time>2022-04-28T15:07:24Z</time>
      </trkpt>
      <trkpt lat="41.71119" lon="9.03758">
        <ele>199.61</ele>
        <time>2022-04-28T15:07:35Z</time>
      </trkpt>
      <trkpt lat="41.71118" lon="9.0376">
        <ele>199.13</ele>
        <time>2022-04-28T15:07:52Z</time>
      </trkpt>
      <trkpt lat="41.71114" lon="9.03758">
        <ele>198.65</ele>
        <time>2022-04-28T15:08:01Z</time>
      </trkpt>
      <trkpt lat="41.71104" lon="9.03757">
        <ele>198.65</ele>
        <time>2022-04-28T15:08:15Z</time>
      </trkpt>
      <trkpt lat="41.71101" lon="9.03761">
        <ele>198.65</ele>
        <time>2022-04-28T15:08:18Z</time>
      </trkpt>
      <trkpt lat="41.71096" lon="9.0377">
        <ele>199.13</ele>
        <time>2022-04-28T15:08:26Z</time>
      </trkpt>
      <trkpt lat="41.71084" lon="9.03776">
        <ele>200.09</ele>
        <time>2022-04-28T15:08:40Z</time>
      </trkpt>
      <trkpt lat="41.71069" lon="9.0378">
        <ele>198.65</ele>
        <time>2022-04-28T15:08:56Z</time>
      </trkpt>
      <trkpt lat="41.71048" lon="9.03786">
        <ele>197.69</ele>
        <time>2022-04-28T15:09:11Z</time>
      </trkpt>
      <trkpt lat="41.71033" lon="9.03781">
        <ele>197.21</ele>
        <time>2022-04-28T15:09:24Z</time>
      </trkpt>
      <trkpt lat="41.71019" lon="9.03779">
        <ele>197.21</ele>
        <time>2022-04-28T15:09:37Z</time>
      </trkpt>
      <trkpt lat="41.71006" lon="9.03782">
        <ele>197.21</ele>
        <time>2022-04-28T15:09:51Z</time>
      </trkpt>
      <trkpt lat="41.70993" lon="9.03796">
        <ele>197.21</ele>
        <time>2022-04-28T15:10:07Z</time>
      </trkpt>
      <trkpt lat="41.70982" lon="9.03811">
        <ele>195.77</ele>
        <time>2022-04-28T15:10:23Z</time>
      </trkpt>
      <trkpt lat="41.70968" lon="9.03817">
        <ele>194.8</ele>
        <time>2022-04-28T15:10:37Z</time>
      </trkpt>
      <trkpt lat="41.70956" lon="9.03831">
        <ele>194.8</ele>
        <time>2022-04-28T15:10:54Z</time>
      </trkpt>
      <trkpt lat="41.7094" lon="9.0385">
        <ele>192.88</ele>
        <time>2022-04-28T15:11:11Z</time>
      </trkpt>
      <trkpt lat="41.70923" lon="9.03872">
        <ele>190.96</ele>
        <time>2022-04-28T15:11:27Z</time>
      </trkpt>
      <trkpt lat="41.70912" lon="9.03891">
        <ele>189.04</ele>
        <time>2022-04-28T15:11:44Z</time>
      </trkpt>
      <trkpt lat="41.70901" lon="9.03908">
        <ele>186.63</ele>
        <time>2022-04-28T15:11:59Z</time>
      </trkpt>
      <trkpt lat="41.70893" lon="9.03921">
        <ele>185.67</ele>
        <time>2022-04-28T15:12:13Z</time>
      </trkpt>
      <trkpt lat="41.70875" lon="9.03932">
        <ele>184.71</ele>
        <time>2022-04-28T15:12:28Z</time>
      </trkpt>
      <trkpt lat="41.70865" lon="9.03936">
        <ele>183.75</ele>
        <time>2022-04-28T15:12:37Z</time>
      </trkpt>
      <trkpt lat="41.7086" lon="9.03949">
        <ele>183.27</ele>
        <time>2022-04-28T15:12:55Z</time>
      </trkpt>
      <trkpt lat="41.70855" lon="9.03958">
        <ele>180.38</ele>
        <time>2022-04-28T15:13:09Z</time>
      </trkpt>
      <trkpt lat="41.70846" lon="9.03962">
        <ele>177.02</ele>
        <time>2022-04-28T15:13:20Z</time>
      </trkpt>
      <trkpt lat="41.70829" lon="9.03971">
        <ele>174.14</ele>
        <time>2022-04-28T15:13:34Z</time>
      </trkpt>
      <trkpt lat="41.7082" lon="9.03975">
        <ele>170.77</ele>
        <time>2022-04-28T15:13:45Z</time>
      </trkpt>
      <trkpt lat="41.708" lon="9.03979">
        <ele>168.37</ele>
        <time>2022-04-28T15:13:59Z</time>
      </trkpt>
      <trkpt lat="41.70777" lon="9.03984">
        <ele>165.48</ele>
        <time>2022-04-28T15:14:16Z</time>
      </trkpt>
      <trkpt lat="41.70764" lon="9.03985">
        <ele>164.04</ele>
        <time>2022-04-28T15:14:25Z</time>
      </trkpt>
      <trkpt lat="41.70744" lon="9.0399">
        <ele>160.68</ele>
        <time>2022-04-28T15:14:39Z</time>
      </trkpt>
      <trkpt lat="41.7074" lon="9.0399">
        <ele>159.72</ele>
        <time>2022-04-28T15:14:42Z</time>
      </trkpt>
      <trkpt lat="41.70713" lon="9.0399">
        <ele>158.27</ele>
        <time>2022-04-28T15:15:02Z</time>
      </trkpt>
      <trkpt lat="41.70697" lon="9.03986">
        <ele>158.27</ele>
        <time>2022-04-28T15:15:19Z</time>
      </trkpt>
      <trkpt lat="41.70683" lon="9.03988">
        <ele>158.27</ele>
        <time>2022-04-28T15:15:35Z</time>
      </trkpt>
      <trkpt lat="41.70667" lon="9.03986">
        <ele>159.24</ele>
        <time>2022-04-28T15:15:53Z</time>
      </trkpt>
      <trkpt lat="41.70647" lon="9.03988">
        <ele>158.75</ele>
        <time>2022-04-28T15:16:12Z</time>
      </trkpt>
      <trkpt lat="41.70631" lon="9.03986">
        <ele>159.24</ele>
        <time>2022-04-28T15:16:27Z</time>
      </trkpt>
      <trkpt lat="41.70616" lon="9.03983">
        <ele>158.27</ele>
        <time>2022-04-28T15:16:42Z</time>
      </trkpt>
      <trkpt lat="41.7061" lon="9.03988">
        <ele>157.79</ele>
        <time>2022-04-28T15:16:47Z</time>
      </trkpt>
      <trkpt lat="41.70606" lon="9.03989">
        <ele>157.79</ele>
        <time>2022-04-28T15:16:50Z</time>
      </trkpt>
      <trkpt lat="41.70589" lon="9.03988">
        <ele>157.31</ele>
        <time>2022-04-28T15:17:06Z</time>
      </trkpt>
      <trkpt lat="41.70568" lon="9.03995">
        <ele>156.35</ele>
        <time>2022-04-28T15:17:23Z</time>
      </trkpt>
      <trkpt lat="41.70545" lon="9.03997">
        <ele>156.35</ele>
        <time>2022-04-28T15:17:42Z</time>
      </trkpt>
      <trkpt lat="41.70526" lon="9.03999">
        <ele>156.35</ele>
        <time>2022-04-28T15:17:59Z</time>
      </trkpt>
      <trkpt lat="41.70516" lon="9.04008">
        <ele>155.87</ele>
        <time>2022-04-28T15:18:15Z</time>
      </trkpt>
      <trkpt lat="41.70512" lon="9.04008">
        <ele>155.39</ele>
        <time>2022-04-28T15:18:41Z</time>
      </trkpt>
      <trkpt lat="41.70499" lon="9.04019">
        <ele>152.99</ele>
        <time>2022-04-28T15:18:58Z</time>
      </trkpt>
      <trkpt lat="41.70485" lon="9.04031">
        <ele>152.03</ele>
        <time>2022-04-28T15:19:12Z</time>
      </trkpt>
      <trkpt lat="41.7048" lon="9.04034">
        <ele>152.03</ele>
        <time>2022-04-28T15:19:18Z</time>
      </trkpt>
      <trkpt lat="41.70479" lon="9.04035">
        <ele>152.03</ele>
        <time>2022-04-28T15:19:19Z</time>
      </trkpt>
      <trkpt lat="41.70478" lon="9.04036">
        <ele>152.03</ele>
        <time>2022-04-28T15:19:20Z</time>
      </trkpt>
      <trkpt lat="41.70469" lon="9.04045">
        <ele>149.14</ele>
        <time>2022-04-28T15:19:34Z</time>
      </trkpt>
      <trkpt lat="41.70465" lon="9.04049">
        <ele>147.7</ele>
        <time>2022-04-28T15:19:41Z</time>
      </trkpt>
      <trkpt lat="41.70452" lon="9.04059">
        <ele>147.7</ele>
        <time>2022-04-28T15:19:54Z</time>
      </trkpt>
      <trkpt lat="41.7045" lon="9.0406">
        <ele>147.22</ele>
        <time>2022-04-28T15:19:56Z</time>
      </trkpt>
      <trkpt lat="41.70448" lon="9.04061">
        <ele>147.22</ele>
        <time>2022-04-28T15:19:57Z</time>
      </trkpt>
      <trkpt lat="41.70447" lon="9.04062">
        <ele>146.74</ele>
        <time>2022-04-28T15:19:58Z</time>
      </trkpt>
      <trkpt lat="41.70447" lon="9.04065">
        <ele>147.22</ele>
        <time>2022-04-28T15:19:59Z</time>
      </trkpt>
      <trkpt lat="41.70445" lon="9.04084">
        <ele>146.26</ele>
        <time>2022-04-28T15:20:12Z</time>
      </trkpt>
      <trkpt lat="41.70449" lon="9.04085">
        <ele>145.78</ele>
        <time>2022-04-28T15:20:26Z</time>
      </trkpt>
      <trkpt lat="41.7045" lon="9.04094">
        <ele>145.3</ele>
        <time>2022-04-28T15:20:49Z</time>
      </trkpt>
      <trkpt lat="41.7045" lon="9.04102">
        <ele>143.85</ele>
        <time>2022-04-28T15:20:53Z</time>
      </trkpt>
      <trkpt lat="41.70451" lon="9.04104">
        <ele>143.37</ele>
        <time>2022-04-28T15:20:54Z</time>
      </trkpt>
      <trkpt lat="41.70452" lon="9.04107">
        <ele>143.37</ele>
        <time>2022-04-28T15:20:55Z</time>
      </trkpt>
      <trkpt lat="41.70452" lon="9.0411">
        <ele>142.41</ele>
        <time>2022-04-28T15:20:57Z</time>
      </trkpt>
      <trkpt lat="41.70452" lon="9.04115">
        <ele>141.45</ele>
        <time>2022-04-28T15:21:01Z</time>
      </trkpt>
      <trkpt lat="41.70453" lon="9.04121">
        <ele>140.97</ele>
        <time>2022-04-28T15:21:03Z</time>
      </trkpt>
      <trkpt lat="41.70453" lon="9.04129">
        <ele>139.53</ele>
        <time>2022-04-28T15:21:06Z</time>
      </trkpt>
      <trkpt lat="41.70457" lon="9.04135">
        <ele>138.09</ele>
        <time>2022-04-28T15:21:11Z</time>
      </trkpt>
      <trkpt lat="41.70458" lon="9.04139">
        <ele>137.13</ele>
        <time>2022-04-28T15:21:14Z</time>
      </trkpt>
      <trkpt lat="41.70459" lon="9.04143">
        <ele>137.13</ele>
        <time>2022-04-28T15:21:21Z</time>
      </trkpt>
      <trkpt lat="41.70461" lon="9.04155">
        <ele>134.72</ele>
        <time>2022-04-28T15:21:41Z</time>
      </trkpt>
      <trkpt lat="41.70463" lon="9.04172">
        <ele>132.8</ele>
        <time>2022-04-28T15:21:56Z</time>
      </trkpt>
      <trkpt lat="41.70466" lon="9.04187">
        <ele>131.84</ele>
        <time>2022-04-28T15:22:20Z</time>
      </trkpt>
      <trkpt lat="41.70471" lon="9.04197">
        <ele>132.32</ele>
        <time>2022-04-28T15:22:35Z</time>
      </trkpt>
      <trkpt lat="41.70471" lon="9.0421">
        <ele>131.36</ele>
        <time>2022-04-28T15:22:46Z</time>
      </trkpt>
      <trkpt lat="41.70469" lon="9.04216">
        <ele>132.8</ele>
        <time>2022-04-28T15:22:49Z</time>
      </trkpt>
      <trkpt lat="41.7047" lon="9.04217">
        <ele>132.32</ele>
        <time>2022-04-28T15:22:50Z</time>
      </trkpt>
      <trkpt lat="41.70471" lon="9.04219">
        <ele>131.36</ele>
        <time>2022-04-28T15:22:51Z</time>
      </trkpt>
      <trkpt lat="41.70472" lon="9.04219">
        <ele>130.88</ele>
        <time>2022-04-28T15:22:52Z</time>
      </trkpt>
      <trkpt lat="41.70479" lon="9.04226">
        <ele>131.36</ele>
        <time>2022-04-28T15:22:58Z</time>
      </trkpt>
      <trkpt lat="41.7048" lon="9.04228">
        <ele>131.36</ele>
        <time>2022-04-28T15:22:59Z</time>
      </trkpt>
      <trkpt lat="41.70481" lon="9.04242">
        <ele>132.8</ele>
        <time>2022-04-28T15:23:13Z</time>
      </trkpt>
      <trkpt lat="41.7048" lon="9.04247">
        <ele>133.28</ele>
        <time>2022-04-28T15:23:18Z</time>
      </trkpt>
      <trkpt lat="41.70489" lon="9.04255">
        <ele>132.8</ele>
        <time>2022-04-28T15:23:30Z</time>
      </trkpt>
      <trkpt lat="41.70495" lon="9.04262">
        <ele>132.8</ele>
        <time>2022-04-28T15:23:51Z</time>
      </trkpt>
      <trkpt lat="41.70498" lon="9.04262">
        <ele>133.28</ele>
        <time>2022-04-28T15:24:06Z</time>
      </trkpt>
      <trkpt lat="41.70501" lon="9.04268">
        <ele>132.8</ele>
        <time>2022-04-28T15:24:17Z</time>
      </trkpt>
      <trkpt lat="41.70502" lon="9.04262">
        <ele>131.84</ele>
        <time>2022-04-28T15:24:30Z</time>
      </trkpt>
      <trkpt lat="41.70503" lon="9.04261">
        <ele>133.28</ele>
        <time>2022-04-28T15:24:33Z</time>
      </trkpt>
      <trkpt lat="41.70506" lon="9.0426">
        <ele>133.76</ele>
        <time>2022-04-28T15:24:49Z</time>
      </trkpt>
      <trkpt lat="41.70518" lon="9.04263">
        <ele>131.36</ele>
        <time>2022-04-28T15:25:02Z</time>
      </trkpt>
      <trkpt lat="41.7052" lon="9.04264">
        <ele>131.84</ele>
        <time>2022-04-28T15:25:25Z</time>
      </trkpt>
      <trkpt lat="41.70518" lon="9.04267">
        <ele>131.84</ele>
        <time>2022-04-28T15:25:37Z</time>
      </trkpt>
      <trkpt lat="41.70522" lon="9.04266">
        <ele>130.4</ele>
        <time>2022-04-28T15:25:42Z</time>
      </trkpt>
      <trkpt lat="41.70533" lon="9.04273">
        <ele>128.47</ele>
        <time>2022-04-28T15:25:53Z</time>
      </trkpt>
      <trkpt lat="41.70541" lon="9.04281">
        <ele>129.92</ele>
        <time>2022-04-28T15:26:04Z</time>
      </trkpt>
      <trkpt lat="41.70545" lon="9.04278">
        <ele>131.84</ele>
        <time>2022-04-28T15:26:17Z</time>
      </trkpt>
      <trkpt lat="41.70542" lon="9.04271">
        <ele>134.72</ele>
        <time>2022-04-28T15:26:31Z</time>
      </trkpt>
      <trkpt lat="41.70543" lon="9.04259">
        <ele>138.57</ele>
        <time>2022-04-28T15:26:48Z</time>
      </trkpt>
      <trkpt lat="41.70543" lon="9.04243">
        <ele>140.97</ele>
        <time>2022-04-28T15:27:04Z</time>
      </trkpt>
      <trkpt lat="41.70546" lon="9.04231">
        <ele>142.41</ele>
        <time>2022-04-28T15:27:22Z</time>
      </trkpt>
      <trkpt lat="41.70545" lon="9.04217">
        <ele>144.82</ele>
        <time>2022-04-28T15:27:39Z</time>
      </trkpt>
      <trkpt lat="41.70552" lon="9.04202">
        <ele>147.7</ele>
        <time>2022-04-28T15:27:58Z</time>
      </trkpt>
      <trkpt lat="41.70555" lon="9.04194">
        <ele>149.14</ele>
        <time>2022-04-28T15:28:13Z</time>
      </trkpt>
      <trkpt lat="41.70564" lon="9.04181">
        <ele>148.18</ele>
        <time>2022-04-28T15:28:32Z</time>
      </trkpt>
      <trkpt lat="41.70574" lon="9.04165">
        <ele>150.1</ele>
        <time>2022-04-28T15:28:50Z</time>
      </trkpt>
      <trkpt lat="41.70583" lon="9.04155">
        <ele>150.58</ele>
        <time>2022-04-28T15:29:06Z</time>
      </trkpt>
      <trkpt lat="41.7059" lon="9.04141">
        <ele>147.7</ele>
        <time>2022-04-28T15:29:24Z</time>
      </trkpt>
      <trkpt lat="41.70597" lon="9.04129">
        <ele>145.78</ele>
        <time>2022-04-28T15:29:35Z</time>
      </trkpt>
      <trkpt lat="41.70609" lon="9.04139">
        <ele>143.37</ele>
        <time>2022-04-28T15:29:50Z</time>
      </trkpt>
      <trkpt lat="41.70619" lon="9.04142">
        <ele>142.89</ele>
        <time>2022-04-28T15:30:06Z</time>
      </trkpt>
      <trkpt lat="41.70629" lon="9.04148">
        <ele>142.41</ele>
        <time>2022-04-28T15:30:18Z</time>
      </trkpt>
      <trkpt lat="41.7064" lon="9.04157">
        <ele>142.89</ele>
        <time>2022-04-28T15:30:32Z</time>
      </trkpt>
      <trkpt lat="41.70644" lon="9.04157">
        <ele>143.37</ele>
        <time>2022-04-28T15:30:56Z</time>
      </trkpt>
      <trkpt lat="41.70647" lon="9.04156">
        <ele>142.89</ele>
        <time>2022-04-28T15:31:17Z</time>
      </trkpt>
      <trkpt lat="41.70645" lon="9.04163">
        <ele>144.82</ele>
        <time>2022-04-28T15:31:33Z</time>
      </trkpt>
      <trkpt lat="41.70651" lon="9.0417">
        <ele>142.41</ele>
        <time>2022-04-28T15:31:48Z</time>
      </trkpt>
      <trkpt lat="41.70659" lon="9.04171">
        <ele>140.97</ele>
        <time>2022-04-28T15:31:56Z</time>
      </trkpt>
      <trkpt lat="41.70663" lon="9.04171">
        <ele>140.01</ele>
        <time>2022-04-28T15:32:09Z</time>
      </trkpt>
      <trkpt lat="41.70667" lon="9.04172">
        <ele>139.05</ele>
        <time>2022-04-28T15:32:27Z</time>
      </trkpt>
      <trkpt lat="41.70666" lon="9.04175">
        <ele>139.53</ele>
        <time>2022-04-28T15:32:54Z</time>
      </trkpt>
      <trkpt lat="41.70674" lon="9.04175">
        <ele>137.61</ele>
        <time>2022-04-28T15:33:13Z</time>
      </trkpt>
      <trkpt lat="41.70691" lon="9.0417">
        <ele>136.64</ele>
        <time>2022-04-28T15:33:28Z</time>
      </trkpt>
      <trkpt lat="41.707" lon="9.04168">
        <ele>136.64</ele>
        <time>2022-04-28T15:33:34Z</time>
      </trkpt>
      <trkpt lat="41.70713" lon="9.04162">
        <ele>137.61</ele>
        <time>2022-04-28T15:33:49Z</time>
      </trkpt>
      <trkpt lat="41.7073" lon="9.04161">
        <ele>138.09</ele>
        <time>2022-04-28T15:34:04Z</time>
      </trkpt>
      <trkpt lat="41.70751" lon="9.04163">
        <ele>138.57</ele>
        <time>2022-04-28T15:34:22Z</time>
      </trkpt>
      <trkpt lat="41.7077" lon="9.04152">
        <ele>138.09</ele>
        <time>2022-04-28T15:34:38Z</time>
      </trkpt>
      <trkpt lat="41.70786" lon="9.04138">
        <ele>138.09</ele>
        <time>2022-04-28T15:34:55Z</time>
      </trkpt>
      <trkpt lat="41.70801" lon="9.04115">
        <ele>136.64</ele>
        <time>2022-04-28T15:35:15Z</time>
      </trkpt>
      <trkpt lat="41.70812" lon="9.04095">
        <ele>134.72</ele>
        <time>2022-04-28T15:35:31Z</time>
      </trkpt>
      <trkpt lat="41.7083" lon="9.04094">
        <ele>136.16</ele>
        <time>2022-04-28T15:35:49Z</time>
      </trkpt>
      <trkpt lat="41.70834" lon="9.04111">
        <ele>139.05</ele>
        <time>2022-04-28T15:36:07Z</time>
      </trkpt>
      <trkpt lat="41.70842" lon="9.04115">
        <ele>140.49</ele>
        <time>2022-04-28T15:36:16Z</time>
      </trkpt>
      <trkpt lat="41.70844" lon="9.04131">
        <ele>141.93</ele>
        <time>2022-04-28T15:36:29Z</time>
      </trkpt>
      <trkpt lat="41.70845" lon="9.04148">
        <ele>142.89</ele>
        <time>2022-04-28T15:36:41Z</time>
      </trkpt>
      <trkpt lat="41.70846" lon="9.04159">
        <ele>143.85</ele>
        <time>2022-04-28T15:36:53Z</time>
      </trkpt>
      <trkpt lat="41.70849" lon="9.04172">
        <ele>144.82</ele>
        <time>2022-04-28T15:37:06Z</time>
      </trkpt>
      <trkpt lat="41.70852" lon="9.04184">
        <ele>146.74</ele>
        <time>2022-04-28T15:37:20Z</time>
      </trkpt>
      <trkpt lat="41.70853" lon="9.04201">
        <ele>148.18</ele>
        <time>2022-04-28T15:37:34Z</time>
      </trkpt>
      <trkpt lat="41.70856" lon="9.04215">
        <ele>150.58</ele>
        <time>2022-04-28T15:37:48Z</time>
      </trkpt>
      <trkpt lat="41.70858" lon="9.04226">
        <ele>153.47</ele>
        <time>2022-04-28T15:38:02Z</time>
      </trkpt>
      <trkpt lat="41.7086" lon="9.04234">
        <ele>155.87</ele>
        <time>2022-04-28T15:38:14Z</time>
      </trkpt>
      <trkpt lat="41.70863" lon="9.04248">
        <ele>158.27</ele>
        <time>2022-04-28T15:38:31Z</time>
      </trkpt>
      <trkpt lat="41.70862" lon="9.04261">
        <ele>161.16</ele>
        <time>2022-04-28T15:38:48Z</time>
      </trkpt>
      <trkpt lat="41.70864" lon="9.0427">
        <ele>163.56</ele>
        <time>2022-04-28T15:39:03Z</time>
      </trkpt>
      <trkpt lat="41.70863" lon="9.04279">
        <ele>166.45</ele>
        <time>2022-04-28T15:39:19Z</time>
      </trkpt>
      <trkpt lat="41.70866" lon="9.04284">
        <ele>168.85</ele>
        <time>2022-04-28T15:39:36Z</time>
      </trkpt>
      <trkpt lat="41.70866" lon="9.04291">
        <ele>171.73</ele>
        <time>2022-04-28T15:39:49Z</time>
      </trkpt>
      <trkpt lat="41.70867" lon="9.04297">
        <ele>175.1</ele>
        <time>2022-04-28T15:40:05Z</time>
      </trkpt>
      <trkpt lat="41.70872" lon="9.04305">
        <ele>177.02</ele>
        <time>2022-04-28T15:40:21Z</time>
      </trkpt>
      <trkpt lat="41.70871" lon="9.04317">
        <ele>179.9</ele>
        <time>2022-04-28T15:40:36Z</time>
      </trkpt>
      <trkpt lat="41.70871" lon="9.0433">
        <ele>182.31</ele>
        <time>2022-04-28T15:40:51Z</time>
      </trkpt>
      <trkpt lat="41.70875" lon="9.04333">
        <ele>183.75</ele>
        <time>2022-04-28T15:41:07Z</time>
      </trkpt>
      <trkpt lat="41.70875" lon="9.04336">
        <ele>183.27</ele>
        <time>2022-04-28T15:41:31Z</time>
      </trkpt>
      <trkpt lat="41.70875" lon="9.04346">
        <ele>185.67</ele>
        <time>2022-04-28T15:41:53Z</time>
      </trkpt>
      <trkpt lat="41.70875" lon="9.04355">
        <ele>188.56</ele>
        <time>2022-04-28T15:42:09Z</time>
      </trkpt>
      <trkpt lat="41.7088" lon="9.04359">
        <ele>190.96</ele>
        <time>2022-04-28T15:42:23Z</time>
      </trkpt>
      <trkpt lat="41.70882" lon="9.04359">
        <ele>191.92</ele>
        <time>2022-04-28T15:42:25Z</time>
      </trkpt>
      <trkpt lat="41.70886" lon="9.0436">
        <ele>192.88</ele>
        <time>2022-04-28T15:42:31Z</time>
      </trkpt>
      <trkpt lat="41.70894" lon="9.04364">
        <ele>195.77</ele>
        <time>2022-04-28T15:42:45Z</time>
      </trkpt>
      <trkpt lat="41.70887" lon="9.04376">
        <ele>197.21</ele>
        <time>2022-04-28T15:43:00Z</time>
      </trkpt>
      <trkpt lat="41.70875" lon="9.04387">
        <ele>200.09</ele>
        <time>2022-04-28T15:43:14Z</time>
      </trkpt>
      <trkpt lat="41.70864" lon="9.04393">
        <ele>199.61</ele>
        <time>2022-04-28T15:43:26Z</time>
      </trkpt>
      <trkpt lat="41.70845" lon="9.044">
        <ele>202.01</ele>
        <time>2022-04-28T15:43:44Z</time>
      </trkpt>
      <trkpt lat="41.7083" lon="9.04396">
        <ele>204.42</ele>
        <time>2022-04-28T15:44:01Z</time>
      </trkpt>
      <trkpt lat="41.70817" lon="9.04391">
        <ele>205.86</ele>
        <time>2022-04-28T15:44:16Z</time>
      </trkpt>
      <trkpt lat="41.70806" lon="9.04386">
        <ele>209.22</ele>
        <time>2022-04-28T15:44:33Z</time>
      </trkpt>
      <trkpt lat="41.70795" lon="9.04387">
        <ele>211.63</ele>
        <time>2022-04-28T15:44:50Z</time>
      </trkpt>
      <trkpt lat="41.70797" lon="9.04393">
        <ele>212.11</ele>
        <time>2022-04-28T15:45:08Z</time>
      </trkpt>
      <trkpt lat="41.70797" lon="9.04398">
        <ele>214.51</ele>
        <time>2022-04-28T15:45:24Z</time>
      </trkpt>
      <trkpt lat="41.70796" lon="9.04405">
        <ele>217.88</ele>
        <time>2022-04-28T15:45:38Z</time>
      </trkpt>
      <trkpt lat="41.70795" lon="9.04413">
        <ele>219.8</ele>
        <time>2022-04-28T15:45:56Z</time>
      </trkpt>
      <trkpt lat="41.70791" lon="9.04417">
        <ele>223.16</ele>
        <time>2022-04-28T15:46:09Z</time>
      </trkpt>
      <trkpt lat="41.70789" lon="9.04426">
        <ele>226.53</ele>
        <time>2022-04-28T15:46:26Z</time>
      </trkpt>
      <trkpt lat="41.70786" lon="9.04441">
        <ele>228.45</ele>
        <time>2022-04-28T15:46:44Z</time>
      </trkpt>
      <trkpt lat="41.70776" lon="9.04456">
        <ele>231.33</ele>
        <time>2022-04-28T15:47:02Z</time>
      </trkpt>
      <trkpt lat="41.70765" lon="9.04472">
        <ele>233.26</ele>
        <time>2022-04-28T15:47:23Z</time>
      </trkpt>
      <trkpt lat="41.70756" lon="9.04483">
        <ele>235.18</ele>
        <time>2022-04-28T15:47:39Z</time>
      </trkpt>
      <trkpt lat="41.70757" lon="9.04497">
        <ele>237.58</ele>
        <time>2022-04-28T15:47:56Z</time>
      </trkpt>
      <trkpt lat="41.70759" lon="9.04497">
        <ele>236.62</ele>
        <time>2022-04-28T15:48:21Z</time>
      </trkpt>
      <trkpt lat="41.70763" lon="9.045">
        <ele>236.14</ele>
        <time>2022-04-28T15:48:36Z</time>
      </trkpt>
      <trkpt lat="41.70763" lon="9.04503">
        <ele>236.14</ele>
        <time>2022-04-28T15:48:52Z</time>
      </trkpt>
      <trkpt lat="41.70769" lon="9.04509">
        <ele>236.14</ele>
        <time>2022-04-28T15:49:09Z</time>
      </trkpt>
      <trkpt lat="41.70784" lon="9.04521">
        <ele>236.62</ele>
        <time>2022-04-28T15:49:26Z</time>
      </trkpt>
      <trkpt lat="41.70786" lon="9.04521">
        <ele>237.1</ele>
        <time>2022-04-28T15:49:28Z</time>
      </trkpt>
      <trkpt lat="41.70792" lon="9.04525">
        <ele>237.1</ele>
        <time>2022-04-28T15:49:34Z</time>
      </trkpt>
      <trkpt lat="41.70793" lon="9.04545">
        <ele>237.1</ele>
        <time>2022-04-28T15:49:49Z</time>
      </trkpt>
      <trkpt lat="41.70787" lon="9.0457">
        <ele>238.54</ele>
        <time>2022-04-28T15:50:05Z</time>
      </trkpt>
      <trkpt lat="41.70785" lon="9.0459">
        <ele>239.99</ele>
        <time>2022-04-28T15:50:21Z</time>
      </trkpt>
      <trkpt lat="41.70792" lon="9.04612">
        <ele>242.39</ele>
        <time>2022-04-28T15:50:39Z</time>
      </trkpt>
      <trkpt lat="41.70792" lon="9.04613">
        <ele>241.43</ele>
        <time>2022-04-28T15:50:40Z</time>
      </trkpt>
      <trkpt lat="41.70794" lon="9.04618">
        <ele>241.91</ele>
        <time>2022-04-28T15:50:44Z</time>
      </trkpt>
      <trkpt lat="41.70803" lon="9.04634">
        <ele>244.31</ele>
        <time>2022-04-28T15:51:00Z</time>
      </trkpt>
      <trkpt lat="41.70809" lon="9.04644">
        <ele>245.75</ele>
        <time>2022-04-28T15:51:14Z</time>
      </trkpt>
      <trkpt lat="41.70808" lon="9.0466">
        <ele>248.64</ele>
        <time>2022-04-28T15:51:32Z</time>
      </trkpt>
      <trkpt lat="41.70812" lon="9.04675">
        <ele>251.04</ele>
        <time>2022-04-28T15:51:48Z</time>
      </trkpt>
      <trkpt lat="41.70814" lon="9.04688">
        <ele>253.93</ele>
        <time>2022-04-28T15:52:01Z</time>
      </trkpt>
      <trkpt lat="41.70817" lon="9.047">
        <ele>256.33</ele>
        <time>2022-04-28T15:52:17Z</time>
      </trkpt>
      <trkpt lat="41.7082" lon="9.0471">
        <ele>259.69</ele>
        <time>2022-04-28T15:52:31Z</time>
      </trkpt>
      <trkpt lat="41.70824" lon="9.04723">
        <ele>262.58</ele>
        <time>2022-04-28T15:52:50Z</time>
      </trkpt>
      <trkpt lat="41.70825" lon="9.04732">
        <ele>265.94</ele>
        <time>2022-04-28T15:53:05Z</time>
      </trkpt>
      <trkpt lat="41.70826" lon="9.04733">
        <ele>265.94</ele>
        <time>2022-04-28T15:53:07Z</time>
      </trkpt>
      <trkpt lat="41.70825" lon="9.04741">
        <ele>268.35</ele>
        <time>2022-04-28T15:53:22Z</time>
      </trkpt>
      <trkpt lat="41.70822" lon="9.04752">
        <ele>270.75</ele>
        <time>2022-04-28T15:53:39Z</time>
      </trkpt>
      <trkpt lat="41.70818" lon="9.04759">
        <ele>273.63</ele>
        <time>2022-04-28T15:53:53Z</time>
      </trkpt>
      <trkpt lat="41.70812" lon="9.04769">
        <ele>276.52</ele>
        <time>2022-04-28T15:54:09Z</time>
      </trkpt>
      <trkpt lat="41.70807" lon="9.04781">
        <ele>277.96</ele>
        <time>2022-04-28T15:54:26Z</time>
      </trkpt>
      <trkpt lat="41.70799" lon="9.04795">
        <ele>279.88</ele>
        <time>2022-04-28T15:54:40Z</time>
      </trkpt>
      <trkpt lat="41.70789" lon="9.04808">
        <ele>277.48</ele>
        <time>2022-04-28T15:54:54Z</time>
      </trkpt>
      <trkpt lat="41.70782" lon="9.04831">
        <ele>275.56</ele>
        <time>2022-04-28T15:55:10Z</time>
      </trkpt>
      <trkpt lat="41.70778" lon="9.04855">
        <ele>272.19</ele>
        <time>2022-04-28T15:55:24Z</time>
      </trkpt>
      <trkpt lat="41.7078" lon="9.04873">
        <ele>272.67</ele>
        <time>2022-04-28T15:55:40Z</time>
      </trkpt>
      <trkpt lat="41.70784" lon="9.04873">
        <ele>273.15</ele>
        <time>2022-04-28T15:56:00Z</time>
      </trkpt>
      <trkpt lat="41.70782" lon="9.04876">
        <ele>272.19</ele>
        <time>2022-04-28T15:56:21Z</time>
      </trkpt>
      <trkpt lat="41.70779" lon="9.04871">
        <ele>273.15</ele>
        <time>2022-04-28T15:56:40Z</time>
      </trkpt>
      <trkpt lat="41.7078" lon="9.04881">
        <ele>273.15</ele>
        <time>2022-04-28T15:56:49Z</time>
      </trkpt>
      <trkpt lat="41.70787" lon="9.04895">
        <ele>272.67</ele>
        <time>2022-04-28T15:56:59Z</time>
      </trkpt>
      <trkpt lat="41.70788" lon="9.0492">
        <ele>273.15</ele>
        <time>2022-04-28T15:57:14Z</time>
      </trkpt>
      <trkpt lat="41.70786" lon="9.04943">
        <ele>272.67</ele>
        <time>2022-04-28T15:57:28Z</time>
      </trkpt>
      <trkpt lat="41.70773" lon="9.04964">
        <ele>273.63</ele>
        <time>2022-04-28T15:57:46Z</time>
      </trkpt>
      <trkpt lat="41.70763" lon="9.04977">
        <ele>274.59</ele>
        <time>2022-04-28T15:58:01Z</time>
      </trkpt>
      <trkpt lat="41.70745" lon="9.04992">
        <ele>275.07</ele>
        <time>2022-04-28T15:58:19Z</time>
      </trkpt>
      <trkpt lat="41.70732" lon="9.05008">
        <ele>277</ele>
        <time>2022-04-28T15:58:37Z</time>
      </trkpt>
      <trkpt lat="41.70715" lon="9.05008">
        <ele>279.88</ele>
        <time>2022-04-28T15:58:54Z</time>
      </trkpt>
      <trkpt lat="41.70701" lon="9.05008">
        <ele>281.32</ele>
        <time>2022-04-28T15:59:10Z</time>
      </trkpt>
      <trkpt lat="41.70686" lon="9.0501">
        <ele>282.28</ele>
        <time>2022-04-28T15:59:25Z</time>
      </trkpt>
      <trkpt lat="41.70676" lon="9.05028">
        <ele>285.17</ele>
        <time>2022-04-28T15:59:44Z</time>
      </trkpt>
      <trkpt lat="41.70668" lon="9.05042">
        <ele>286.61</ele>
        <time>2022-04-28T15:59:59Z</time>
      </trkpt>
      <trkpt lat="41.70661" lon="9.05058">
        <ele>288.53</ele>
        <time>2022-04-28T16:00:15Z</time>
      </trkpt>
      <trkpt lat="41.70649" lon="9.05072">
        <ele>289.97</ele>
        <time>2022-04-28T16:00:30Z</time>
      </trkpt>
      <trkpt lat="41.70636" lon="9.05086">
        <ele>289.49</ele>
        <time>2022-04-28T16:00:47Z</time>
      </trkpt>
      <trkpt lat="41.70619" lon="9.05095">
        <ele>292.38</ele>
        <time>2022-04-28T16:01:07Z</time>
      </trkpt>
      <trkpt lat="41.70605" lon="9.051">
        <ele>295.74</ele>
        <time>2022-04-28T16:01:23Z</time>
      </trkpt>
      <trkpt lat="41.70591" lon="9.05109">
        <ele>297.67</ele>
        <time>2022-04-28T16:01:41Z</time>
      </trkpt>
      <trkpt lat="41.70581" lon="9.05124">
        <ele>298.63</ele>
        <time>2022-04-28T16:01:59Z</time>
      </trkpt>
      <trkpt lat="41.70581" lon="9.05134">
        <ele>300.55</ele>
        <time>2022-04-28T16:02:18Z</time>
      </trkpt>
      <trkpt lat="41.70576" lon="9.05151">
        <ele>301.03</ele>
        <time>2022-04-28T16:02:32Z</time>
      </trkpt>
      <trkpt lat="41.70573" lon="9.05175">
        <ele>301.03</ele>
        <time>2022-04-28T16:02:49Z</time>
      </trkpt>
      <trkpt lat="41.70574" lon="9.05184">
        <ele>300.55</ele>
        <time>2022-04-28T16:02:55Z</time>
      </trkpt>
      <trkpt lat="41.70571" lon="9.05202">
        <ele>301.03</ele>
        <time>2022-04-28T16:03:08Z</time>
      </trkpt>
      <trkpt lat="41.70569" lon="9.05206">
        <ele>301.51</ele>
        <time>2022-04-28T16:03:12Z</time>
      </trkpt>
      <trkpt lat="41.70566" lon="9.05218">
        <ele>301.51</ele>
        <time>2022-04-28T16:03:20Z</time>
      </trkpt>
      <trkpt lat="41.70564" lon="9.05235">
        <ele>302.95</ele>
        <time>2022-04-28T16:03:31Z</time>
      </trkpt>
      <trkpt lat="41.70559" lon="9.05248">
        <ele>303.91</ele>
        <time>2022-04-28T16:03:40Z</time>
      </trkpt>
      <trkpt lat="41.70554" lon="9.05256">
        <ele>303.91</ele>
        <time>2022-04-28T16:03:54Z</time>
      </trkpt>
      <trkpt lat="41.70546" lon="9.05268">
        <ele>303.43</ele>
        <time>2022-04-28T16:04:07Z</time>
      </trkpt>
      <trkpt lat="41.70544" lon="9.0527">
        <ele>304.39</ele>
        <time>2022-04-28T16:04:10Z</time>
      </trkpt>
      <trkpt lat="41.70531" lon="9.05277">
        <ele>305.36</ele>
        <time>2022-04-28T16:04:23Z</time>
      </trkpt>
      <trkpt lat="41.70522" lon="9.05286">
        <ele>307.76</ele>
        <time>2022-04-28T16:04:36Z</time>
      </trkpt>
      <trkpt lat="41.70516" lon="9.05295">
        <ele>309.68</ele>
        <time>2022-04-28T16:04:48Z</time>
      </trkpt>
      <trkpt lat="41.70506" lon="9.05306">
        <ele>312.57</ele>
        <time>2022-04-28T16:05:04Z</time>
      </trkpt>
      <trkpt lat="41.705" lon="9.05318">
        <ele>314.01</ele>
        <time>2022-04-28T16:05:16Z</time>
      </trkpt>
      <trkpt lat="41.70499" lon="9.05318">
        <ele>314.97</ele>
        <time>2022-04-28T16:05:18Z</time>
      </trkpt>
      <trkpt lat="41.7049" lon="9.05325">
        <ele>317.37</ele>
        <time>2022-04-28T16:05:31Z</time>
      </trkpt>
      <trkpt lat="41.70485" lon="9.0534">
        <ele>319.78</ele>
        <time>2022-04-28T16:05:44Z</time>
      </trkpt>
      <trkpt lat="41.70491" lon="9.05349">
        <ele>319.78</ele>
        <time>2022-04-28T16:05:57Z</time>
      </trkpt>
      <trkpt lat="41.70492" lon="9.05365">
        <ele>320.26</ele>
        <time>2022-04-28T16:06:13Z</time>
      </trkpt>
      <trkpt lat="41.70492" lon="9.05381">
        <ele>321.7</ele>
        <time>2022-04-28T16:06:27Z</time>
      </trkpt>
      <trkpt lat="41.70485" lon="9.05403">
        <ele>322.66</ele>
        <time>2022-04-28T16:06:43Z</time>
      </trkpt>
      <trkpt lat="41.70476" lon="9.05418">
        <ele>325.06</ele>
        <time>2022-04-28T16:07:01Z</time>
      </trkpt>
      <trkpt lat="41.70468" lon="9.05433">
        <ele>326.5</ele>
        <time>2022-04-28T16:07:15Z</time>
      </trkpt>
      <trkpt lat="41.70469" lon="9.05447">
        <ele>325.54</ele>
        <time>2022-04-28T16:07:29Z</time>
      </trkpt>
      <trkpt lat="41.7047" lon="9.05459">
        <ele>322.66</ele>
        <time>2022-04-28T16:07:38Z</time>
      </trkpt>
      <trkpt lat="41.70476" lon="9.05488">
        <ele>320.26</ele>
        <time>2022-04-28T16:07:54Z</time>
      </trkpt>
      <trkpt lat="41.70489" lon="9.05514">
        <ele>320.26</ele>
        <time>2022-04-28T16:08:13Z</time>
      </trkpt>
      <trkpt lat="41.70492" lon="9.0552">
        <ele>319.78</ele>
        <time>2022-04-28T16:08:17Z</time>
      </trkpt>
      <trkpt lat="41.70494" lon="9.05541">
        <ele>319.3</ele>
        <time>2022-04-28T16:08:33Z</time>
      </trkpt>
      <trkpt lat="41.70491" lon="9.05559">
        <ele>319.78</ele>
        <time>2022-04-28T16:08:47Z</time>
      </trkpt>
      <trkpt lat="41.70486" lon="9.05571">
        <ele>319.78</ele>
        <time>2022-04-28T16:09:01Z</time>
      </trkpt>
      <trkpt lat="41.7048" lon="9.0559">
        <ele>317.37</ele>
        <time>2022-04-28T16:09:11Z</time>
      </trkpt>
      <trkpt lat="41.70464" lon="9.05613">
        <ele>315.93</ele>
        <time>2022-04-28T16:09:25Z</time>
      </trkpt>
      <trkpt lat="41.70465" lon="9.05622">
        <ele>315.93</ele>
        <time>2022-04-28T16:09:30Z</time>
      </trkpt>
      <trkpt lat="41.70466" lon="9.05638">
        <ele>314.01</ele>
        <time>2022-04-28T16:09:41Z</time>
      </trkpt>
      <trkpt lat="41.7046" lon="9.05661">
        <ele>311.6</ele>
        <time>2022-04-28T16:09:54Z</time>
      </trkpt>
      <trkpt lat="41.7046" lon="9.05669">
        <ele>311.12</ele>
        <time>2022-04-28T16:09:59Z</time>
      </trkpt>
      <trkpt lat="41.70457" lon="9.05689">
        <ele>311.6</ele>
        <time>2022-04-28T16:10:13Z</time>
      </trkpt>
      <trkpt lat="41.70455" lon="9.05717">
        <ele>312.57</ele>
        <time>2022-04-28T16:10:30Z</time>
      </trkpt>
      <trkpt lat="41.70453" lon="9.05742">
        <ele>312.57</ele>
        <time>2022-04-28T16:10:45Z</time>
      </trkpt>
      <trkpt lat="41.70449" lon="9.05756">
        <ele>312.09</ele>
        <time>2022-04-28T16:10:53Z</time>
      </trkpt>
      <trkpt lat="41.70448" lon="9.05763">
        <ele>312.09</ele>
        <time>2022-04-28T16:10:57Z</time>
      </trkpt>
      <trkpt lat="41.70447" lon="9.05785">
        <ele>313.05</ele>
        <time>2022-04-28T16:11:12Z</time>
      </trkpt>
      <trkpt lat="41.70444" lon="9.05801">
        <ele>313.53</ele>
        <time>2022-04-28T16:11:25Z</time>
      </trkpt>
      <trkpt lat="41.70447" lon="9.05823">
        <ele>314.49</ele>
        <time>2022-04-28T16:11:39Z</time>
      </trkpt>
      <trkpt lat="41.70453" lon="9.05844">
        <ele>316.41</ele>
        <time>2022-04-28T16:11:54Z</time>
      </trkpt>
      <trkpt lat="41.70454" lon="9.05876">
        <ele>317.37</ele>
        <time>2022-04-28T16:12:08Z</time>
      </trkpt>
      <trkpt lat="41.70453" lon="9.059">
        <ele>317.85</ele>
        <time>2022-04-28T16:12:24Z</time>
      </trkpt>
      <trkpt lat="41.70452" lon="9.05924">
        <ele>318.33</ele>
        <time>2022-04-28T16:12:44Z</time>
      </trkpt>
      <trkpt lat="41.70456" lon="9.05944">
        <ele>318.81</ele>
        <time>2022-04-28T16:12:59Z</time>
      </trkpt>
      <trkpt lat="41.70463" lon="9.05961">
        <ele>319.78</ele>
        <time>2022-04-28T16:13:13Z</time>
      </trkpt>
      <trkpt lat="41.70468" lon="9.0598">
        <ele>321.7</ele>
        <time>2022-04-28T16:13:30Z</time>
      </trkpt>
      <trkpt lat="41.70465" lon="9.05992">
        <ele>323.14</ele>
        <time>2022-04-28T16:13:45Z</time>
      </trkpt>
      <trkpt lat="41.70456" lon="9.06007">
        <ele>326.02</ele>
        <time>2022-04-28T16:14:00Z</time>
      </trkpt>
      <trkpt lat="41.70444" lon="9.06017">
        <ele>329.39</ele>
        <time>2022-04-28T16:14:15Z</time>
      </trkpt>
      <trkpt lat="41.70432" lon="9.06023">
        <ele>332.75</ele>
        <time>2022-04-28T16:14:34Z</time>
      </trkpt>
      <trkpt lat="41.70435" lon="9.06024">
        <ele>336.12</ele>
        <time>2022-04-28T16:14:53Z</time>
      </trkpt>
      <trkpt lat="41.70427" lon="9.06033">
        <ele>339</ele>
        <time>2022-04-28T16:15:13Z</time>
      </trkpt>
      <trkpt lat="41.70404" lon="9.06038">
        <ele>341.89</ele>
        <time>2022-04-28T16:15:34Z</time>
      </trkpt>
      <trkpt lat="41.70392" lon="9.06043">
        <ele>343.81</ele>
        <time>2022-04-28T16:15:51Z</time>
      </trkpt>
      <trkpt lat="41.70376" lon="9.06044">
        <ele>343.81</ele>
        <time>2022-04-28T16:16:08Z</time>
      </trkpt>
      <trkpt lat="41.70366" lon="9.06039">
        <ele>342.85</ele>
        <time>2022-04-28T16:16:22Z</time>
      </trkpt>
      <trkpt lat="41.70357" lon="9.0604">
        <ele>346.69</ele>
        <time>2022-04-28T16:16:40Z</time>
      </trkpt>
      <trkpt lat="41.70333" lon="9.06032">
        <ele>346.21</ele>
        <time>2022-04-28T16:16:56Z</time>
      </trkpt>
      <trkpt lat="41.70319" lon="9.06034">
        <ele>348.62</ele>
        <time>2022-04-28T16:17:17Z</time>
      </trkpt>
      <trkpt lat="41.70316" lon="9.0604">
        <ele>351.98</ele>
        <time>2022-04-28T16:17:33Z</time>
      </trkpt>
      <trkpt lat="41.70304" lon="9.06045">
        <ele>353.9</ele>
        <time>2022-04-28T16:17:49Z</time>
      </trkpt>
      <trkpt lat="41.70301" lon="9.06045">
        <ele>355.83</ele>
        <time>2022-04-28T16:18:09Z</time>
      </trkpt>
      <trkpt lat="41.70293" lon="9.06046">
        <ele>358.23</ele>
        <time>2022-04-28T16:18:28Z</time>
      </trkpt>
      <trkpt lat="41.70265" lon="9.06039">
        <ele>359.67</ele>
        <time>2022-04-28T16:18:46Z</time>
      </trkpt>
      <trkpt lat="41.70251" lon="9.06038">
        <ele>361.11</ele>
        <time>2022-04-28T16:19:00Z</time>
      </trkpt>
      <trkpt lat="41.70238" lon="9.06039">
        <ele>363.52</ele>
        <time>2022-04-28T16:19:17Z</time>
      </trkpt>
      <trkpt lat="41.70219" lon="9.06028">
        <ele>364.48</ele>
        <time>2022-04-28T16:19:35Z</time>
      </trkpt>
      <trkpt lat="41.70207" lon="9.06027">
        <ele>365.44</ele>
        <time>2022-04-28T16:19:52Z</time>
      </trkpt>
      <trkpt lat="41.70183" lon="9.06023">
        <ele>368.8</ele>
        <time>2022-04-28T16:20:13Z</time>
      </trkpt>
      <trkpt lat="41.70169" lon="9.06022">
        <ele>370.73</ele>
        <time>2022-04-28T16:20:31Z</time>
      </trkpt>
      <trkpt lat="41.7016" lon="9.0603">
        <ele>373.13</ele>
        <time>2022-04-28T16:20:48Z</time>
      </trkpt>
      <trkpt lat="41.7016" lon="9.06039">
        <ele>376.49</ele>
        <time>2022-04-28T16:21:04Z</time>
      </trkpt>
      <trkpt lat="41.70158" lon="9.06043">
        <ele>378.42</ele>
        <time>2022-04-28T16:21:18Z</time>
      </trkpt>
      <trkpt lat="41.70159" lon="9.06047">
        <ele>379.86</ele>
        <time>2022-04-28T16:21:34Z</time>
      </trkpt>
      <trkpt lat="41.70162" lon="9.06056">
        <ele>382.26</ele>
        <time>2022-04-28T16:21:54Z</time>
      </trkpt>
      <trkpt lat="41.70158" lon="9.0607">
        <ele>385.63</ele>
        <time>2022-04-28T16:22:14Z</time>
      </trkpt>
      <trkpt lat="41.7015" lon="9.06087">
        <ele>387.55</ele>
        <time>2022-04-28T16:22:29Z</time>
      </trkpt>
      <trkpt lat="41.70131" lon="9.06103">
        <ele>388.03</ele>
        <time>2022-04-28T16:22:49Z</time>
      </trkpt>
      <trkpt lat="41.70116" lon="9.06111">
        <ele>388.99</ele>
        <time>2022-04-28T16:23:04Z</time>
      </trkpt>
      <trkpt lat="41.701" lon="9.06114">
        <ele>389.95</ele>
        <time>2022-04-28T16:23:19Z</time>
      </trkpt>
      <trkpt lat="41.7008" lon="9.06116">
        <ele>390.91</ele>
        <time>2022-04-28T16:23:34Z</time>
      </trkpt>
      <trkpt lat="41.70078" lon="9.06115">
        <ele>391.87</ele>
        <time>2022-04-28T16:23:36Z</time>
      </trkpt>
      <trkpt lat="41.70064" lon="9.06112">
        <ele>392.84</ele>
        <time>2022-04-28T16:23:51Z</time>
      </trkpt>
      <trkpt lat="41.70051" lon="9.06117">
        <ele>393.32</ele>
        <time>2022-04-28T16:24:01Z</time>
      </trkpt>
      <trkpt lat="41.70042" lon="9.06117">
        <ele>394.28</ele>
        <time>2022-04-28T16:24:16Z</time>
      </trkpt>
      <trkpt lat="41.70037" lon="9.06121">
        <ele>394.28</ele>
        <time>2022-04-28T16:24:45Z</time>
      </trkpt>
      <trkpt lat="41.70037" lon="9.06118">
        <ele>394.28</ele>
        <time>2022-04-28T16:25:06Z</time>
      </trkpt>
      <trkpt lat="41.70035" lon="9.06116">
        <ele>393.8</ele>
        <time>2022-04-28T16:25:33Z</time>
      </trkpt>
      <trkpt lat="41.70035" lon="9.06117">
        <ele>394.76</ele>
        <time>2022-04-28T16:26:04Z</time>
      </trkpt>
      <trkpt lat="41.70034" lon="9.06114">
        <ele>394.76</ele>
        <time>2022-04-28T16:26:42Z</time>
      </trkpt>
      <trkpt lat="41.70034" lon="9.06117">
        <ele>394.28</ele>
        <time>2022-04-28T16:27:13Z</time>
      </trkpt>
      <trkpt lat="41.70037" lon="9.06118">
        <ele>395.24</ele>
        <time>2022-04-28T16:27:38Z</time>
      </trkpt>
      <trkpt lat="41.70034" lon="9.06114">
        <ele>394.76</ele>
        <time>2022-04-28T16:28:09Z</time>
      </trkpt>
      <trkpt lat="41.70037" lon="9.06119">
        <ele>394.76</ele>
        <time>2022-04-28T16:28:46Z</time>
      </trkpt>
      <trkpt lat="41.7003" lon="9.06119">
        <ele>395.72</ele>
        <time>2022-04-28T16:29:11Z</time>
      </trkpt>
      <trkpt lat="41.70014" lon="9.06116">
        <ele>397.64</ele>
        <time>2022-04-28T16:29:28Z</time>
      </trkpt>
      <trkpt lat="41.70009" lon="9.06117">
        <ele>396.68</ele>
        <time>2022-04-28T16:29:33Z</time>
      </trkpt>
      <trkpt lat="41.70008" lon="9.06117">
        <ele>396.2</ele>
        <time>2022-04-28T16:29:34Z</time>
      </trkpt>
      <trkpt lat="41.69998" lon="9.06111">
        <ele>394.76</ele>
        <time>2022-04-28T16:29:43Z</time>
      </trkpt>
      <trkpt lat="41.69982" lon="9.06107">
        <ele>393.8</ele>
        <time>2022-04-28T16:29:57Z</time>
      </trkpt>
      <trkpt lat="41.69968" lon="9.0611">
        <ele>393.8</ele>
        <time>2022-04-28T16:30:09Z</time>
      </trkpt>
      <trkpt lat="41.69964" lon="9.06123">
        <ele>395.72</ele>
        <time>2022-04-28T16:30:21Z</time>
      </trkpt>
      <trkpt lat="41.69964" lon="9.06129">
        <ele>397.16</ele>
        <time>2022-04-28T16:30:25Z</time>
      </trkpt>
      <trkpt lat="41.69964" lon="9.06133">
        <ele>397.64</ele>
        <time>2022-04-28T16:30:28Z</time>
      </trkpt>
      <trkpt lat="41.69965" lon="9.06154">
        <ele>399.08</ele>
        <time>2022-04-28T16:30:44Z</time>
      </trkpt>
      <trkpt lat="41.69965" lon="9.06169">
        <ele>401.49</ele>
        <time>2022-04-28T16:30:56Z</time>
      </trkpt>
      <trkpt lat="41.69967" lon="9.06184">
        <ele>402.93</ele>
        <time>2022-04-28T16:31:08Z</time>
      </trkpt>
      <trkpt lat="41.69967" lon="9.06196">
        <ele>405.33</ele>
        <time>2022-04-28T16:31:18Z</time>
      </trkpt>
      <trkpt lat="41.69967" lon="9.06198">
        <ele>405.33</ele>
        <time>2022-04-28T16:31:19Z</time>
      </trkpt>
      <trkpt lat="41.69967" lon="9.06215">
        <ele>407.74</ele>
        <time>2022-04-28T16:31:32Z</time>
      </trkpt>
      <trkpt lat="41.69967" lon="9.06219">
        <ele>408.7</ele>
        <time>2022-04-28T16:31:35Z</time>
      </trkpt>
      <trkpt lat="41.69967" lon="9.06228">
        <ele>409.66</ele>
        <time>2022-04-28T16:31:43Z</time>
      </trkpt>
      <trkpt lat="41.69967" lon="9.0623">
        <ele>409.18</ele>
        <time>2022-04-28T16:31:44Z</time>
      </trkpt>
      <trkpt lat="41.69969" lon="9.06242">
        <ele>411.58</ele>
        <time>2022-04-28T16:31:56Z</time>
      </trkpt>
      <trkpt lat="41.69969" lon="9.06257">
        <ele>413.5</ele>
        <time>2022-04-28T16:32:07Z</time>
      </trkpt>
      <trkpt lat="41.69968" lon="9.06277">
        <ele>415.43</ele>
        <time>2022-04-28T16:32:23Z</time>
      </trkpt>
      <trkpt lat="41.69969" lon="9.06294">
        <ele>417.83</ele>
        <time>2022-04-28T16:32:35Z</time>
      </trkpt>
      <trkpt lat="41.69969" lon="9.06308">
        <ele>419.75</ele>
        <time>2022-04-28T16:32:47Z</time>
      </trkpt>
      <trkpt lat="41.6997" lon="9.06313">
        <ele>420.71</ele>
        <time>2022-04-28T16:32:51Z</time>
      </trkpt>
      <trkpt lat="41.69974" lon="9.06328">
        <ele>422.16</ele>
        <time>2022-04-28T16:33:03Z</time>
      </trkpt>
      <trkpt lat="41.69978" lon="9.06344">
        <ele>424.08</ele>
        <time>2022-04-28T16:33:15Z</time>
      </trkpt>
      <trkpt lat="41.69978" lon="9.06355">
        <ele>424.08</ele>
        <time>2022-04-28T16:33:27Z</time>
      </trkpt>
      <trkpt lat="41.69975" lon="9.06358">
        <ele>424.08</ele>
        <time>2022-04-28T16:33:44Z</time>
      </trkpt>
      <trkpt lat="41.69978" lon="9.06366">
        <ele>424.56</ele>
        <time>2022-04-28T16:34:01Z</time>
      </trkpt>
      <trkpt lat="41.69974" lon="9.06374">
        <ele>425.04</ele>
        <time>2022-04-28T16:34:13Z</time>
      </trkpt>
      <trkpt lat="41.69963" lon="9.06381">
        <ele>426.48</ele>
        <time>2022-04-28T16:34:27Z</time>
      </trkpt>
      <trkpt lat="41.69945" lon="9.0638">
        <ele>428.4</ele>
        <time>2022-04-28T16:34:41Z</time>
      </trkpt>
      <trkpt lat="41.69943" lon="9.0638">
        <ele>428.4</ele>
        <time>2022-04-28T16:34:43Z</time>
      </trkpt>
      <trkpt lat="41.69942" lon="9.06381">
        <ele>428.4</ele>
        <time>2022-04-28T16:34:44Z</time>
      </trkpt>
      <trkpt lat="41.69932" lon="9.06383">
        <ele>431.77</ele>
        <time>2022-04-28T16:34:57Z</time>
      </trkpt>
      <trkpt lat="41.69929" lon="9.06384">
        <ele>431.29</ele>
        <time>2022-04-28T16:35:00Z</time>
      </trkpt>
      <trkpt lat="41.69911" lon="9.06381">
        <ele>433.21</ele>
        <time>2022-04-28T16:35:17Z</time>
      </trkpt>
      <trkpt lat="41.69891" lon="9.06375">
        <ele>435.13</ele>
        <time>2022-04-28T16:35:34Z</time>
      </trkpt>
      <trkpt lat="41.69871" lon="9.0637">
        <ele>436.1</ele>
        <time>2022-04-28T16:35:54Z</time>
      </trkpt>
      <trkpt lat="41.69851" lon="9.06367">
        <ele>435.13</ele>
        <time>2022-04-28T16:36:10Z</time>
      </trkpt>
      <trkpt lat="41.69836" lon="9.06369">
        <ele>434.65</ele>
        <time>2022-04-28T16:36:24Z</time>
      </trkpt>
      <trkpt lat="41.69815" lon="9.06373">
        <ele>435.13</ele>
        <time>2022-04-28T16:36:43Z</time>
      </trkpt>
      <trkpt lat="41.69797" lon="9.06368">
        <ele>436.1</ele>
        <time>2022-04-28T16:37:00Z</time>
      </trkpt>
      <trkpt lat="41.69792" lon="9.06367">
        <ele>436.58</ele>
        <time>2022-04-28T16:37:04Z</time>
      </trkpt>
      <trkpt lat="41.69778" lon="9.06365">
        <ele>438.02</ele>
        <time>2022-04-28T16:37:19Z</time>
      </trkpt>
      <trkpt lat="41.69767" lon="9.06363">
        <ele>439.46</ele>
        <time>2022-04-28T16:37:33Z</time>
      </trkpt>
      <trkpt lat="41.69761" lon="9.06366">
        <ele>440.42</ele>
        <time>2022-04-28T16:37:44Z</time>
      </trkpt>
      <trkpt lat="41.69761" lon="9.06367">
        <ele>440.9</ele>
        <time>2022-04-28T16:37:45Z</time>
      </trkpt>
      <trkpt lat="41.69763" lon="9.06376">
        <ele>440.42</ele>
        <time>2022-04-28T16:37:59Z</time>
      </trkpt>
      <trkpt lat="41.69764" lon="9.06366">
        <ele>440.42</ele>
        <time>2022-04-28T16:38:13Z</time>
      </trkpt>
      <trkpt lat="41.6978" lon="9.06372">
        <ele>440.9</ele>
        <time>2022-04-28T16:38:29Z</time>
      </trkpt>
      <trkpt lat="41.69778" lon="9.06369">
        <ele>440.9</ele>
        <time>2022-04-28T16:38:45Z</time>
      </trkpt>
      <trkpt lat="41.6977" lon="9.06372">
        <ele>441.38</ele>
        <time>2022-04-28T16:38:54Z</time>
      </trkpt>
      <trkpt lat="41.69767" lon="9.06374">
        <ele>440.9</ele>
        <time>2022-04-28T16:38:58Z</time>
      </trkpt>
      <trkpt lat="41.69761" lon="9.06382">
        <ele>441.38</ele>
        <time>2022-04-28T16:39:12Z</time>
      </trkpt>
      <trkpt lat="41.6976" lon="9.06382">
        <ele>441.86</ele>
        <time>2022-04-28T16:39:35Z</time>
      </trkpt>
      <trkpt lat="41.6976" lon="9.06383">
        <ele>441.86</ele>
        <time>2022-04-28T16:40:01Z</time>
      </trkpt>
      <trkpt lat="41.69761" lon="9.06385">
        <ele>441.38</ele>
        <time>2022-04-28T16:40:23Z</time>
      </trkpt>
      <trkpt lat="41.6976" lon="9.06388">
        <ele>442.34</ele>
        <time>2022-04-28T16:40:45Z</time>
      </trkpt>
      <trkpt lat="41.69761" lon="9.0639">
        <ele>442.34</ele>
        <time>2022-04-28T16:41:08Z</time>
      </trkpt>
      <trkpt lat="41.69763" lon="9.06388">
        <ele>441.86</ele>
        <time>2022-04-28T16:41:26Z</time>
      </trkpt>
    </trkseg>
  </trk>
</gpx>